<?xml version="1.0" encoding="UTF-8" standalone="no" ?>
<gpx xmlns="http://www.topografix.com/GPX/1/1" xmlns:xsi="http://www.w3.org/2001/XMLSchema-instance" xsi:schemaLocation="http://www.topografix.com/GPX/1/1 http://www.topografix.com/GPX/1/1/gpx.xsd" version="1.1" creator="VisuGPX - https://www.visugpx.com">
  <metadata>
    <name>les grandes aiguilles</name>
  </metadata>
  <trk>
    <name><![CDATA[grandes aiguilles]]></name>
    <trkseg>
      <trkpt lat="45.65916" lon="6.79192">
        <ele>1427.6</ele>
        <time>2017-02-19T07:59:03Z</time>
      </trkpt>
      <trkpt lat="45.65916" lon="6.79191">
        <ele>1427.6</ele>
        <time>2017-02-19T07:59:04Z</time>
      </trkpt>
      <trkpt lat="45.65916" lon="6.79184">
        <ele>1430.93</ele>
        <time>2017-02-19T07:59:09Z</time>
      </trkpt>
      <trkpt lat="45.65916" lon="6.79183">
        <ele>1431.64</ele>
        <time>2017-02-19T07:59:10Z</time>
      </trkpt>
      <trkpt lat="45.65916" lon="6.79175">
        <ele>1433.65</ele>
        <time>2017-02-19T07:59:16Z</time>
      </trkpt>
      <trkpt lat="45.65916" lon="6.79169">
        <ele>1435.12</ele>
        <time>2017-02-19T07:59:20Z</time>
      </trkpt>
      <trkpt lat="45.65918" lon="6.79154">
        <ele>1436.44</ele>
        <time>2017-02-19T07:59:29Z</time>
      </trkpt>
      <trkpt lat="45.65918" lon="6.79153">
        <ele>1436.53</ele>
        <time>2017-02-19T07:59:30Z</time>
      </trkpt>
      <trkpt lat="45.65919" lon="6.7915">
        <ele>1436.74</ele>
        <time>2017-02-19T07:59:32Z</time>
      </trkpt>
      <trkpt lat="45.65922" lon="6.79136">
        <ele>1438.56</ele>
        <time>2017-02-19T07:59:46Z</time>
      </trkpt>
      <trkpt lat="45.65923" lon="6.79136">
        <ele>1438.31</ele>
        <time>2017-02-19T08:00:01Z</time>
      </trkpt>
      <trkpt lat="45.65921" lon="6.79135">
        <ele>1438.47</ele>
        <time>2017-02-19T08:00:15Z</time>
      </trkpt>
      <trkpt lat="45.6592" lon="6.79134">
        <ele>1437.98</ele>
        <time>2017-02-19T08:00:27Z</time>
      </trkpt>
      <trkpt lat="45.6592" lon="6.79135">
        <ele>1438.82</ele>
        <time>2017-02-19T08:00:39Z</time>
      </trkpt>
      <trkpt lat="45.65921" lon="6.79137">
        <ele>1438.88</ele>
        <time>2017-02-19T08:00:52Z</time>
      </trkpt>
      <trkpt lat="45.65922" lon="6.79131">
        <ele>1439.56</ele>
        <time>2017-02-19T08:01:07Z</time>
      </trkpt>
      <trkpt lat="45.65928" lon="6.79116">
        <ele>1440.4</ele>
        <time>2017-02-19T08:01:21Z</time>
      </trkpt>
      <trkpt lat="45.65931" lon="6.79122">
        <ele>1441.7</ele>
        <time>2017-02-19T08:01:34Z</time>
      </trkpt>
      <trkpt lat="45.6593" lon="6.7913">
        <ele>1442.48</ele>
        <time>2017-02-19T08:01:52Z</time>
      </trkpt>
      <trkpt lat="45.65931" lon="6.79144">
        <ele>1443.39</ele>
        <time>2017-02-19T08:02:07Z</time>
      </trkpt>
      <trkpt lat="45.65932" lon="6.79159">
        <ele>1444.03</ele>
        <time>2017-02-19T08:02:19Z</time>
      </trkpt>
      <trkpt lat="45.65932" lon="6.79161">
        <ele>1444.1</ele>
        <time>2017-02-19T08:02:20Z</time>
      </trkpt>
      <trkpt lat="45.65932" lon="6.79165">
        <ele>1444.3</ele>
        <time>2017-02-19T08:02:23Z</time>
      </trkpt>
      <trkpt lat="45.65933" lon="6.79168">
        <ele>1444.47</ele>
        <time>2017-02-19T08:02:25Z</time>
      </trkpt>
      <trkpt lat="45.65936" lon="6.79187">
        <ele>1445.51</ele>
        <time>2017-02-19T08:02:38Z</time>
      </trkpt>
      <trkpt lat="45.65936" lon="6.79188">
        <ele>1445.64</ele>
        <time>2017-02-19T08:02:39Z</time>
      </trkpt>
      <trkpt lat="45.65936" lon="6.79207">
        <ele>1447.42</ele>
        <time>2017-02-19T08:02:51Z</time>
      </trkpt>
      <trkpt lat="45.65935" lon="6.79221">
        <ele>1448.77</ele>
        <time>2017-02-19T08:03:01Z</time>
      </trkpt>
      <trkpt lat="45.65934" lon="6.79231">
        <ele>1449.42</ele>
        <time>2017-02-19T08:03:08Z</time>
      </trkpt>
      <trkpt lat="45.65931" lon="6.79249">
        <ele>1450.96</ele>
        <time>2017-02-19T08:03:21Z</time>
      </trkpt>
      <trkpt lat="45.6593" lon="6.79264">
        <ele>1452.96</ele>
        <time>2017-02-19T08:03:33Z</time>
      </trkpt>
      <trkpt lat="45.65932" lon="6.79274">
        <ele>1454.16</ele>
        <time>2017-02-19T08:03:40Z</time>
      </trkpt>
      <trkpt lat="45.65935" lon="6.79294">
        <ele>1455.64</ele>
        <time>2017-02-19T08:03:53Z</time>
      </trkpt>
      <trkpt lat="45.65939" lon="6.79307">
        <ele>1457.14</ele>
        <time>2017-02-19T08:04:02Z</time>
      </trkpt>
      <trkpt lat="45.65945" lon="6.79323">
        <ele>1458.48</ele>
        <time>2017-02-19T08:04:13Z</time>
      </trkpt>
      <trkpt lat="45.65947" lon="6.79338">
        <ele>1459.95</ele>
        <time>2017-02-19T08:04:25Z</time>
      </trkpt>
      <trkpt lat="45.65947" lon="6.7934">
        <ele>1460.15</ele>
        <time>2017-02-19T08:04:26Z</time>
      </trkpt>
      <trkpt lat="45.65949" lon="6.79351">
        <ele>1461.03</ele>
        <time>2017-02-19T08:04:34Z</time>
      </trkpt>
      <trkpt lat="45.65952" lon="6.79366">
        <ele>1462.44</ele>
        <time>2017-02-19T08:04:45Z</time>
      </trkpt>
      <trkpt lat="45.65956" lon="6.79376">
        <ele>1463.35</ele>
        <time>2017-02-19T08:04:57Z</time>
      </trkpt>
      <trkpt lat="45.65958" lon="6.79384">
        <ele>1463.96</ele>
        <time>2017-02-19T08:05:03Z</time>
      </trkpt>
      <trkpt lat="45.6596" lon="6.79391">
        <ele>1464.43</ele>
        <time>2017-02-19T08:05:08Z</time>
      </trkpt>
      <trkpt lat="45.65963" lon="6.79408">
        <ele>1465.99</ele>
        <time>2017-02-19T08:05:20Z</time>
      </trkpt>
      <trkpt lat="45.65966" lon="6.79419">
        <ele>1467</ele>
        <time>2017-02-19T08:05:28Z</time>
      </trkpt>
      <trkpt lat="45.65968" lon="6.79428">
        <ele>1467.67</ele>
        <time>2017-02-19T08:05:34Z</time>
      </trkpt>
      <trkpt lat="45.65971" lon="6.79444">
        <ele>1469.42</ele>
        <time>2017-02-19T08:05:47Z</time>
      </trkpt>
      <trkpt lat="45.65972" lon="6.79447">
        <ele>1469.67</ele>
        <time>2017-02-19T08:05:49Z</time>
      </trkpt>
      <trkpt lat="45.65973" lon="6.79459">
        <ele>1471.02</ele>
        <time>2017-02-19T08:05:59Z</time>
      </trkpt>
      <trkpt lat="45.65977" lon="6.79469">
        <ele>1472.21</ele>
        <time>2017-02-19T08:06:12Z</time>
      </trkpt>
      <trkpt lat="45.65978" lon="6.79479">
        <ele>1473.39</ele>
        <time>2017-02-19T08:06:23Z</time>
      </trkpt>
      <trkpt lat="45.65985" lon="6.79496">
        <ele>1474.61</ele>
        <time>2017-02-19T08:06:37Z</time>
      </trkpt>
      <trkpt lat="45.65986" lon="6.79499">
        <ele>1474.79</ele>
        <time>2017-02-19T08:06:39Z</time>
      </trkpt>
      <trkpt lat="45.65988" lon="6.79504">
        <ele>1475.07</ele>
        <time>2017-02-19T08:06:43Z</time>
      </trkpt>
      <trkpt lat="45.65991" lon="6.79517">
        <ele>1476.52</ele>
        <time>2017-02-19T08:06:54Z</time>
      </trkpt>
      <trkpt lat="45.65997" lon="6.79529">
        <ele>1478.11</ele>
        <time>2017-02-19T08:07:05Z</time>
      </trkpt>
      <trkpt lat="45.66001" lon="6.79537">
        <ele>1479.74</ele>
        <time>2017-02-19T08:07:16Z</time>
      </trkpt>
      <trkpt lat="45.65999" lon="6.79541">
        <ele>1480.47</ele>
        <time>2017-02-19T08:07:34Z</time>
      </trkpt>
      <trkpt lat="45.66002" lon="6.79548">
        <ele>1480.78</ele>
        <time>2017-02-19T08:07:42Z</time>
      </trkpt>
      <trkpt lat="45.66007" lon="6.79554">
        <ele>1481.34</ele>
        <time>2017-02-19T08:07:47Z</time>
      </trkpt>
      <trkpt lat="45.66018" lon="6.79571">
        <ele>1483.17</ele>
        <time>2017-02-19T08:08:00Z</time>
      </trkpt>
      <trkpt lat="45.66023" lon="6.7958">
        <ele>1484.08</ele>
        <time>2017-02-19T08:08:07Z</time>
      </trkpt>
      <trkpt lat="45.66024" lon="6.79584">
        <ele>1484.56</ele>
        <time>2017-02-19T08:08:10Z</time>
      </trkpt>
      <trkpt lat="45.66028" lon="6.796">
        <ele>1486.07</ele>
        <time>2017-02-19T08:08:21Z</time>
      </trkpt>
      <trkpt lat="45.66033" lon="6.79617">
        <ele>1487.64</ele>
        <time>2017-02-19T08:08:33Z</time>
      </trkpt>
      <trkpt lat="45.66035" lon="6.79624">
        <ele>1488.85</ele>
        <time>2017-02-19T08:08:39Z</time>
      </trkpt>
      <trkpt lat="45.66042" lon="6.7964">
        <ele>1490.79</ele>
        <time>2017-02-19T08:08:53Z</time>
      </trkpt>
      <trkpt lat="45.66045" lon="6.79652">
        <ele>1492.65</ele>
        <time>2017-02-19T08:09:06Z</time>
      </trkpt>
      <trkpt lat="45.66048" lon="6.79669">
        <ele>1494.34</ele>
        <time>2017-02-19T08:09:22Z</time>
      </trkpt>
      <trkpt lat="45.66052" lon="6.79681">
        <ele>1495.22</ele>
        <time>2017-02-19T08:09:30Z</time>
      </trkpt>
      <trkpt lat="45.66059" lon="6.79699">
        <ele>1496.45</ele>
        <time>2017-02-19T08:09:41Z</time>
      </trkpt>
      <trkpt lat="45.66066" lon="6.79707">
        <ele>1497.2</ele>
        <time>2017-02-19T08:09:52Z</time>
      </trkpt>
      <trkpt lat="45.66063" lon="6.79708">
        <ele>1496.57</ele>
        <time>2017-02-19T08:10:10Z</time>
      </trkpt>
      <trkpt lat="45.66063" lon="6.79708">
        <ele>1497.22</ele>
        <time>2017-02-19T08:10:29Z</time>
      </trkpt>
      <trkpt lat="45.66061" lon="6.7971">
        <ele>1497.27</ele>
        <time>2017-02-19T08:10:52Z</time>
      </trkpt>
      <trkpt lat="45.66063" lon="6.79708">
        <ele>1497.2</ele>
        <time>2017-02-19T08:11:08Z</time>
      </trkpt>
      <trkpt lat="45.66061" lon="6.79706">
        <ele>1497.46</ele>
        <time>2017-02-19T08:11:27Z</time>
      </trkpt>
      <trkpt lat="45.66062" lon="6.79711">
        <ele>1497.07</ele>
        <time>2017-02-19T08:11:45Z</time>
      </trkpt>
      <trkpt lat="45.66065" lon="6.79722">
        <ele>1497.4</ele>
        <time>2017-02-19T08:12:02Z</time>
      </trkpt>
      <trkpt lat="45.66066" lon="6.79727">
        <ele>1498.1</ele>
        <time>2017-02-19T08:12:19Z</time>
      </trkpt>
      <trkpt lat="45.66064" lon="6.79727">
        <ele>1498.34</ele>
        <time>2017-02-19T08:12:37Z</time>
      </trkpt>
      <trkpt lat="45.66063" lon="6.79729">
        <ele>1498.37</ele>
        <time>2017-02-19T08:12:54Z</time>
      </trkpt>
      <trkpt lat="45.66064" lon="6.79732">
        <ele>1498.49</ele>
        <time>2017-02-19T08:13:10Z</time>
      </trkpt>
      <trkpt lat="45.66068" lon="6.79738">
        <ele>1498.59</ele>
        <time>2017-02-19T08:13:21Z</time>
      </trkpt>
      <trkpt lat="45.6607" lon="6.79742">
        <ele>1498.74</ele>
        <time>2017-02-19T08:13:25Z</time>
      </trkpt>
      <trkpt lat="45.66075" lon="6.79751">
        <ele>1499.41</ele>
        <time>2017-02-19T08:13:37Z</time>
      </trkpt>
      <trkpt lat="45.6608" lon="6.79757">
        <ele>1500.8</ele>
        <time>2017-02-19T08:13:49Z</time>
      </trkpt>
      <trkpt lat="45.66078" lon="6.79755">
        <ele>1501.31</ele>
        <time>2017-02-19T08:14:07Z</time>
      </trkpt>
      <trkpt lat="45.66076" lon="6.79755">
        <ele>1501.36</ele>
        <time>2017-02-19T08:14:27Z</time>
      </trkpt>
      <trkpt lat="45.66076" lon="6.79756">
        <ele>1501</ele>
        <time>2017-02-19T08:14:42Z</time>
      </trkpt>
      <trkpt lat="45.66076" lon="6.79755">
        <ele>1501.01</ele>
        <time>2017-02-19T08:15:06Z</time>
      </trkpt>
      <trkpt lat="45.66077" lon="6.79755">
        <ele>1501.28</ele>
        <time>2017-02-19T08:15:35Z</time>
      </trkpt>
      <trkpt lat="45.66081" lon="6.79763">
        <ele>1501.43</ele>
        <time>2017-02-19T08:15:45Z</time>
      </trkpt>
      <trkpt lat="45.66083" lon="6.79766">
        <ele>1501.56</ele>
        <time>2017-02-19T08:15:49Z</time>
      </trkpt>
      <trkpt lat="45.66089" lon="6.79777">
        <ele>1502.46</ele>
        <time>2017-02-19T08:15:59Z</time>
      </trkpt>
      <trkpt lat="45.66095" lon="6.79783">
        <ele>1503.34</ele>
        <time>2017-02-19T08:16:06Z</time>
      </trkpt>
      <trkpt lat="45.66103" lon="6.79799">
        <ele>1504.33</ele>
        <time>2017-02-19T08:16:19Z</time>
      </trkpt>
      <trkpt lat="45.6611" lon="6.79812">
        <ele>1504.9</ele>
        <time>2017-02-19T08:16:30Z</time>
      </trkpt>
      <trkpt lat="45.66111" lon="6.79813">
        <ele>1504.92</ele>
        <time>2017-02-19T08:16:31Z</time>
      </trkpt>
      <trkpt lat="45.66112" lon="6.79816">
        <ele>1505.11</ele>
        <time>2017-02-19T08:16:34Z</time>
      </trkpt>
      <trkpt lat="45.66117" lon="6.79829">
        <ele>1506.07</ele>
        <time>2017-02-19T08:16:44Z</time>
      </trkpt>
      <trkpt lat="45.66122" lon="6.79824">
        <ele>1507.51</ele>
        <time>2017-02-19T08:16:54Z</time>
      </trkpt>
      <trkpt lat="45.66122" lon="6.79823">
        <ele>1507.69</ele>
        <time>2017-02-19T08:16:55Z</time>
      </trkpt>
      <trkpt lat="45.66121" lon="6.79809">
        <ele>1509.4</ele>
        <time>2017-02-19T08:17:06Z</time>
      </trkpt>
      <trkpt lat="45.66117" lon="6.79794">
        <ele>1510.42</ele>
        <time>2017-02-19T08:17:17Z</time>
      </trkpt>
      <trkpt lat="45.66113" lon="6.79784">
        <ele>1510.74</ele>
        <time>2017-02-19T08:17:24Z</time>
      </trkpt>
      <trkpt lat="45.66106" lon="6.79769">
        <ele>1511.99</ele>
        <time>2017-02-19T08:17:37Z</time>
      </trkpt>
      <trkpt lat="45.66106" lon="6.79768">
        <ele>1512.07</ele>
        <time>2017-02-19T08:17:38Z</time>
      </trkpt>
      <trkpt lat="45.66105" lon="6.79764">
        <ele>1512.31</ele>
        <time>2017-02-19T08:17:41Z</time>
      </trkpt>
      <trkpt lat="45.66104" lon="6.79759">
        <ele>1512.64</ele>
        <time>2017-02-19T08:17:45Z</time>
      </trkpt>
      <trkpt lat="45.66102" lon="6.79755">
        <ele>1513.04</ele>
        <time>2017-02-19T08:17:49Z</time>
      </trkpt>
      <trkpt lat="45.66097" lon="6.79745">
        <ele>1513.84</ele>
        <time>2017-02-19T08:17:58Z</time>
      </trkpt>
      <trkpt lat="45.66095" lon="6.79729">
        <ele>1514.92</ele>
        <time>2017-02-19T08:18:11Z</time>
      </trkpt>
      <trkpt lat="45.66099" lon="6.79728">
        <ele>1515.7</ele>
        <time>2017-02-19T08:18:19Z</time>
      </trkpt>
      <trkpt lat="45.66101" lon="6.7973">
        <ele>1516.11</ele>
        <time>2017-02-19T08:18:22Z</time>
      </trkpt>
      <trkpt lat="45.66108" lon="6.79743">
        <ele>1517.76</ele>
        <time>2017-02-19T08:18:34Z</time>
      </trkpt>
      <trkpt lat="45.66115" lon="6.79754">
        <ele>1518.98</ele>
        <time>2017-02-19T08:18:45Z</time>
      </trkpt>
      <trkpt lat="45.6612" lon="6.79763">
        <ele>1520.41</ele>
        <time>2017-02-19T08:18:57Z</time>
      </trkpt>
      <trkpt lat="45.66121" lon="6.79765">
        <ele>1521.5</ele>
        <time>2017-02-19T08:19:11Z</time>
      </trkpt>
      <trkpt lat="45.66126" lon="6.7977">
        <ele>1521.5</ele>
        <time>2017-02-19T08:19:17Z</time>
      </trkpt>
      <trkpt lat="45.66135" lon="6.79778">
        <ele>1521.77</ele>
        <time>2017-02-19T08:19:26Z</time>
      </trkpt>
      <trkpt lat="45.66137" lon="6.79781">
        <ele>1522.03</ele>
        <time>2017-02-19T08:19:29Z</time>
      </trkpt>
      <trkpt lat="45.66151" lon="6.79788">
        <ele>1523.38</ele>
        <time>2017-02-19T08:19:39Z</time>
      </trkpt>
      <trkpt lat="45.66157" lon="6.79794">
        <ele>1524.94</ele>
        <time>2017-02-19T08:19:48Z</time>
      </trkpt>
      <trkpt lat="45.66157" lon="6.79796">
        <ele>1525.79</ele>
        <time>2017-02-19T08:19:52Z</time>
      </trkpt>
      <trkpt lat="45.66161" lon="6.79807">
        <ele>1528.58</ele>
        <time>2017-02-19T08:20:03Z</time>
      </trkpt>
      <trkpt lat="45.66165" lon="6.79815">
        <ele>1530.32</ele>
        <time>2017-02-19T08:20:12Z</time>
      </trkpt>
      <trkpt lat="45.66171" lon="6.79827">
        <ele>1532.53</ele>
        <time>2017-02-19T08:20:25Z</time>
      </trkpt>
      <trkpt lat="45.66171" lon="6.79828">
        <ele>1532.67</ele>
        <time>2017-02-19T08:20:26Z</time>
      </trkpt>
      <trkpt lat="45.66176" lon="6.79838">
        <ele>1533.88</ele>
        <time>2017-02-19T08:20:36Z</time>
      </trkpt>
      <trkpt lat="45.66181" lon="6.79846">
        <ele>1534.79</ele>
        <time>2017-02-19T08:20:45Z</time>
      </trkpt>
      <trkpt lat="45.6619" lon="6.79854">
        <ele>1536.6</ele>
        <time>2017-02-19T08:20:58Z</time>
      </trkpt>
      <trkpt lat="45.66199" lon="6.7986">
        <ele>1539.2</ele>
        <time>2017-02-19T08:21:11Z</time>
      </trkpt>
      <trkpt lat="45.66208" lon="6.79868">
        <ele>1541.51</ele>
        <time>2017-02-19T08:21:23Z</time>
      </trkpt>
      <trkpt lat="45.66208" lon="6.7987">
        <ele>1541.61</ele>
        <time>2017-02-19T08:21:24Z</time>
      </trkpt>
      <trkpt lat="45.66216" lon="6.79882">
        <ele>1542.67</ele>
        <time>2017-02-19T08:21:37Z</time>
      </trkpt>
      <trkpt lat="45.6622" lon="6.79888">
        <ele>1542.9</ele>
        <time>2017-02-19T08:21:45Z</time>
      </trkpt>
      <trkpt lat="45.66225" lon="6.79893">
        <ele>1544.18</ele>
        <time>2017-02-19T08:21:57Z</time>
      </trkpt>
      <trkpt lat="45.66233" lon="6.79901">
        <ele>1545.53</ele>
        <time>2017-02-19T08:22:09Z</time>
      </trkpt>
      <trkpt lat="45.66242" lon="6.79914">
        <ele>1547.35</ele>
        <time>2017-02-19T08:22:23Z</time>
      </trkpt>
      <trkpt lat="45.66251" lon="6.79922">
        <ele>1549.61</ele>
        <time>2017-02-19T08:22:37Z</time>
      </trkpt>
      <trkpt lat="45.66258" lon="6.79926">
        <ele>1551.41</ele>
        <time>2017-02-19T08:22:49Z</time>
      </trkpt>
      <trkpt lat="45.66266" lon="6.79929">
        <ele>1553.37</ele>
        <time>2017-02-19T08:23:02Z</time>
      </trkpt>
      <trkpt lat="45.66274" lon="6.79931">
        <ele>1555.59</ele>
        <time>2017-02-19T08:23:16Z</time>
      </trkpt>
      <trkpt lat="45.6628" lon="6.79929">
        <ele>1558.66</ele>
        <time>2017-02-19T08:23:30Z</time>
      </trkpt>
      <trkpt lat="45.66284" lon="6.79927">
        <ele>1561.03</ele>
        <time>2017-02-19T08:23:42Z</time>
      </trkpt>
      <trkpt lat="45.66286" lon="6.79927">
        <ele>1561.72</ele>
        <time>2017-02-19T08:24:05Z</time>
      </trkpt>
      <trkpt lat="45.66288" lon="6.79931">
        <ele>1561.55</ele>
        <time>2017-02-19T08:24:26Z</time>
      </trkpt>
      <trkpt lat="45.66288" lon="6.79934">
        <ele>1561.56</ele>
        <time>2017-02-19T08:24:33Z</time>
      </trkpt>
      <trkpt lat="45.66289" lon="6.7994">
        <ele>1561.27</ele>
        <time>2017-02-19T08:24:37Z</time>
      </trkpt>
      <trkpt lat="45.66293" lon="6.7995">
        <ele>1560.47</ele>
        <time>2017-02-19T08:24:43Z</time>
      </trkpt>
      <trkpt lat="45.66296" lon="6.79954">
        <ele>1559.95</ele>
        <time>2017-02-19T08:24:46Z</time>
      </trkpt>
      <trkpt lat="45.66305" lon="6.79968">
        <ele>1558.73</ele>
        <time>2017-02-19T08:24:56Z</time>
      </trkpt>
      <trkpt lat="45.66307" lon="6.79972">
        <ele>1558.4</ele>
        <time>2017-02-19T08:24:59Z</time>
      </trkpt>
      <trkpt lat="45.66321" lon="6.79982">
        <ele>1556.71</ele>
        <time>2017-02-19T08:25:11Z</time>
      </trkpt>
      <trkpt lat="45.66325" lon="6.79986">
        <ele>1556.32</ele>
        <time>2017-02-19T08:25:15Z</time>
      </trkpt>
      <trkpt lat="45.66337" lon="6.79993">
        <ele>1555.63</ele>
        <time>2017-02-19T08:25:26Z</time>
      </trkpt>
      <trkpt lat="45.66347" lon="6.79996">
        <ele>1556.38</ele>
        <time>2017-02-19T08:25:38Z</time>
      </trkpt>
      <trkpt lat="45.66352" lon="6.79992">
        <ele>1558.75</ele>
        <time>2017-02-19T08:25:49Z</time>
      </trkpt>
      <trkpt lat="45.66359" lon="6.79987">
        <ele>1560.59</ele>
        <time>2017-02-19T08:26:00Z</time>
      </trkpt>
      <trkpt lat="45.66368" lon="6.79983">
        <ele>1562.48</ele>
        <time>2017-02-19T08:26:11Z</time>
      </trkpt>
      <trkpt lat="45.66378" lon="6.7998">
        <ele>1564.63</ele>
        <time>2017-02-19T08:26:24Z</time>
      </trkpt>
      <trkpt lat="45.66387" lon="6.79978">
        <ele>1566.07</ele>
        <time>2017-02-19T08:26:36Z</time>
      </trkpt>
      <trkpt lat="45.66399" lon="6.79976">
        <ele>1568.22</ele>
        <time>2017-02-19T08:26:51Z</time>
      </trkpt>
      <trkpt lat="45.66408" lon="6.79975">
        <ele>1570.42</ele>
        <time>2017-02-19T08:27:03Z</time>
      </trkpt>
      <trkpt lat="45.66417" lon="6.79974">
        <ele>1572.36</ele>
        <time>2017-02-19T08:27:15Z</time>
      </trkpt>
      <trkpt lat="45.66427" lon="6.79974">
        <ele>1575.29</ele>
        <time>2017-02-19T08:27:28Z</time>
      </trkpt>
      <trkpt lat="45.66432" lon="6.79973">
        <ele>1576.31</ele>
        <time>2017-02-19T08:27:33Z</time>
      </trkpt>
      <trkpt lat="45.66437" lon="6.79974">
        <ele>1577.12</ele>
        <time>2017-02-19T08:27:38Z</time>
      </trkpt>
      <trkpt lat="45.66442" lon="6.79982">
        <ele>1579.84</ele>
        <time>2017-02-19T08:27:49Z</time>
      </trkpt>
      <trkpt lat="45.66443" lon="6.79994">
        <ele>1582.32</ele>
        <time>2017-02-19T08:28:00Z</time>
      </trkpt>
      <trkpt lat="45.66442" lon="6.80006">
        <ele>1584.84</ele>
        <time>2017-02-19T08:28:14Z</time>
      </trkpt>
      <trkpt lat="45.66445" lon="6.80015">
        <ele>1587.11</ele>
        <time>2017-02-19T08:28:26Z</time>
      </trkpt>
      <trkpt lat="45.66449" lon="6.80027">
        <ele>1589.51</ele>
        <time>2017-02-19T08:28:38Z</time>
      </trkpt>
      <trkpt lat="45.66453" lon="6.80036">
        <ele>1591.34</ele>
        <time>2017-02-19T08:28:50Z</time>
      </trkpt>
      <trkpt lat="45.66457" lon="6.80043">
        <ele>1593.35</ele>
        <time>2017-02-19T08:29:01Z</time>
      </trkpt>
      <trkpt lat="45.66465" lon="6.80051">
        <ele>1595.18</ele>
        <time>2017-02-19T08:29:13Z</time>
      </trkpt>
      <trkpt lat="45.66472" lon="6.8006">
        <ele>1597.23</ele>
        <time>2017-02-19T08:29:24Z</time>
      </trkpt>
      <trkpt lat="45.66478" lon="6.80067">
        <ele>1598.71</ele>
        <time>2017-02-19T08:29:34Z</time>
      </trkpt>
      <trkpt lat="45.66485" lon="6.80071">
        <ele>1600.62</ele>
        <time>2017-02-19T08:29:45Z</time>
      </trkpt>
      <trkpt lat="45.66492" lon="6.80076">
        <ele>1603.13</ele>
        <time>2017-02-19T08:29:58Z</time>
      </trkpt>
      <trkpt lat="45.66501" lon="6.80085">
        <ele>1605.38</ele>
        <time>2017-02-19T08:30:12Z</time>
      </trkpt>
      <trkpt lat="45.66507" lon="6.8009">
        <ele>1606.87</ele>
        <time>2017-02-19T08:30:20Z</time>
      </trkpt>
      <trkpt lat="45.66514" lon="6.80095">
        <ele>1608.76</ele>
        <time>2017-02-19T08:30:33Z</time>
      </trkpt>
      <trkpt lat="45.66519" lon="6.80102">
        <ele>1610.44</ele>
        <time>2017-02-19T08:30:45Z</time>
      </trkpt>
      <trkpt lat="45.66523" lon="6.80111">
        <ele>1611.79</ele>
        <time>2017-02-19T08:30:56Z</time>
      </trkpt>
      <trkpt lat="45.6653" lon="6.80123">
        <ele>1613.77</ele>
        <time>2017-02-19T08:31:09Z</time>
      </trkpt>
      <trkpt lat="45.66534" lon="6.80132">
        <ele>1615.49</ele>
        <time>2017-02-19T08:31:21Z</time>
      </trkpt>
      <trkpt lat="45.66539" lon="6.80138">
        <ele>1617.3</ele>
        <time>2017-02-19T08:31:34Z</time>
      </trkpt>
      <trkpt lat="45.66545" lon="6.80143">
        <ele>1619.53</ele>
        <time>2017-02-19T08:31:44Z</time>
      </trkpt>
      <trkpt lat="45.66554" lon="6.80147">
        <ele>1621.67</ele>
        <time>2017-02-19T08:31:56Z</time>
      </trkpt>
      <trkpt lat="45.66561" lon="6.8015">
        <ele>1622.83</ele>
        <time>2017-02-19T08:32:05Z</time>
      </trkpt>
      <trkpt lat="45.66571" lon="6.80159">
        <ele>1624.57</ele>
        <time>2017-02-19T08:32:18Z</time>
      </trkpt>
      <trkpt lat="45.66579" lon="6.8016">
        <ele>1626.95</ele>
        <time>2017-02-19T08:32:30Z</time>
      </trkpt>
      <trkpt lat="45.66587" lon="6.80156">
        <ele>1629.11</ele>
        <time>2017-02-19T08:32:44Z</time>
      </trkpt>
      <trkpt lat="45.66596" lon="6.8015">
        <ele>1631.5</ele>
        <time>2017-02-19T08:32:58Z</time>
      </trkpt>
      <trkpt lat="45.66605" lon="6.80147">
        <ele>1633.39</ele>
        <time>2017-02-19T08:33:10Z</time>
      </trkpt>
      <trkpt lat="45.66616" lon="6.80149">
        <ele>1634.91</ele>
        <time>2017-02-19T08:33:24Z</time>
      </trkpt>
      <trkpt lat="45.66624" lon="6.80153">
        <ele>1635.79</ele>
        <time>2017-02-19T08:33:36Z</time>
      </trkpt>
      <trkpt lat="45.66634" lon="6.80156">
        <ele>1637.42</ele>
        <time>2017-02-19T08:33:49Z</time>
      </trkpt>
      <trkpt lat="45.66644" lon="6.80162">
        <ele>1639.74</ele>
        <time>2017-02-19T08:34:02Z</time>
      </trkpt>
      <trkpt lat="45.66653" lon="6.80165">
        <ele>1642.37</ele>
        <time>2017-02-19T08:34:16Z</time>
      </trkpt>
      <trkpt lat="45.66661" lon="6.80169">
        <ele>1645.01</ele>
        <time>2017-02-19T08:34:29Z</time>
      </trkpt>
      <trkpt lat="45.6667" lon="6.8017">
        <ele>1647.2</ele>
        <time>2017-02-19T08:34:41Z</time>
      </trkpt>
      <trkpt lat="45.66675" lon="6.80169">
        <ele>1648.92</ele>
        <time>2017-02-19T08:34:54Z</time>
      </trkpt>
      <trkpt lat="45.66679" lon="6.80167">
        <ele>1650.56</ele>
        <time>2017-02-19T08:35:06Z</time>
      </trkpt>
      <trkpt lat="45.66682" lon="6.80157">
        <ele>1652.54</ele>
        <time>2017-02-19T08:35:18Z</time>
      </trkpt>
      <trkpt lat="45.66681" lon="6.80154">
        <ele>1654.78</ele>
        <time>2017-02-19T08:35:32Z</time>
      </trkpt>
      <trkpt lat="45.66681" lon="6.80157">
        <ele>1655.01</ele>
        <time>2017-02-19T08:35:43Z</time>
      </trkpt>
      <trkpt lat="45.66681" lon="6.80157">
        <ele>1654.93</ele>
        <time>2017-02-19T08:35:58Z</time>
      </trkpt>
      <trkpt lat="45.66683" lon="6.80159">
        <ele>1654.81</ele>
        <time>2017-02-19T08:36:08Z</time>
      </trkpt>
      <trkpt lat="45.66686" lon="6.80164">
        <ele>1654.71</ele>
        <time>2017-02-19T08:36:26Z</time>
      </trkpt>
      <trkpt lat="45.66684" lon="6.80161">
        <ele>1654.78</ele>
        <time>2017-02-19T08:36:45Z</time>
      </trkpt>
      <trkpt lat="45.66683" lon="6.8016">
        <ele>1654.78</ele>
        <time>2017-02-19T08:37:05Z</time>
      </trkpt>
      <trkpt lat="45.66682" lon="6.80159">
        <ele>1654.66</ele>
        <time>2017-02-19T08:37:16Z</time>
      </trkpt>
      <trkpt lat="45.66682" lon="6.80158">
        <ele>1654.58</ele>
        <time>2017-02-19T08:37:27Z</time>
      </trkpt>
      <trkpt lat="45.66681" lon="6.80157">
        <ele>1654.61</ele>
        <time>2017-02-19T08:37:41Z</time>
      </trkpt>
      <trkpt lat="45.6668" lon="6.80156">
        <ele>1654.64</ele>
        <time>2017-02-19T08:37:58Z</time>
      </trkpt>
      <trkpt lat="45.66682" lon="6.80155">
        <ele>1654.39</ele>
        <time>2017-02-19T08:38:21Z</time>
      </trkpt>
      <trkpt lat="45.66682" lon="6.80152">
        <ele>1654.23</ele>
        <time>2017-02-19T08:38:33Z</time>
      </trkpt>
      <trkpt lat="45.66685" lon="6.80155">
        <ele>1655.09</ele>
        <time>2017-02-19T08:38:48Z</time>
      </trkpt>
      <trkpt lat="45.66687" lon="6.80153">
        <ele>1655.34</ele>
        <time>2017-02-19T08:39:03Z</time>
      </trkpt>
      <trkpt lat="45.66689" lon="6.80146">
        <ele>1656.31</ele>
        <time>2017-02-19T08:39:16Z</time>
      </trkpt>
      <trkpt lat="45.66689" lon="6.80145">
        <ele>1656.45</ele>
        <time>2017-02-19T08:39:17Z</time>
      </trkpt>
      <trkpt lat="45.66688" lon="6.80136">
        <ele>1658.56</ele>
        <time>2017-02-19T08:39:31Z</time>
      </trkpt>
      <trkpt lat="45.66695" lon="6.80131">
        <ele>1660.56</ele>
        <time>2017-02-19T08:39:44Z</time>
      </trkpt>
      <trkpt lat="45.66704" lon="6.8013">
        <ele>1662.7</ele>
        <time>2017-02-19T08:39:58Z</time>
      </trkpt>
      <trkpt lat="45.66713" lon="6.80129">
        <ele>1665.72</ele>
        <time>2017-02-19T08:40:12Z</time>
      </trkpt>
      <trkpt lat="45.6672" lon="6.80124">
        <ele>1668.51</ele>
        <time>2017-02-19T08:40:26Z</time>
      </trkpt>
      <trkpt lat="45.6672" lon="6.80114">
        <ele>1671.03</ele>
        <time>2017-02-19T08:40:38Z</time>
      </trkpt>
      <trkpt lat="45.6672" lon="6.80103">
        <ele>1674.03</ele>
        <time>2017-02-19T08:40:51Z</time>
      </trkpt>
      <trkpt lat="45.66725" lon="6.80098">
        <ele>1676.39</ele>
        <time>2017-02-19T08:41:03Z</time>
      </trkpt>
      <trkpt lat="45.6673" lon="6.80098">
        <ele>1677.48</ele>
        <time>2017-02-19T08:41:10Z</time>
      </trkpt>
      <trkpt lat="45.66738" lon="6.80096">
        <ele>1679.88</ele>
        <time>2017-02-19T08:41:22Z</time>
      </trkpt>
      <trkpt lat="45.66746" lon="6.80094">
        <ele>1682.21</ele>
        <time>2017-02-19T08:41:35Z</time>
      </trkpt>
      <trkpt lat="45.66753" lon="6.80086">
        <ele>1685.23</ele>
        <time>2017-02-19T08:41:49Z</time>
      </trkpt>
      <trkpt lat="45.66762" lon="6.80082">
        <ele>1687.38</ele>
        <time>2017-02-19T08:42:00Z</time>
      </trkpt>
      <trkpt lat="45.6677" lon="6.8008">
        <ele>1688.65</ele>
        <time>2017-02-19T08:42:15Z</time>
      </trkpt>
      <trkpt lat="45.66769" lon="6.80077">
        <ele>1689.07</ele>
        <time>2017-02-19T08:42:18Z</time>
      </trkpt>
      <trkpt lat="45.66766" lon="6.80069">
        <ele>1691.38</ele>
        <time>2017-02-19T08:42:30Z</time>
      </trkpt>
      <trkpt lat="45.66772" lon="6.80072">
        <ele>1692.71</ele>
        <time>2017-02-19T08:42:44Z</time>
      </trkpt>
      <trkpt lat="45.66775" lon="6.80074">
        <ele>1692.75</ele>
        <time>2017-02-19T08:42:47Z</time>
      </trkpt>
      <trkpt lat="45.66787" lon="6.80081">
        <ele>1693.42</ele>
        <time>2017-02-19T08:42:58Z</time>
      </trkpt>
      <trkpt lat="45.66789" lon="6.80082">
        <ele>1693.6</ele>
        <time>2017-02-19T08:43:00Z</time>
      </trkpt>
      <trkpt lat="45.66799" lon="6.80089">
        <ele>1693.82</ele>
        <time>2017-02-19T08:43:10Z</time>
      </trkpt>
      <trkpt lat="45.66805" lon="6.80094">
        <ele>1693.8</ele>
        <time>2017-02-19T08:43:17Z</time>
      </trkpt>
      <trkpt lat="45.66812" lon="6.80101">
        <ele>1693.89</ele>
        <time>2017-02-19T08:43:24Z</time>
      </trkpt>
      <trkpt lat="45.66818" lon="6.80105">
        <ele>1694</ele>
        <time>2017-02-19T08:43:29Z</time>
      </trkpt>
      <trkpt lat="45.66831" lon="6.80109">
        <ele>1694.2</ele>
        <time>2017-02-19T08:43:40Z</time>
      </trkpt>
      <trkpt lat="45.66843" lon="6.80112">
        <ele>1694.57</ele>
        <time>2017-02-19T08:43:50Z</time>
      </trkpt>
      <trkpt lat="45.66857" lon="6.80111">
        <ele>1694.28</ele>
        <time>2017-02-19T08:44:03Z</time>
      </trkpt>
      <trkpt lat="45.66863" lon="6.80111">
        <ele>1694.01</ele>
        <time>2017-02-19T08:44:10Z</time>
      </trkpt>
      <trkpt lat="45.66875" lon="6.80117">
        <ele>1694.21</ele>
        <time>2017-02-19T08:44:21Z</time>
      </trkpt>
      <trkpt lat="45.66889" lon="6.80123">
        <ele>1693.94</ele>
        <time>2017-02-19T08:44:35Z</time>
      </trkpt>
      <trkpt lat="45.66903" lon="6.80121">
        <ele>1694.31</ele>
        <time>2017-02-19T08:44:47Z</time>
      </trkpt>
      <trkpt lat="45.66913" lon="6.80125">
        <ele>1694.58</ele>
        <time>2017-02-19T08:44:58Z</time>
      </trkpt>
      <trkpt lat="45.66911" lon="6.80137">
        <ele>1694.81</ele>
        <time>2017-02-19T08:45:09Z</time>
      </trkpt>
      <trkpt lat="45.6691" lon="6.80146">
        <ele>1695.27</ele>
        <time>2017-02-19T08:45:17Z</time>
      </trkpt>
      <trkpt lat="45.66907" lon="6.80154">
        <ele>1695.74</ele>
        <time>2017-02-19T08:45:22Z</time>
      </trkpt>
      <trkpt lat="45.66901" lon="6.80173">
        <ele>1695.89</ele>
        <time>2017-02-19T08:45:35Z</time>
      </trkpt>
      <trkpt lat="45.66895" lon="6.80185">
        <ele>1696.75</ele>
        <time>2017-02-19T08:45:45Z</time>
      </trkpt>
      <trkpt lat="45.66891" lon="6.802">
        <ele>1698.11</ele>
        <time>2017-02-19T08:45:55Z</time>
      </trkpt>
      <trkpt lat="45.66893" lon="6.80219">
        <ele>1698.57</ele>
        <time>2017-02-19T08:46:07Z</time>
      </trkpt>
      <trkpt lat="45.66893" lon="6.80222">
        <ele>1698.66</ele>
        <time>2017-02-19T08:46:09Z</time>
      </trkpt>
      <trkpt lat="45.66895" lon="6.80232">
        <ele>1699.41</ele>
        <time>2017-02-19T08:46:16Z</time>
      </trkpt>
      <trkpt lat="45.66896" lon="6.80235">
        <ele>1699.56</ele>
        <time>2017-02-19T08:46:18Z</time>
      </trkpt>
      <trkpt lat="45.66897" lon="6.80244">
        <ele>1700.08</ele>
        <time>2017-02-19T08:46:24Z</time>
      </trkpt>
      <trkpt lat="45.66896" lon="6.80248">
        <ele>1700.31</ele>
        <time>2017-02-19T08:46:27Z</time>
      </trkpt>
      <trkpt lat="45.66896" lon="6.8026">
        <ele>1701.68</ele>
        <time>2017-02-19T08:46:40Z</time>
      </trkpt>
      <trkpt lat="45.66901" lon="6.80271">
        <ele>1703.13</ele>
        <time>2017-02-19T08:46:51Z</time>
      </trkpt>
      <trkpt lat="45.66904" lon="6.80277">
        <ele>1704.1</ele>
        <time>2017-02-19T08:46:56Z</time>
      </trkpt>
      <trkpt lat="45.66909" lon="6.80287">
        <ele>1705.67</ele>
        <time>2017-02-19T08:47:05Z</time>
      </trkpt>
      <trkpt lat="45.66915" lon="6.80295">
        <ele>1707.18</ele>
        <time>2017-02-19T08:47:15Z</time>
      </trkpt>
      <trkpt lat="45.66921" lon="6.80305">
        <ele>1709.25</ele>
        <time>2017-02-19T08:47:26Z</time>
      </trkpt>
      <trkpt lat="45.66927" lon="6.80313">
        <ele>1711.1</ele>
        <time>2017-02-19T08:47:35Z</time>
      </trkpt>
      <trkpt lat="45.66928" lon="6.80317">
        <ele>1711.88</ele>
        <time>2017-02-19T08:47:39Z</time>
      </trkpt>
      <trkpt lat="45.66937" lon="6.80326">
        <ele>1713.89</ele>
        <time>2017-02-19T08:47:51Z</time>
      </trkpt>
      <trkpt lat="45.66945" lon="6.80334">
        <ele>1715.74</ele>
        <time>2017-02-19T08:48:03Z</time>
      </trkpt>
      <trkpt lat="45.66951" lon="6.80338">
        <ele>1716.93</ele>
        <time>2017-02-19T08:48:11Z</time>
      </trkpt>
      <trkpt lat="45.66959" lon="6.80344">
        <ele>1718.72</ele>
        <time>2017-02-19T08:48:22Z</time>
      </trkpt>
      <trkpt lat="45.66968" lon="6.80351">
        <ele>1720.74</ele>
        <time>2017-02-19T08:48:34Z</time>
      </trkpt>
      <trkpt lat="45.66974" lon="6.80358">
        <ele>1722.94</ele>
        <time>2017-02-19T08:48:45Z</time>
      </trkpt>
      <trkpt lat="45.66981" lon="6.80366">
        <ele>1724.48</ele>
        <time>2017-02-19T08:48:56Z</time>
      </trkpt>
      <trkpt lat="45.66989" lon="6.80376">
        <ele>1726.37</ele>
        <time>2017-02-19T08:49:09Z</time>
      </trkpt>
      <trkpt lat="45.66994" lon="6.80382">
        <ele>1727.59</ele>
        <time>2017-02-19T08:49:17Z</time>
      </trkpt>
      <trkpt lat="45.67001" lon="6.80387">
        <ele>1729.24</ele>
        <time>2017-02-19T08:49:27Z</time>
      </trkpt>
      <trkpt lat="45.67008" lon="6.80392">
        <ele>1730.96</ele>
        <time>2017-02-19T08:49:36Z</time>
      </trkpt>
      <trkpt lat="45.67018" lon="6.80396">
        <ele>1732.42</ele>
        <time>2017-02-19T08:49:49Z</time>
      </trkpt>
      <trkpt lat="45.67027" lon="6.80398">
        <ele>1734.02</ele>
        <time>2017-02-19T08:50:00Z</time>
      </trkpt>
      <trkpt lat="45.67035" lon="6.80399">
        <ele>1735.18</ele>
        <time>2017-02-19T08:50:10Z</time>
      </trkpt>
      <trkpt lat="45.67038" lon="6.80399">
        <ele>1735.57</ele>
        <time>2017-02-19T08:50:14Z</time>
      </trkpt>
      <trkpt lat="45.67047" lon="6.80402">
        <ele>1737.16</ele>
        <time>2017-02-19T08:50:25Z</time>
      </trkpt>
      <trkpt lat="45.67055" lon="6.80405">
        <ele>1738.42</ele>
        <time>2017-02-19T08:50:36Z</time>
      </trkpt>
      <trkpt lat="45.67065" lon="6.80409">
        <ele>1740.25</ele>
        <time>2017-02-19T08:50:50Z</time>
      </trkpt>
      <trkpt lat="45.67074" lon="6.80411">
        <ele>1742</ele>
        <time>2017-02-19T08:51:01Z</time>
      </trkpt>
      <trkpt lat="45.67082" lon="6.80414">
        <ele>1743.74</ele>
        <time>2017-02-19T08:51:14Z</time>
      </trkpt>
      <trkpt lat="45.67093" lon="6.8042">
        <ele>1746.44</ele>
        <time>2017-02-19T08:51:29Z</time>
      </trkpt>
      <trkpt lat="45.67104" lon="6.80427">
        <ele>1748.62</ele>
        <time>2017-02-19T08:51:44Z</time>
      </trkpt>
      <trkpt lat="45.67111" lon="6.80434">
        <ele>1750.61</ele>
        <time>2017-02-19T08:51:56Z</time>
      </trkpt>
      <trkpt lat="45.67119" lon="6.8044">
        <ele>1751.67</ele>
        <time>2017-02-19T08:52:06Z</time>
      </trkpt>
      <trkpt lat="45.67128" lon="6.80445">
        <ele>1753.27</ele>
        <time>2017-02-19T08:52:18Z</time>
      </trkpt>
      <trkpt lat="45.67138" lon="6.80449">
        <ele>1755.18</ele>
        <time>2017-02-19T08:52:31Z</time>
      </trkpt>
      <trkpt lat="45.67146" lon="6.80451">
        <ele>1756.46</ele>
        <time>2017-02-19T08:52:41Z</time>
      </trkpt>
      <trkpt lat="45.67155" lon="6.80456">
        <ele>1758.59</ele>
        <time>2017-02-19T08:52:55Z</time>
      </trkpt>
      <trkpt lat="45.67165" lon="6.80459">
        <ele>1760.74</ele>
        <time>2017-02-19T08:53:07Z</time>
      </trkpt>
      <trkpt lat="45.67174" lon="6.80462">
        <ele>1763.44</ele>
        <time>2017-02-19T08:53:20Z</time>
      </trkpt>
      <trkpt lat="45.67182" lon="6.80471">
        <ele>1765.92</ele>
        <time>2017-02-19T08:53:35Z</time>
      </trkpt>
      <trkpt lat="45.6719" lon="6.8048">
        <ele>1767.94</ele>
        <time>2017-02-19T08:53:49Z</time>
      </trkpt>
      <trkpt lat="45.67197" lon="6.80486">
        <ele>1769.45</ele>
        <time>2017-02-19T08:53:59Z</time>
      </trkpt>
      <trkpt lat="45.67205" lon="6.80494">
        <ele>1771.12</ele>
        <time>2017-02-19T08:54:12Z</time>
      </trkpt>
      <trkpt lat="45.67212" lon="6.80503">
        <ele>1772.73</ele>
        <time>2017-02-19T08:54:25Z</time>
      </trkpt>
      <trkpt lat="45.67221" lon="6.80512">
        <ele>1774.71</ele>
        <time>2017-02-19T08:54:39Z</time>
      </trkpt>
      <trkpt lat="45.67227" lon="6.80519">
        <ele>1776.19</ele>
        <time>2017-02-19T08:54:48Z</time>
      </trkpt>
      <trkpt lat="45.67232" lon="6.80524">
        <ele>1776.98</ele>
        <time>2017-02-19T08:54:54Z</time>
      </trkpt>
      <trkpt lat="45.67241" lon="6.8053">
        <ele>1778.11</ele>
        <time>2017-02-19T08:55:05Z</time>
      </trkpt>
      <trkpt lat="45.67248" lon="6.80536">
        <ele>1779.45</ele>
        <time>2017-02-19T08:55:15Z</time>
      </trkpt>
      <trkpt lat="45.67258" lon="6.80544">
        <ele>1781.04</ele>
        <time>2017-02-19T08:55:29Z</time>
      </trkpt>
      <trkpt lat="45.67266" lon="6.8055">
        <ele>1782.63</ele>
        <time>2017-02-19T08:55:41Z</time>
      </trkpt>
      <trkpt lat="45.67267" lon="6.8055">
        <ele>1782.75</ele>
        <time>2017-02-19T08:55:42Z</time>
      </trkpt>
      <trkpt lat="45.67276" lon="6.80554">
        <ele>1784.57</ele>
        <time>2017-02-19T08:55:54Z</time>
      </trkpt>
      <trkpt lat="45.67285" lon="6.80555">
        <ele>1786.35</ele>
        <time>2017-02-19T08:56:05Z</time>
      </trkpt>
      <trkpt lat="45.67295" lon="6.80559">
        <ele>1789.01</ele>
        <time>2017-02-19T08:56:19Z</time>
      </trkpt>
      <trkpt lat="45.67305" lon="6.80566">
        <ele>1791.12</ele>
        <time>2017-02-19T08:56:33Z</time>
      </trkpt>
      <trkpt lat="45.67314" lon="6.80572">
        <ele>1792.35</ele>
        <time>2017-02-19T08:56:45Z</time>
      </trkpt>
      <trkpt lat="45.67322" lon="6.80576">
        <ele>1793.86</ele>
        <time>2017-02-19T08:56:56Z</time>
      </trkpt>
      <trkpt lat="45.67331" lon="6.80584">
        <ele>1795.94</ele>
        <time>2017-02-19T08:57:11Z</time>
      </trkpt>
      <trkpt lat="45.67339" lon="6.8059">
        <ele>1797.89</ele>
        <time>2017-02-19T08:57:24Z</time>
      </trkpt>
      <trkpt lat="45.67348" lon="6.80592">
        <ele>1800.15</ele>
        <time>2017-02-19T08:57:37Z</time>
      </trkpt>
      <trkpt lat="45.67358" lon="6.80592">
        <ele>1802.22</ele>
        <time>2017-02-19T08:57:49Z</time>
      </trkpt>
      <trkpt lat="45.67362" lon="6.80591">
        <ele>1803.52</ele>
        <time>2017-02-19T08:58:00Z</time>
      </trkpt>
      <trkpt lat="45.67365" lon="6.80591">
        <ele>1803.99</ele>
        <time>2017-02-19T08:58:17Z</time>
      </trkpt>
      <trkpt lat="45.67373" lon="6.80589">
        <ele>1805.87</ele>
        <time>2017-02-19T08:58:29Z</time>
      </trkpt>
      <trkpt lat="45.67382" lon="6.80588">
        <ele>1807.68</ele>
        <time>2017-02-19T08:58:42Z</time>
      </trkpt>
      <trkpt lat="45.67391" lon="6.80587">
        <ele>1810.05</ele>
        <time>2017-02-19T08:58:55Z</time>
      </trkpt>
      <trkpt lat="45.67402" lon="6.80586">
        <ele>1812.77</ele>
        <time>2017-02-19T08:59:11Z</time>
      </trkpt>
      <trkpt lat="45.67411" lon="6.80585">
        <ele>1814.93</ele>
        <time>2017-02-19T08:59:23Z</time>
      </trkpt>
      <trkpt lat="45.67421" lon="6.80588">
        <ele>1816.54</ele>
        <time>2017-02-19T08:59:37Z</time>
      </trkpt>
      <trkpt lat="45.67431" lon="6.80591">
        <ele>1818.3</ele>
        <time>2017-02-19T08:59:53Z</time>
      </trkpt>
      <trkpt lat="45.67438" lon="6.80595">
        <ele>1820.93</ele>
        <time>2017-02-19T09:00:11Z</time>
      </trkpt>
      <trkpt lat="45.67438" lon="6.80585">
        <ele>1822.76</ele>
        <time>2017-02-19T09:00:23Z</time>
      </trkpt>
      <trkpt lat="45.67438" lon="6.80581">
        <ele>1823.78</ele>
        <time>2017-02-19T09:00:28Z</time>
      </trkpt>
      <trkpt lat="45.67438" lon="6.80574">
        <ele>1826.02</ele>
        <time>2017-02-19T09:00:40Z</time>
      </trkpt>
      <trkpt lat="45.67437" lon="6.80568">
        <ele>1827.29</ele>
        <time>2017-02-19T09:00:53Z</time>
      </trkpt>
      <trkpt lat="45.67437" lon="6.80564">
        <ele>1828.27</ele>
        <time>2017-02-19T09:01:03Z</time>
      </trkpt>
      <trkpt lat="45.67441" lon="6.80568">
        <ele>1828.71</ele>
        <time>2017-02-19T09:01:13Z</time>
      </trkpt>
      <trkpt lat="45.6745" lon="6.80574">
        <ele>1830.81</ele>
        <time>2017-02-19T09:01:27Z</time>
      </trkpt>
      <trkpt lat="45.67449" lon="6.80569">
        <ele>1831.9</ele>
        <time>2017-02-19T09:01:36Z</time>
      </trkpt>
      <trkpt lat="45.67447" lon="6.80558">
        <ele>1833.51</ele>
        <time>2017-02-19T09:01:48Z</time>
      </trkpt>
      <trkpt lat="45.67445" lon="6.80547">
        <ele>1835.65</ele>
        <time>2017-02-19T09:02:01Z</time>
      </trkpt>
      <trkpt lat="45.67444" lon="6.80535">
        <ele>1837.35</ele>
        <time>2017-02-19T09:02:12Z</time>
      </trkpt>
      <trkpt lat="45.67442" lon="6.80524">
        <ele>1840.1</ele>
        <time>2017-02-19T09:02:24Z</time>
      </trkpt>
      <trkpt lat="45.67449" lon="6.80524">
        <ele>1842.58</ele>
        <time>2017-02-19T09:02:37Z</time>
      </trkpt>
      <trkpt lat="45.67457" lon="6.80522">
        <ele>1844.95</ele>
        <time>2017-02-19T09:02:49Z</time>
      </trkpt>
      <trkpt lat="45.67465" lon="6.80524">
        <ele>1847.77</ele>
        <time>2017-02-19T09:03:01Z</time>
      </trkpt>
      <trkpt lat="45.67473" lon="6.80527">
        <ele>1850.26</ele>
        <time>2017-02-19T09:03:13Z</time>
      </trkpt>
      <trkpt lat="45.67481" lon="6.80528">
        <ele>1853.28</ele>
        <time>2017-02-19T09:03:26Z</time>
      </trkpt>
      <trkpt lat="45.67481" lon="6.80528">
        <ele>1853.99</ele>
        <time>2017-02-19T09:03:41Z</time>
      </trkpt>
      <trkpt lat="45.67481" lon="6.80528">
        <ele>1853.6</ele>
        <time>2017-02-19T09:04:16Z</time>
      </trkpt>
      <trkpt lat="45.67482" lon="6.80529">
        <ele>1853.77</ele>
        <time>2017-02-19T09:05:11Z</time>
      </trkpt>
      <trkpt lat="45.67481" lon="6.80528">
        <ele>1854.05</ele>
        <time>2017-02-19T09:05:43Z</time>
      </trkpt>
      <trkpt lat="45.67479" lon="6.80529">
        <ele>1854.22</ele>
        <time>2017-02-19T09:06:13Z</time>
      </trkpt>
      <trkpt lat="45.67479" lon="6.8053">
        <ele>1854.22</ele>
        <time>2017-02-19T09:06:42Z</time>
      </trkpt>
      <trkpt lat="45.6748" lon="6.80529">
        <ele>1854.3</ele>
        <time>2017-02-19T09:06:55Z</time>
      </trkpt>
      <trkpt lat="45.67479" lon="6.80528">
        <ele>1855.03</ele>
        <time>2017-02-19T09:07:09Z</time>
      </trkpt>
      <trkpt lat="45.6748" lon="6.80526">
        <ele>1854.18</ele>
        <time>2017-02-19T09:07:27Z</time>
      </trkpt>
      <trkpt lat="45.67481" lon="6.80527">
        <ele>1853.77</ele>
        <time>2017-02-19T09:07:46Z</time>
      </trkpt>
      <trkpt lat="45.67481" lon="6.80528">
        <ele>1854.66</ele>
        <time>2017-02-19T09:08:03Z</time>
      </trkpt>
      <trkpt lat="45.67482" lon="6.80528">
        <ele>1854.96</ele>
        <time>2017-02-19T09:08:24Z</time>
      </trkpt>
      <trkpt lat="45.67482" lon="6.80529">
        <ele>1854.96</ele>
        <time>2017-02-19T09:08:54Z</time>
      </trkpt>
      <trkpt lat="45.67481" lon="6.80529">
        <ele>1854.54</ele>
        <time>2017-02-19T09:09:15Z</time>
      </trkpt>
      <trkpt lat="45.67481" lon="6.80529">
        <ele>1854.54</ele>
        <time>2017-02-19T09:09:36Z</time>
      </trkpt>
      <trkpt lat="45.6748" lon="6.80527">
        <ele>1854.69</ele>
        <time>2017-02-19T09:09:51Z</time>
      </trkpt>
      <trkpt lat="45.67482" lon="6.80527">
        <ele>1854.76</ele>
        <time>2017-02-19T09:10:21Z</time>
      </trkpt>
      <trkpt lat="45.67482" lon="6.80527">
        <ele>1854.67</ele>
        <time>2017-02-19T09:10:59Z</time>
      </trkpt>
      <trkpt lat="45.6748" lon="6.80526">
        <ele>1854.74</ele>
        <time>2017-02-19T09:11:18Z</time>
      </trkpt>
      <trkpt lat="45.67481" lon="6.80527">
        <ele>1854.84</ele>
        <time>2017-02-19T09:11:30Z</time>
      </trkpt>
      <trkpt lat="45.67486" lon="6.80524">
        <ele>1854.02</ele>
        <time>2017-02-19T09:11:58Z</time>
      </trkpt>
      <trkpt lat="45.67484" lon="6.80523">
        <ele>1854.82</ele>
        <time>2017-02-19T09:12:19Z</time>
      </trkpt>
      <trkpt lat="45.67483" lon="6.80525">
        <ele>1854.78</ele>
        <time>2017-02-19T09:12:38Z</time>
      </trkpt>
      <trkpt lat="45.6748" lon="6.80527">
        <ele>1854.69</ele>
        <time>2017-02-19T09:13:02Z</time>
      </trkpt>
      <trkpt lat="45.67481" lon="6.80527">
        <ele>1854.74</ele>
        <time>2017-02-19T09:13:29Z</time>
      </trkpt>
      <trkpt lat="45.67483" lon="6.80523">
        <ele>1854.76</ele>
        <time>2017-02-19T09:13:49Z</time>
      </trkpt>
      <trkpt lat="45.67492" lon="6.80514">
        <ele>1856.81</ele>
        <time>2017-02-19T09:14:06Z</time>
      </trkpt>
      <trkpt lat="45.67501" lon="6.80511">
        <ele>1859.91</ele>
        <time>2017-02-19T09:14:19Z</time>
      </trkpt>
      <trkpt lat="45.67503" lon="6.805">
        <ele>1862.07</ele>
        <time>2017-02-19T09:14:31Z</time>
      </trkpt>
      <trkpt lat="45.67506" lon="6.80482">
        <ele>1865.17</ele>
        <time>2017-02-19T09:14:50Z</time>
      </trkpt>
      <trkpt lat="45.67515" lon="6.8048">
        <ele>1868.34</ele>
        <time>2017-02-19T09:15:05Z</time>
      </trkpt>
      <trkpt lat="45.67526" lon="6.8048">
        <ele>1870.93</ele>
        <time>2017-02-19T09:15:19Z</time>
      </trkpt>
      <trkpt lat="45.67536" lon="6.8048">
        <ele>1873.52</ele>
        <time>2017-02-19T09:15:33Z</time>
      </trkpt>
      <trkpt lat="45.67544" lon="6.80477">
        <ele>1876.11</ele>
        <time>2017-02-19T09:15:46Z</time>
      </trkpt>
      <trkpt lat="45.67547" lon="6.80464">
        <ele>1879.25</ele>
        <time>2017-02-19T09:16:01Z</time>
      </trkpt>
      <trkpt lat="45.67544" lon="6.80452">
        <ele>1881.17</ele>
        <time>2017-02-19T09:16:12Z</time>
      </trkpt>
      <trkpt lat="45.67539" lon="6.80439">
        <ele>1884.05</ele>
        <time>2017-02-19T09:16:27Z</time>
      </trkpt>
      <trkpt lat="45.67533" lon="6.80425">
        <ele>1887.35</ele>
        <time>2017-02-19T09:16:43Z</time>
      </trkpt>
      <trkpt lat="45.67527" lon="6.80412">
        <ele>1890.41</ele>
        <time>2017-02-19T09:17:00Z</time>
      </trkpt>
      <trkpt lat="45.67523" lon="6.804">
        <ele>1893.49</ele>
        <time>2017-02-19T09:17:15Z</time>
      </trkpt>
      <trkpt lat="45.6752" lon="6.80386">
        <ele>1896.64</ele>
        <time>2017-02-19T09:17:31Z</time>
      </trkpt>
      <trkpt lat="45.67517" lon="6.80372">
        <ele>1899.81</ele>
        <time>2017-02-19T09:17:47Z</time>
      </trkpt>
      <trkpt lat="45.67514" lon="6.80365">
        <ele>1902.19</ele>
        <time>2017-02-19T09:18:03Z</time>
      </trkpt>
      <trkpt lat="45.67521" lon="6.80365">
        <ele>1904.58</ele>
        <time>2017-02-19T09:18:17Z</time>
      </trkpt>
      <trkpt lat="45.67529" lon="6.80369">
        <ele>1907.4</ele>
        <time>2017-02-19T09:18:33Z</time>
      </trkpt>
      <trkpt lat="45.67538" lon="6.80372">
        <ele>1910.25</ele>
        <time>2017-02-19T09:18:47Z</time>
      </trkpt>
      <trkpt lat="45.67546" lon="6.80375">
        <ele>1913.47</ele>
        <time>2017-02-19T09:19:01Z</time>
      </trkpt>
      <trkpt lat="45.67556" lon="6.80377">
        <ele>1916.58</ele>
        <time>2017-02-19T09:19:16Z</time>
      </trkpt>
      <trkpt lat="45.67564" lon="6.8038">
        <ele>1919.67</ele>
        <time>2017-02-19T09:19:34Z</time>
      </trkpt>
      <trkpt lat="45.67568" lon="6.8038">
        <ele>1922.12</ele>
        <time>2017-02-19T09:19:49Z</time>
      </trkpt>
      <trkpt lat="45.67575" lon="6.80381">
        <ele>1923.75</ele>
        <time>2017-02-19T09:20:01Z</time>
      </trkpt>
      <trkpt lat="45.67572" lon="6.80377">
        <ele>1925.13</ele>
        <time>2017-02-19T09:20:14Z</time>
      </trkpt>
      <trkpt lat="45.67567" lon="6.80363">
        <ele>1927.93</ele>
        <time>2017-02-19T09:20:35Z</time>
      </trkpt>
      <trkpt lat="45.67566" lon="6.80358">
        <ele>1929.91</ele>
        <time>2017-02-19T09:20:48Z</time>
      </trkpt>
      <trkpt lat="45.67572" lon="6.80359">
        <ele>1931.4</ele>
        <time>2017-02-19T09:21:00Z</time>
      </trkpt>
      <trkpt lat="45.6758" lon="6.8036">
        <ele>1933.91</ele>
        <time>2017-02-19T09:21:14Z</time>
      </trkpt>
      <trkpt lat="45.67592" lon="6.8036">
        <ele>1936.73</ele>
        <time>2017-02-19T09:21:31Z</time>
      </trkpt>
      <trkpt lat="45.67588" lon="6.80351">
        <ele>1938.72</ele>
        <time>2017-02-19T09:21:45Z</time>
      </trkpt>
      <trkpt lat="45.67585" lon="6.80339">
        <ele>1941.74</ele>
        <time>2017-02-19T09:22:00Z</time>
      </trkpt>
      <trkpt lat="45.67588" lon="6.80336">
        <ele>1944.34</ele>
        <time>2017-02-19T09:22:16Z</time>
      </trkpt>
      <trkpt lat="45.67598" lon="6.80339">
        <ele>1946.53</ele>
        <time>2017-02-19T09:22:35Z</time>
      </trkpt>
      <trkpt lat="45.67603" lon="6.80335">
        <ele>1949.63</ele>
        <time>2017-02-19T09:22:50Z</time>
      </trkpt>
      <trkpt lat="45.67602" lon="6.80319">
        <ele>1951.59</ele>
        <time>2017-02-19T09:23:09Z</time>
      </trkpt>
      <trkpt lat="45.67602" lon="6.80305">
        <ele>1954.08</ele>
        <time>2017-02-19T09:23:24Z</time>
      </trkpt>
      <trkpt lat="45.67602" lon="6.80291">
        <ele>1957.17</ele>
        <time>2017-02-19T09:23:41Z</time>
      </trkpt>
      <trkpt lat="45.67606" lon="6.80275">
        <ele>1960.41</ele>
        <time>2017-02-19T09:24:00Z</time>
      </trkpt>
      <trkpt lat="45.67605" lon="6.80256">
        <ele>1963.57</ele>
        <time>2017-02-19T09:24:22Z</time>
      </trkpt>
      <trkpt lat="45.67604" lon="6.80242">
        <ele>1966.61</ele>
        <time>2017-02-19T09:24:39Z</time>
      </trkpt>
      <trkpt lat="45.67597" lon="6.80227">
        <ele>1969.65</ele>
        <time>2017-02-19T09:24:59Z</time>
      </trkpt>
      <trkpt lat="45.6759" lon="6.80214">
        <ele>1972.62</ele>
        <time>2017-02-19T09:25:18Z</time>
      </trkpt>
      <trkpt lat="45.67582" lon="6.80197">
        <ele>1975.64</ele>
        <time>2017-02-19T09:25:40Z</time>
      </trkpt>
      <trkpt lat="45.67579" lon="6.80185">
        <ele>1978.01</ele>
        <time>2017-02-19T09:25:55Z</time>
      </trkpt>
      <trkpt lat="45.67583" lon="6.80179">
        <ele>1980.05</ele>
        <time>2017-02-19T09:26:08Z</time>
      </trkpt>
      <trkpt lat="45.67593" lon="6.80179">
        <ele>1983.13</ele>
        <time>2017-02-19T09:26:24Z</time>
      </trkpt>
      <trkpt lat="45.67603" lon="6.80179">
        <ele>1985.79</ele>
        <time>2017-02-19T09:26:41Z</time>
      </trkpt>
      <trkpt lat="45.67612" lon="6.80181">
        <ele>1988.63</ele>
        <time>2017-02-19T09:26:57Z</time>
      </trkpt>
      <trkpt lat="45.67622" lon="6.80183">
        <ele>1991.54</ele>
        <time>2017-02-19T09:27:13Z</time>
      </trkpt>
      <trkpt lat="45.67631" lon="6.80183">
        <ele>1994.67</ele>
        <time>2017-02-19T09:27:31Z</time>
      </trkpt>
      <trkpt lat="45.67639" lon="6.80184">
        <ele>1997.69</ele>
        <time>2017-02-19T09:27:49Z</time>
      </trkpt>
      <trkpt lat="45.67638" lon="6.80177">
        <ele>2000.44</ele>
        <time>2017-02-19T09:28:04Z</time>
      </trkpt>
      <trkpt lat="45.67639" lon="6.80163">
        <ele>2003.41</ele>
        <time>2017-02-19T09:28:21Z</time>
      </trkpt>
      <trkpt lat="45.67641" lon="6.80147">
        <ele>2006.48</ele>
        <time>2017-02-19T09:28:37Z</time>
      </trkpt>
      <trkpt lat="45.67645" lon="6.80136">
        <ele>2009.5</ele>
        <time>2017-02-19T09:28:53Z</time>
      </trkpt>
      <trkpt lat="45.67657" lon="6.80143">
        <ele>2012.62</ele>
        <time>2017-02-19T09:29:11Z</time>
      </trkpt>
      <trkpt lat="45.67668" lon="6.80149">
        <ele>2015.03</ele>
        <time>2017-02-19T09:29:28Z</time>
      </trkpt>
      <trkpt lat="45.67678" lon="6.80155">
        <ele>2018.21</ele>
        <time>2017-02-19T09:29:45Z</time>
      </trkpt>
      <trkpt lat="45.67684" lon="6.80153">
        <ele>2020.2</ele>
        <time>2017-02-19T09:30:00Z</time>
      </trkpt>
      <trkpt lat="45.67685" lon="6.80139">
        <ele>2023.25</ele>
        <time>2017-02-19T09:30:16Z</time>
      </trkpt>
      <trkpt lat="45.6769" lon="6.80136">
        <ele>2026.3</ele>
        <time>2017-02-19T09:30:31Z</time>
      </trkpt>
      <trkpt lat="45.677" lon="6.80137">
        <ele>2029.35</ele>
        <time>2017-02-19T09:30:48Z</time>
      </trkpt>
      <trkpt lat="45.6771" lon="6.80133">
        <ele>2032.48</ele>
        <time>2017-02-19T09:31:04Z</time>
      </trkpt>
      <trkpt lat="45.67718" lon="6.80138">
        <ele>2034.88</ele>
        <time>2017-02-19T09:31:17Z</time>
      </trkpt>
      <trkpt lat="45.67727" lon="6.80153">
        <ele>2037.08</ele>
        <time>2017-02-19T09:31:35Z</time>
      </trkpt>
      <trkpt lat="45.67734" lon="6.80172">
        <ele>2038.93</ele>
        <time>2017-02-19T09:31:53Z</time>
      </trkpt>
      <trkpt lat="45.67741" lon="6.80182">
        <ele>2040.43</ele>
        <time>2017-02-19T09:32:07Z</time>
      </trkpt>
      <trkpt lat="45.6774" lon="6.80182">
        <ele>2041.21</ele>
        <time>2017-02-19T09:32:27Z</time>
      </trkpt>
      <trkpt lat="45.6774" lon="6.80183">
        <ele>2040.96</ele>
        <time>2017-02-19T09:32:50Z</time>
      </trkpt>
      <trkpt lat="45.6774" lon="6.80181">
        <ele>2041.18</ele>
        <time>2017-02-19T09:33:27Z</time>
      </trkpt>
      <trkpt lat="45.67746" lon="6.80183">
        <ele>2041.45</ele>
        <time>2017-02-19T09:33:47Z</time>
      </trkpt>
      <trkpt lat="45.67748" lon="6.8018">
        <ele>2041.53</ele>
        <time>2017-02-19T09:34:07Z</time>
      </trkpt>
      <trkpt lat="45.67749" lon="6.8018">
        <ele>2041.63</ele>
        <time>2017-02-19T09:34:31Z</time>
      </trkpt>
      <trkpt lat="45.67752" lon="6.80178">
        <ele>2041.54</ele>
        <time>2017-02-19T09:34:49Z</time>
      </trkpt>
      <trkpt lat="45.67752" lon="6.80178">
        <ele>2041.79</ele>
        <time>2017-02-19T09:35:29Z</time>
      </trkpt>
      <trkpt lat="45.67752" lon="6.80178">
        <ele>2041.68</ele>
        <time>2017-02-19T09:35:56Z</time>
      </trkpt>
      <trkpt lat="45.67751" lon="6.80179">
        <ele>2041.88</ele>
        <time>2017-02-19T09:36:24Z</time>
      </trkpt>
      <trkpt lat="45.6775" lon="6.80178">
        <ele>2042.11</ele>
        <time>2017-02-19T09:37:01Z</time>
      </trkpt>
      <trkpt lat="45.6775" lon="6.80175">
        <ele>2042.12</ele>
        <time>2017-02-19T09:37:35Z</time>
      </trkpt>
      <trkpt lat="45.67751" lon="6.80176">
        <ele>2042.38</ele>
        <time>2017-02-19T09:38:10Z</time>
      </trkpt>
      <trkpt lat="45.6775" lon="6.80173">
        <ele>2042.29</ele>
        <time>2017-02-19T09:38:43Z</time>
      </trkpt>
      <trkpt lat="45.67755" lon="6.80172">
        <ele>2042.49</ele>
        <time>2017-02-19T09:38:59Z</time>
      </trkpt>
      <trkpt lat="45.67759" lon="6.80167">
        <ele>2042.7</ele>
        <time>2017-02-19T09:39:14Z</time>
      </trkpt>
      <trkpt lat="45.67758" lon="6.80161">
        <ele>2043.58</ele>
        <time>2017-02-19T09:39:24Z</time>
      </trkpt>
      <trkpt lat="45.67748" lon="6.80153">
        <ele>2046.62</ele>
        <time>2017-02-19T09:39:40Z</time>
      </trkpt>
      <trkpt lat="45.67744" lon="6.80141">
        <ele>2048.52</ele>
        <time>2017-02-19T09:39:53Z</time>
      </trkpt>
      <trkpt lat="45.67745" lon="6.80128">
        <ele>2051.74</ele>
        <time>2017-02-19T09:40:09Z</time>
      </trkpt>
      <trkpt lat="45.6774" lon="6.80115">
        <ele>2054.92</ele>
        <time>2017-02-19T09:40:26Z</time>
      </trkpt>
      <trkpt lat="45.67737" lon="6.80106">
        <ele>2058.01</ele>
        <time>2017-02-19T09:40:39Z</time>
      </trkpt>
      <trkpt lat="45.67735" lon="6.80093">
        <ele>2061.32</ele>
        <time>2017-02-19T09:40:55Z</time>
      </trkpt>
      <trkpt lat="45.67742" lon="6.80086">
        <ele>2064.38</ele>
        <time>2017-02-19T09:41:10Z</time>
      </trkpt>
      <trkpt lat="45.67752" lon="6.80082">
        <ele>2067.57</ele>
        <time>2017-02-19T09:41:26Z</time>
      </trkpt>
      <trkpt lat="45.67761" lon="6.80078">
        <ele>2070.6</ele>
        <time>2017-02-19T09:41:42Z</time>
      </trkpt>
      <trkpt lat="45.67771" lon="6.80079">
        <ele>2073.77</ele>
        <time>2017-02-19T09:41:58Z</time>
      </trkpt>
      <trkpt lat="45.6778" lon="6.80079">
        <ele>2076.81</ele>
        <time>2017-02-19T09:42:12Z</time>
      </trkpt>
      <trkpt lat="45.67791" lon="6.80078">
        <ele>2079.72</ele>
        <time>2017-02-19T09:42:28Z</time>
      </trkpt>
      <trkpt lat="45.678" lon="6.80071">
        <ele>2081.73</ele>
        <time>2017-02-19T09:42:42Z</time>
      </trkpt>
      <trkpt lat="45.67808" lon="6.8006">
        <ele>2083.89</ele>
        <time>2017-02-19T09:42:58Z</time>
      </trkpt>
      <trkpt lat="45.67815" lon="6.8005">
        <ele>2086.66</ele>
        <time>2017-02-19T09:43:13Z</time>
      </trkpt>
      <trkpt lat="45.67823" lon="6.80042">
        <ele>2089.73</ele>
        <time>2017-02-19T09:43:28Z</time>
      </trkpt>
      <trkpt lat="45.67824" lon="6.8003">
        <ele>2091.88</ele>
        <time>2017-02-19T09:43:45Z</time>
      </trkpt>
      <trkpt lat="45.67824" lon="6.80028">
        <ele>2093.51</ele>
        <time>2017-02-19T09:44:00Z</time>
      </trkpt>
      <trkpt lat="45.67824" lon="6.80029">
        <ele>2093.63</ele>
        <time>2017-02-19T09:44:19Z</time>
      </trkpt>
      <trkpt lat="45.67824" lon="6.8003">
        <ele>2093.76</ele>
        <time>2017-02-19T09:44:36Z</time>
      </trkpt>
      <trkpt lat="45.67824" lon="6.80029">
        <ele>2093.72</ele>
        <time>2017-02-19T09:45:06Z</time>
      </trkpt>
      <trkpt lat="45.67824" lon="6.8003">
        <ele>2094.04</ele>
        <time>2017-02-19T09:45:27Z</time>
      </trkpt>
      <trkpt lat="45.67822" lon="6.80031">
        <ele>2093.97</ele>
        <time>2017-02-19T09:46:08Z</time>
      </trkpt>
      <trkpt lat="45.67824" lon="6.80029">
        <ele>2094.17</ele>
        <time>2017-02-19T09:46:46Z</time>
      </trkpt>
      <trkpt lat="45.67823" lon="6.8003">
        <ele>2094.38</ele>
        <time>2017-02-19T09:47:02Z</time>
      </trkpt>
      <trkpt lat="45.67823" lon="6.80031">
        <ele>2094.22</ele>
        <time>2017-02-19T09:47:38Z</time>
      </trkpt>
      <trkpt lat="45.67823" lon="6.80031">
        <ele>2093.94</ele>
        <time>2017-02-19T09:48:10Z</time>
      </trkpt>
      <trkpt lat="45.67822" lon="6.8003">
        <ele>2093.96</ele>
        <time>2017-02-19T09:48:34Z</time>
      </trkpt>
      <trkpt lat="45.67822" lon="6.80028">
        <ele>2093.85</ele>
        <time>2017-02-19T09:48:50Z</time>
      </trkpt>
      <trkpt lat="45.67819" lon="6.80013">
        <ele>2095.75</ele>
        <time>2017-02-19T09:49:09Z</time>
      </trkpt>
      <trkpt lat="45.67817" lon="6.79999">
        <ele>2098.78</ele>
        <time>2017-02-19T09:49:25Z</time>
      </trkpt>
      <trkpt lat="45.67819" lon="6.79983">
        <ele>2101.78</ele>
        <time>2017-02-19T09:49:42Z</time>
      </trkpt>
      <trkpt lat="45.67823" lon="6.79974">
        <ele>2104.4</ele>
        <time>2017-02-19T09:49:55Z</time>
      </trkpt>
      <trkpt lat="45.67825" lon="6.79958">
        <ele>2107.34</ele>
        <time>2017-02-19T09:50:12Z</time>
      </trkpt>
      <trkpt lat="45.67823" lon="6.79943">
        <ele>2110.47</ele>
        <time>2017-02-19T09:50:28Z</time>
      </trkpt>
      <trkpt lat="45.67824" lon="6.79929">
        <ele>2113.58</ele>
        <time>2017-02-19T09:50:42Z</time>
      </trkpt>
      <trkpt lat="45.67827" lon="6.79915">
        <ele>2116.05</ele>
        <time>2017-02-19T09:50:56Z</time>
      </trkpt>
      <trkpt lat="45.67837" lon="6.79914">
        <ele>2118.76</ele>
        <time>2017-02-19T09:51:10Z</time>
      </trkpt>
      <trkpt lat="45.67848" lon="6.79916">
        <ele>2121.27</ele>
        <time>2017-02-19T09:51:26Z</time>
      </trkpt>
      <trkpt lat="45.67857" lon="6.79921">
        <ele>2124.44</ele>
        <time>2017-02-19T09:51:41Z</time>
      </trkpt>
      <trkpt lat="45.67868" lon="6.79925">
        <ele>2127.48</ele>
        <time>2017-02-19T09:51:56Z</time>
      </trkpt>
      <trkpt lat="45.67877" lon="6.79928">
        <ele>2128.7</ele>
        <time>2017-02-19T09:52:08Z</time>
      </trkpt>
      <trkpt lat="45.67883" lon="6.79928">
        <ele>2129.56</ele>
        <time>2017-02-19T09:52:16Z</time>
      </trkpt>
      <trkpt lat="45.67894" lon="6.79931">
        <ele>2130.98</ele>
        <time>2017-02-19T09:52:30Z</time>
      </trkpt>
      <trkpt lat="45.67902" lon="6.7993">
        <ele>2133.07</ele>
        <time>2017-02-19T09:52:44Z</time>
      </trkpt>
      <trkpt lat="45.6791" lon="6.79922">
        <ele>2135.35</ele>
        <time>2017-02-19T09:52:58Z</time>
      </trkpt>
      <trkpt lat="45.67912" lon="6.79911">
        <ele>2138.51</ele>
        <time>2017-02-19T09:53:13Z</time>
      </trkpt>
      <trkpt lat="45.67915" lon="6.79899">
        <ele>2141.52</ele>
        <time>2017-02-19T09:53:28Z</time>
      </trkpt>
      <trkpt lat="45.67924" lon="6.7989">
        <ele>2143.39</ele>
        <time>2017-02-19T09:53:41Z</time>
      </trkpt>
      <trkpt lat="45.6793" lon="6.79884">
        <ele>2144.55</ele>
        <time>2017-02-19T09:53:53Z</time>
      </trkpt>
      <trkpt lat="45.67942" lon="6.79874">
        <ele>2146.17</ele>
        <time>2017-02-19T09:54:09Z</time>
      </trkpt>
      <trkpt lat="45.67953" lon="6.79865">
        <ele>2148.14</ele>
        <time>2017-02-19T09:54:24Z</time>
      </trkpt>
      <trkpt lat="45.67963" lon="6.7986">
        <ele>2149.81</ele>
        <time>2017-02-19T09:54:38Z</time>
      </trkpt>
      <trkpt lat="45.67975" lon="6.79859">
        <ele>2151.73</ele>
        <time>2017-02-19T09:54:52Z</time>
      </trkpt>
      <trkpt lat="45.67984" lon="6.79859">
        <ele>2153.69</ele>
        <time>2017-02-19T09:55:05Z</time>
      </trkpt>
      <trkpt lat="45.67994" lon="6.7986">
        <ele>2155.69</ele>
        <time>2017-02-19T09:55:17Z</time>
      </trkpt>
      <trkpt lat="45.68004" lon="6.79861">
        <ele>2157.16</ele>
        <time>2017-02-19T09:55:29Z</time>
      </trkpt>
      <trkpt lat="45.68015" lon="6.79862">
        <ele>2158.94</ele>
        <time>2017-02-19T09:55:43Z</time>
      </trkpt>
      <trkpt lat="45.68024" lon="6.79863">
        <ele>2160.7</ele>
        <time>2017-02-19T09:55:55Z</time>
      </trkpt>
      <trkpt lat="45.68035" lon="6.79868">
        <ele>2163.41</ele>
        <time>2017-02-19T09:56:11Z</time>
      </trkpt>
      <trkpt lat="45.68044" lon="6.79869">
        <ele>2165.37</ele>
        <time>2017-02-19T09:56:23Z</time>
      </trkpt>
      <trkpt lat="45.68054" lon="6.79871">
        <ele>2167.44</ele>
        <time>2017-02-19T09:56:37Z</time>
      </trkpt>
      <trkpt lat="45.68064" lon="6.79876">
        <ele>2169.92</ele>
        <time>2017-02-19T09:56:52Z</time>
      </trkpt>
      <trkpt lat="45.68074" lon="6.7988">
        <ele>2172.69</ele>
        <time>2017-02-19T09:57:07Z</time>
      </trkpt>
      <trkpt lat="45.68083" lon="6.79886">
        <ele>2175.39</ele>
        <time>2017-02-19T09:57:23Z</time>
      </trkpt>
      <trkpt lat="45.68093" lon="6.79892">
        <ele>2177.63</ele>
        <time>2017-02-19T09:57:38Z</time>
      </trkpt>
      <trkpt lat="45.68101" lon="6.79894">
        <ele>2179.78</ele>
        <time>2017-02-19T09:57:51Z</time>
      </trkpt>
      <trkpt lat="45.6811" lon="6.79897">
        <ele>2183.13</ele>
        <time>2017-02-19T09:58:06Z</time>
      </trkpt>
      <trkpt lat="45.68119" lon="6.799">
        <ele>2185.59</ele>
        <time>2017-02-19T09:58:20Z</time>
      </trkpt>
      <trkpt lat="45.6812" lon="6.799">
        <ele>2185.88</ele>
        <time>2017-02-19T09:58:22Z</time>
      </trkpt>
      <trkpt lat="45.68125" lon="6.79899">
        <ele>2186.27</ele>
        <time>2017-02-19T09:58:26Z</time>
      </trkpt>
      <trkpt lat="45.68137" lon="6.79898">
        <ele>2187.19</ele>
        <time>2017-02-19T09:58:39Z</time>
      </trkpt>
      <trkpt lat="45.68145" lon="6.799">
        <ele>2188.81</ele>
        <time>2017-02-19T09:58:53Z</time>
      </trkpt>
      <trkpt lat="45.68157" lon="6.79904">
        <ele>2191.92</ele>
        <time>2017-02-19T09:59:10Z</time>
      </trkpt>
      <trkpt lat="45.68169" lon="6.79901">
        <ele>2194.9</ele>
        <time>2017-02-19T09:59:29Z</time>
      </trkpt>
      <trkpt lat="45.68168" lon="6.79901">
        <ele>2195.81</ele>
        <time>2017-02-19T09:59:44Z</time>
      </trkpt>
      <trkpt lat="45.68167" lon="6.79901">
        <ele>2195.55</ele>
        <time>2017-02-19T10:00:08Z</time>
      </trkpt>
      <trkpt lat="45.68166" lon="6.79905">
        <ele>2195.67</ele>
        <time>2017-02-19T10:00:37Z</time>
      </trkpt>
      <trkpt lat="45.68166" lon="6.79904">
        <ele>2196.14</ele>
        <time>2017-02-19T10:01:00Z</time>
      </trkpt>
      <trkpt lat="45.68167" lon="6.79903">
        <ele>2196.19</ele>
        <time>2017-02-19T10:01:21Z</time>
      </trkpt>
      <trkpt lat="45.68166" lon="6.79903">
        <ele>2195.91</ele>
        <time>2017-02-19T10:01:43Z</time>
      </trkpt>
      <trkpt lat="45.68169" lon="6.79902">
        <ele>2195.93</ele>
        <time>2017-02-19T10:02:21Z</time>
      </trkpt>
      <trkpt lat="45.68165" lon="6.79908">
        <ele>2196.11</ele>
        <time>2017-02-19T10:02:43Z</time>
      </trkpt>
      <trkpt lat="45.68171" lon="6.79903">
        <ele>2196.42</ele>
        <time>2017-02-19T10:02:55Z</time>
      </trkpt>
      <trkpt lat="45.68166" lon="6.79908">
        <ele>2196.51</ele>
        <time>2017-02-19T10:03:21Z</time>
      </trkpt>
      <trkpt lat="45.68171" lon="6.79902">
        <ele>2196.38</ele>
        <time>2017-02-19T10:03:43Z</time>
      </trkpt>
      <trkpt lat="45.68173" lon="6.79898">
        <ele>2196.28</ele>
        <time>2017-02-19T10:04:12Z</time>
      </trkpt>
      <trkpt lat="45.68174" lon="6.79893">
        <ele>2196.74</ele>
        <time>2017-02-19T10:04:24Z</time>
      </trkpt>
      <trkpt lat="45.68177" lon="6.7989">
        <ele>2196.81</ele>
        <time>2017-02-19T10:04:27Z</time>
      </trkpt>
      <trkpt lat="45.68186" lon="6.7988">
        <ele>2196.86</ele>
        <time>2017-02-19T10:04:39Z</time>
      </trkpt>
      <trkpt lat="45.6819" lon="6.79879">
        <ele>2196.89</ele>
        <time>2017-02-19T10:04:44Z</time>
      </trkpt>
      <trkpt lat="45.68205" lon="6.79877">
        <ele>2196.75</ele>
        <time>2017-02-19T10:04:59Z</time>
      </trkpt>
      <trkpt lat="45.68219" lon="6.79879">
        <ele>2196.82</ele>
        <time>2017-02-19T10:05:13Z</time>
      </trkpt>
      <trkpt lat="45.68233" lon="6.7988">
        <ele>2197.28</ele>
        <time>2017-02-19T10:05:27Z</time>
      </trkpt>
      <trkpt lat="45.68245" lon="6.7988">
        <ele>2198.32</ele>
        <time>2017-02-19T10:05:40Z</time>
      </trkpt>
      <trkpt lat="45.68258" lon="6.79881">
        <ele>2199.82</ele>
        <time>2017-02-19T10:05:54Z</time>
      </trkpt>
      <trkpt lat="45.6827" lon="6.79884">
        <ele>2201.2</ele>
        <time>2017-02-19T10:06:08Z</time>
      </trkpt>
      <trkpt lat="45.68281" lon="6.79886">
        <ele>2201.93</ele>
        <time>2017-02-19T10:06:20Z</time>
      </trkpt>
      <trkpt lat="45.68292" lon="6.79886">
        <ele>2203.08</ele>
        <time>2017-02-19T10:06:33Z</time>
      </trkpt>
      <trkpt lat="45.68304" lon="6.79888">
        <ele>2206.13</ele>
        <time>2017-02-19T10:06:52Z</time>
      </trkpt>
      <trkpt lat="45.68312" lon="6.79889">
        <ele>2209.27</ele>
        <time>2017-02-19T10:07:06Z</time>
      </trkpt>
      <trkpt lat="45.68322" lon="6.79894">
        <ele>2212.21</ele>
        <time>2017-02-19T10:07:21Z</time>
      </trkpt>
      <trkpt lat="45.68328" lon="6.79903">
        <ele>2214.39</ele>
        <time>2017-02-19T10:07:35Z</time>
      </trkpt>
      <trkpt lat="45.68334" lon="6.79915">
        <ele>2217.31</ele>
        <time>2017-02-19T10:07:52Z</time>
      </trkpt>
      <trkpt lat="45.68341" lon="6.79923">
        <ele>2220.32</ele>
        <time>2017-02-19T10:08:06Z</time>
      </trkpt>
      <trkpt lat="45.68349" lon="6.7993">
        <ele>2222.98</ele>
        <time>2017-02-19T10:08:21Z</time>
      </trkpt>
      <trkpt lat="45.68363" lon="6.79934">
        <ele>2225.99</ele>
        <time>2017-02-19T10:08:42Z</time>
      </trkpt>
      <trkpt lat="45.68372" lon="6.79939">
        <ele>2228.95</ele>
        <time>2017-02-19T10:08:58Z</time>
      </trkpt>
      <trkpt lat="45.68381" lon="6.79944">
        <ele>2232</ele>
        <time>2017-02-19T10:09:14Z</time>
      </trkpt>
      <trkpt lat="45.68388" lon="6.79948">
        <ele>2235.15</ele>
        <time>2017-02-19T10:09:28Z</time>
      </trkpt>
      <trkpt lat="45.68399" lon="6.79955">
        <ele>2238.09</ele>
        <time>2017-02-19T10:09:46Z</time>
      </trkpt>
      <trkpt lat="45.68408" lon="6.7996">
        <ele>2240.73</ele>
        <time>2017-02-19T10:10:01Z</time>
      </trkpt>
      <trkpt lat="45.68417" lon="6.79964">
        <ele>2243.21</ele>
        <time>2017-02-19T10:10:16Z</time>
      </trkpt>
      <trkpt lat="45.68426" lon="6.79966">
        <ele>2245.89</ele>
        <time>2017-02-19T10:10:31Z</time>
      </trkpt>
      <trkpt lat="45.68436" lon="6.79969">
        <ele>2247.41</ele>
        <time>2017-02-19T10:10:44Z</time>
      </trkpt>
      <trkpt lat="45.68445" lon="6.79971">
        <ele>2249.2</ele>
        <time>2017-02-19T10:10:58Z</time>
      </trkpt>
      <trkpt lat="45.68455" lon="6.79971">
        <ele>2251.62</ele>
        <time>2017-02-19T10:11:14Z</time>
      </trkpt>
      <trkpt lat="45.68465" lon="6.79975">
        <ele>2253.81</ele>
        <time>2017-02-19T10:11:31Z</time>
      </trkpt>
      <trkpt lat="45.68476" lon="6.79981">
        <ele>2256.94</ele>
        <time>2017-02-19T10:11:51Z</time>
      </trkpt>
      <trkpt lat="45.68486" lon="6.79984">
        <ele>2259.22</ele>
        <time>2017-02-19T10:12:06Z</time>
      </trkpt>
      <trkpt lat="45.68495" lon="6.79992">
        <ele>2262.34</ele>
        <time>2017-02-19T10:12:25Z</time>
      </trkpt>
      <trkpt lat="45.68497" lon="6.79987">
        <ele>2264.65</ele>
        <time>2017-02-19T10:12:40Z</time>
      </trkpt>
      <trkpt lat="45.68497" lon="6.79971">
        <ele>2267.66</ele>
        <time>2017-02-19T10:13:01Z</time>
      </trkpt>
      <trkpt lat="45.685" lon="6.79967">
        <ele>2270.19</ele>
        <time>2017-02-19T10:13:16Z</time>
      </trkpt>
      <trkpt lat="45.68508" lon="6.79972">
        <ele>2272.37</ele>
        <time>2017-02-19T10:13:31Z</time>
      </trkpt>
      <trkpt lat="45.68514" lon="6.7998">
        <ele>2274.5</ele>
        <time>2017-02-19T10:13:47Z</time>
      </trkpt>
      <trkpt lat="45.68517" lon="6.79988">
        <ele>2277.39</ele>
        <time>2017-02-19T10:14:04Z</time>
      </trkpt>
      <trkpt lat="45.68519" lon="6.7998">
        <ele>2278.62</ele>
        <time>2017-02-19T10:14:17Z</time>
      </trkpt>
      <trkpt lat="45.68523" lon="6.79971">
        <ele>2280.48</ele>
        <time>2017-02-19T10:14:32Z</time>
      </trkpt>
      <trkpt lat="45.68524" lon="6.79959">
        <ele>2283.61</ele>
        <time>2017-02-19T10:14:50Z</time>
      </trkpt>
      <trkpt lat="45.68527" lon="6.79955">
        <ele>2286.04</ele>
        <time>2017-02-19T10:15:09Z</time>
      </trkpt>
      <trkpt lat="45.68536" lon="6.79963">
        <ele>2288.8</ele>
        <time>2017-02-19T10:15:30Z</time>
      </trkpt>
      <trkpt lat="45.6854" lon="6.79972">
        <ele>2291.47</ele>
        <time>2017-02-19T10:15:46Z</time>
      </trkpt>
      <trkpt lat="45.68544" lon="6.79964">
        <ele>2293.1</ele>
        <time>2017-02-19T10:16:01Z</time>
      </trkpt>
      <trkpt lat="45.68548" lon="6.79954">
        <ele>2295.12</ele>
        <time>2017-02-19T10:16:16Z</time>
      </trkpt>
      <trkpt lat="45.68553" lon="6.79944">
        <ele>2297.49</ele>
        <time>2017-02-19T10:16:31Z</time>
      </trkpt>
      <trkpt lat="45.68556" lon="6.79927">
        <ele>2299.54</ele>
        <time>2017-02-19T10:16:49Z</time>
      </trkpt>
      <trkpt lat="45.68552" lon="6.79917">
        <ele>2302.1</ele>
        <time>2017-02-19T10:17:05Z</time>
      </trkpt>
      <trkpt lat="45.68549" lon="6.79907">
        <ele>2304.23</ele>
        <time>2017-02-19T10:17:19Z</time>
      </trkpt>
      <trkpt lat="45.68551" lon="6.79887">
        <ele>2307.08</ele>
        <time>2017-02-19T10:17:40Z</time>
      </trkpt>
      <trkpt lat="45.68557" lon="6.79872">
        <ele>2310.11</ele>
        <time>2017-02-19T10:18:01Z</time>
      </trkpt>
      <trkpt lat="45.68562" lon="6.79861">
        <ele>2313.11</ele>
        <time>2017-02-19T10:18:20Z</time>
      </trkpt>
      <trkpt lat="45.68565" lon="6.79847">
        <ele>2316.15</ele>
        <time>2017-02-19T10:18:39Z</time>
      </trkpt>
      <trkpt lat="45.6857" lon="6.79835">
        <ele>2318.62</ele>
        <time>2017-02-19T10:18:56Z</time>
      </trkpt>
      <trkpt lat="45.68575" lon="6.79818">
        <ele>2321.74</ele>
        <time>2017-02-19T10:19:18Z</time>
      </trkpt>
      <trkpt lat="45.68575" lon="6.79805">
        <ele>2324.28</ele>
        <time>2017-02-19T10:19:36Z</time>
      </trkpt>
      <trkpt lat="45.68577" lon="6.79799">
        <ele>2327.37</ele>
        <time>2017-02-19T10:19:54Z</time>
      </trkpt>
      <trkpt lat="45.68589" lon="6.79804">
        <ele>2330.46</ele>
        <time>2017-02-19T10:20:15Z</time>
      </trkpt>
      <trkpt lat="45.68592" lon="6.79805">
        <ele>2332.17</ele>
        <time>2017-02-19T10:20:28Z</time>
      </trkpt>
      <trkpt lat="45.68591" lon="6.79794">
        <ele>2334.17</ele>
        <time>2017-02-19T10:20:44Z</time>
      </trkpt>
      <trkpt lat="45.68588" lon="6.7978">
        <ele>2337.22</ele>
        <time>2017-02-19T10:21:05Z</time>
      </trkpt>
      <trkpt lat="45.68592" lon="6.79771">
        <ele>2339.82</ele>
        <time>2017-02-19T10:21:23Z</time>
      </trkpt>
      <trkpt lat="45.68592" lon="6.79774">
        <ele>2340.73</ele>
        <time>2017-02-19T10:21:51Z</time>
      </trkpt>
      <trkpt lat="45.68591" lon="6.79776">
        <ele>2340.22</ele>
        <time>2017-02-19T10:22:15Z</time>
      </trkpt>
      <trkpt lat="45.6859" lon="6.79776">
        <ele>2340.16</ele>
        <time>2017-02-19T10:22:37Z</time>
      </trkpt>
      <trkpt lat="45.68591" lon="6.79773">
        <ele>2340.14</ele>
        <time>2017-02-19T10:23:02Z</time>
      </trkpt>
      <trkpt lat="45.68589" lon="6.79777">
        <ele>2339.77</ele>
        <time>2017-02-19T10:23:17Z</time>
      </trkpt>
      <trkpt lat="45.68592" lon="6.79777">
        <ele>2339.15</ele>
        <time>2017-02-19T10:23:49Z</time>
      </trkpt>
      <trkpt lat="45.68594" lon="6.79774">
        <ele>2339.06</ele>
        <time>2017-02-19T10:24:17Z</time>
      </trkpt>
      <trkpt lat="45.68592" lon="6.79774">
        <ele>2339.13</ele>
        <time>2017-02-19T10:24:55Z</time>
      </trkpt>
      <trkpt lat="45.68592" lon="6.79776">
        <ele>2338.98</ele>
        <time>2017-02-19T10:25:55Z</time>
      </trkpt>
      <trkpt lat="45.68592" lon="6.79775">
        <ele>2340.01</ele>
        <time>2017-02-19T10:26:14Z</time>
      </trkpt>
      <trkpt lat="45.68592" lon="6.79774">
        <ele>2340.15</ele>
        <time>2017-02-19T10:26:37Z</time>
      </trkpt>
      <trkpt lat="45.68591" lon="6.79772">
        <ele>2340.27</ele>
        <time>2017-02-19T10:27:17Z</time>
      </trkpt>
      <trkpt lat="45.68598" lon="6.79768">
        <ele>2341.59</ele>
        <time>2017-02-19T10:27:35Z</time>
      </trkpt>
      <trkpt lat="45.68603" lon="6.7976">
        <ele>2342</ele>
        <time>2017-02-19T10:27:46Z</time>
      </trkpt>
      <trkpt lat="45.68606" lon="6.7975">
        <ele>2341.87</ele>
        <time>2017-02-19T10:27:55Z</time>
      </trkpt>
      <trkpt lat="45.68612" lon="6.79741">
        <ele>2342.33</ele>
        <time>2017-02-19T10:28:09Z</time>
      </trkpt>
      <trkpt lat="45.68618" lon="6.79726">
        <ele>2344.4</ele>
        <time>2017-02-19T10:28:24Z</time>
      </trkpt>
      <trkpt lat="45.68622" lon="6.79716">
        <ele>2346.01</ele>
        <time>2017-02-19T10:28:35Z</time>
      </trkpt>
      <trkpt lat="45.68628" lon="6.79701">
        <ele>2347.52</ele>
        <time>2017-02-19T10:28:48Z</time>
      </trkpt>
      <trkpt lat="45.68632" lon="6.79688">
        <ele>2349.06</ele>
        <time>2017-02-19T10:29:01Z</time>
      </trkpt>
      <trkpt lat="45.68641" lon="6.79677">
        <ele>2351.57</ele>
        <time>2017-02-19T10:29:17Z</time>
      </trkpt>
      <trkpt lat="45.68655" lon="6.79668">
        <ele>2354.71</ele>
        <time>2017-02-19T10:29:39Z</time>
      </trkpt>
      <trkpt lat="45.68665" lon="6.79663">
        <ele>2357.34</ele>
        <time>2017-02-19T10:29:57Z</time>
      </trkpt>
      <trkpt lat="45.68674" lon="6.79662">
        <ele>2360.13</ele>
        <time>2017-02-19T10:30:14Z</time>
      </trkpt>
      <trkpt lat="45.68686" lon="6.79664">
        <ele>2363.26</ele>
        <time>2017-02-19T10:30:34Z</time>
      </trkpt>
      <trkpt lat="45.68696" lon="6.79667">
        <ele>2366.31</ele>
        <time>2017-02-19T10:30:52Z</time>
      </trkpt>
      <trkpt lat="45.68697" lon="6.79662">
        <ele>2368.13</ele>
        <time>2017-02-19T10:31:05Z</time>
      </trkpt>
      <trkpt lat="45.68694" lon="6.79646">
        <ele>2371.19</ele>
        <time>2017-02-19T10:31:25Z</time>
      </trkpt>
      <trkpt lat="45.68693" lon="6.7963">
        <ele>2374.25</ele>
        <time>2017-02-19T10:31:46Z</time>
      </trkpt>
      <trkpt lat="45.68693" lon="6.79619">
        <ele>2377.36</ele>
        <time>2017-02-19T10:32:03Z</time>
      </trkpt>
      <trkpt lat="45.68701" lon="6.79621">
        <ele>2380.06</ele>
        <time>2017-02-19T10:32:19Z</time>
      </trkpt>
      <trkpt lat="45.6871" lon="6.79625">
        <ele>2382.76</ele>
        <time>2017-02-19T10:32:36Z</time>
      </trkpt>
      <trkpt lat="45.68717" lon="6.79629">
        <ele>2384.73</ele>
        <time>2017-02-19T10:32:50Z</time>
      </trkpt>
      <trkpt lat="45.68728" lon="6.79634">
        <ele>2387.54</ele>
        <time>2017-02-19T10:33:09Z</time>
      </trkpt>
      <trkpt lat="45.68737" lon="6.79636">
        <ele>2390.03</ele>
        <time>2017-02-19T10:33:24Z</time>
      </trkpt>
      <trkpt lat="45.68746" lon="6.79637">
        <ele>2392.27</ele>
        <time>2017-02-19T10:33:39Z</time>
      </trkpt>
      <trkpt lat="45.68753" lon="6.79638">
        <ele>2393.45</ele>
        <time>2017-02-19T10:33:50Z</time>
      </trkpt>
      <trkpt lat="45.6876" lon="6.79638">
        <ele>2394.74</ele>
        <time>2017-02-19T10:34:01Z</time>
      </trkpt>
      <trkpt lat="45.68772" lon="6.79634">
        <ele>2397.74</ele>
        <time>2017-02-19T10:34:21Z</time>
      </trkpt>
      <trkpt lat="45.68783" lon="6.79627">
        <ele>2400.85</ele>
        <time>2017-02-19T10:34:41Z</time>
      </trkpt>
      <trkpt lat="45.68792" lon="6.79621">
        <ele>2402.26</ele>
        <time>2017-02-19T10:34:54Z</time>
      </trkpt>
      <trkpt lat="45.68798" lon="6.79615">
        <ele>2403.09</ele>
        <time>2017-02-19T10:35:04Z</time>
      </trkpt>
      <trkpt lat="45.68807" lon="6.79606">
        <ele>2404.6</ele>
        <time>2017-02-19T10:35:19Z</time>
      </trkpt>
      <trkpt lat="45.68815" lon="6.79599">
        <ele>2406.19</ele>
        <time>2017-02-19T10:35:33Z</time>
      </trkpt>
      <trkpt lat="45.68821" lon="6.79594">
        <ele>2407.94</ele>
        <time>2017-02-19T10:35:46Z</time>
      </trkpt>
      <trkpt lat="45.68831" lon="6.79588">
        <ele>2411.08</ele>
        <time>2017-02-19T10:36:05Z</time>
      </trkpt>
      <trkpt lat="45.68842" lon="6.79582">
        <ele>2414.16</ele>
        <time>2017-02-19T10:36:24Z</time>
      </trkpt>
      <trkpt lat="45.68851" lon="6.79579">
        <ele>2416.87</ele>
        <time>2017-02-19T10:36:41Z</time>
      </trkpt>
      <trkpt lat="45.68862" lon="6.79577">
        <ele>2420.1</ele>
        <time>2017-02-19T10:37:03Z</time>
      </trkpt>
      <trkpt lat="45.68869" lon="6.79575">
        <ele>2422.05</ele>
        <time>2017-02-19T10:37:17Z</time>
      </trkpt>
      <trkpt lat="45.68875" lon="6.7957">
        <ele>2424.67</ele>
        <time>2017-02-19T10:37:31Z</time>
      </trkpt>
      <trkpt lat="45.68885" lon="6.79567">
        <ele>2427.39</ele>
        <time>2017-02-19T10:37:49Z</time>
      </trkpt>
      <trkpt lat="45.68896" lon="6.79561">
        <ele>2429.92</ele>
        <time>2017-02-19T10:38:05Z</time>
      </trkpt>
      <trkpt lat="45.68905" lon="6.79555">
        <ele>2431.03</ele>
        <time>2017-02-19T10:38:19Z</time>
      </trkpt>
      <trkpt lat="45.68915" lon="6.79551">
        <ele>2432</ele>
        <time>2017-02-19T10:38:33Z</time>
      </trkpt>
      <trkpt lat="45.68927" lon="6.79553">
        <ele>2434.25</ele>
        <time>2017-02-19T10:38:49Z</time>
      </trkpt>
      <trkpt lat="45.68935" lon="6.79556">
        <ele>2436.01</ele>
        <time>2017-02-19T10:39:01Z</time>
      </trkpt>
      <trkpt lat="45.68942" lon="6.79555">
        <ele>2436.06</ele>
        <time>2017-02-19T10:39:10Z</time>
      </trkpt>
      <trkpt lat="45.68951" lon="6.79553">
        <ele>2436.16</ele>
        <time>2017-02-19T10:39:19Z</time>
      </trkpt>
      <trkpt lat="45.68963" lon="6.79546">
        <ele>2436.09</ele>
        <time>2017-02-19T10:39:31Z</time>
      </trkpt>
      <trkpt lat="45.68973" lon="6.79539">
        <ele>2436.5</ele>
        <time>2017-02-19T10:39:43Z</time>
      </trkpt>
      <trkpt lat="45.68982" lon="6.79535">
        <ele>2437.4</ele>
        <time>2017-02-19T10:39:54Z</time>
      </trkpt>
      <trkpt lat="45.68991" lon="6.7953">
        <ele>2438.25</ele>
        <time>2017-02-19T10:40:04Z</time>
      </trkpt>
      <trkpt lat="45.69005" lon="6.7953">
        <ele>2438.83</ele>
        <time>2017-02-19T10:40:18Z</time>
      </trkpt>
      <trkpt lat="45.69019" lon="6.7953">
        <ele>2438.33</ele>
        <time>2017-02-19T10:40:31Z</time>
      </trkpt>
      <trkpt lat="45.69034" lon="6.7953">
        <ele>2438.62</ele>
        <time>2017-02-19T10:40:46Z</time>
      </trkpt>
      <trkpt lat="45.69046" lon="6.79527">
        <ele>2439.33</ele>
        <time>2017-02-19T10:40:59Z</time>
      </trkpt>
      <trkpt lat="45.69058" lon="6.7953">
        <ele>2439.73</ele>
        <time>2017-02-19T10:41:12Z</time>
      </trkpt>
      <trkpt lat="45.6907" lon="6.79531">
        <ele>2440.09</ele>
        <time>2017-02-19T10:41:25Z</time>
      </trkpt>
      <trkpt lat="45.69071" lon="6.79531">
        <ele>2439.92</ele>
        <time>2017-02-19T10:41:38Z</time>
      </trkpt>
      <trkpt lat="45.6907" lon="6.7953">
        <ele>2439.92</ele>
        <time>2017-02-19T10:42:10Z</time>
      </trkpt>
      <trkpt lat="45.69069" lon="6.7953">
        <ele>2439.41</ele>
        <time>2017-02-19T10:42:28Z</time>
      </trkpt>
      <trkpt lat="45.6907" lon="6.79529">
        <ele>2439.02</ele>
        <time>2017-02-19T10:42:43Z</time>
      </trkpt>
      <trkpt lat="45.69074" lon="6.79528">
        <ele>2439.26</ele>
        <time>2017-02-19T10:42:46Z</time>
      </trkpt>
      <trkpt lat="45.69082" lon="6.79525">
        <ele>2438.94</ele>
        <time>2017-02-19T10:42:53Z</time>
      </trkpt>
      <trkpt lat="45.69096" lon="6.79516">
        <ele>2437.47</ele>
        <time>2017-02-19T10:43:05Z</time>
      </trkpt>
      <trkpt lat="45.69104" lon="6.79507">
        <ele>2437.63</ele>
        <time>2017-02-19T10:43:17Z</time>
      </trkpt>
      <trkpt lat="45.69109" lon="6.795">
        <ele>2438.72</ele>
        <time>2017-02-19T10:43:25Z</time>
      </trkpt>
      <trkpt lat="45.69117" lon="6.7949">
        <ele>2440.4</ele>
        <time>2017-02-19T10:43:37Z</time>
      </trkpt>
      <trkpt lat="45.69124" lon="6.7948">
        <ele>2442.36</ele>
        <time>2017-02-19T10:43:51Z</time>
      </trkpt>
      <trkpt lat="45.69132" lon="6.79468">
        <ele>2444.51</ele>
        <time>2017-02-19T10:44:07Z</time>
      </trkpt>
      <trkpt lat="45.69134" lon="6.79464">
        <ele>2444.93</ele>
        <time>2017-02-19T10:44:11Z</time>
      </trkpt>
      <trkpt lat="45.69135" lon="6.79462">
        <ele>2445.07</ele>
        <time>2017-02-19T10:44:13Z</time>
      </trkpt>
      <trkpt lat="45.69141" lon="6.79447">
        <ele>2445.2</ele>
        <time>2017-02-19T10:44:24Z</time>
      </trkpt>
      <trkpt lat="45.69146" lon="6.79434">
        <ele>2444.83</ele>
        <time>2017-02-19T10:44:36Z</time>
      </trkpt>
      <trkpt lat="45.69149" lon="6.79428">
        <ele>2445.07</ele>
        <time>2017-02-19T10:44:49Z</time>
      </trkpt>
      <trkpt lat="45.69154" lon="6.79414">
        <ele>2446.55</ele>
        <time>2017-02-19T10:45:04Z</time>
      </trkpt>
      <trkpt lat="45.69157" lon="6.79402">
        <ele>2449.23</ele>
        <time>2017-02-19T10:45:18Z</time>
      </trkpt>
      <trkpt lat="45.69161" lon="6.79389">
        <ele>2452.36</ele>
        <time>2017-02-19T10:45:35Z</time>
      </trkpt>
      <trkpt lat="45.69163" lon="6.79378">
        <ele>2455.45</ele>
        <time>2017-02-19T10:45:51Z</time>
      </trkpt>
      <trkpt lat="45.69164" lon="6.79366">
        <ele>2458.51</ele>
        <time>2017-02-19T10:46:07Z</time>
      </trkpt>
      <trkpt lat="45.69163" lon="6.7935">
        <ele>2461.58</ele>
        <time>2017-02-19T10:46:27Z</time>
      </trkpt>
      <trkpt lat="45.69167" lon="6.79333">
        <ele>2464.59</ele>
        <time>2017-02-19T10:46:48Z</time>
      </trkpt>
      <trkpt lat="45.69173" lon="6.79313">
        <ele>2467.18</ele>
        <time>2017-02-19T10:47:08Z</time>
      </trkpt>
      <trkpt lat="45.69178" lon="6.79296">
        <ele>2467.51</ele>
        <time>2017-02-19T10:47:22Z</time>
      </trkpt>
      <trkpt lat="45.69183" lon="6.79277">
        <ele>2467.11</ele>
        <time>2017-02-19T10:47:37Z</time>
      </trkpt>
      <trkpt lat="45.69188" lon="6.79262">
        <ele>2467.31</ele>
        <time>2017-02-19T10:47:49Z</time>
      </trkpt>
      <trkpt lat="45.69192" lon="6.79248">
        <ele>2467.66</ele>
        <time>2017-02-19T10:48:01Z</time>
      </trkpt>
      <trkpt lat="45.69197" lon="6.79232">
        <ele>2468.02</ele>
        <time>2017-02-19T10:48:14Z</time>
      </trkpt>
      <trkpt lat="45.692" lon="6.79222">
        <ele>2468.03</ele>
        <time>2017-02-19T10:48:24Z</time>
      </trkpt>
      <trkpt lat="45.69201" lon="6.79221">
        <ele>2468.04</ele>
        <time>2017-02-19T10:48:25Z</time>
      </trkpt>
      <trkpt lat="45.69203" lon="6.79215">
        <ele>2468.07</ele>
        <time>2017-02-19T10:48:30Z</time>
      </trkpt>
      <trkpt lat="45.69211" lon="6.79207">
        <ele>2468.28</ele>
        <time>2017-02-19T10:48:40Z</time>
      </trkpt>
      <trkpt lat="45.69219" lon="6.792">
        <ele>2469.36</ele>
        <time>2017-02-19T10:48:53Z</time>
      </trkpt>
      <trkpt lat="45.69222" lon="6.79185">
        <ele>2472.4</ele>
        <time>2017-02-19T10:49:10Z</time>
      </trkpt>
      <trkpt lat="45.69225" lon="6.79172">
        <ele>2475.53</ele>
        <time>2017-02-19T10:49:26Z</time>
      </trkpt>
      <trkpt lat="45.69237" lon="6.79162">
        <ele>2478.27</ele>
        <time>2017-02-19T10:49:45Z</time>
      </trkpt>
      <trkpt lat="45.69247" lon="6.79154">
        <ele>2478.85</ele>
        <time>2017-02-19T10:49:57Z</time>
      </trkpt>
      <trkpt lat="45.69254" lon="6.79151">
        <ele>2478.91</ele>
        <time>2017-02-19T10:50:09Z</time>
      </trkpt>
      <trkpt lat="45.69263" lon="6.79146">
        <ele>2481.23</ele>
        <time>2017-02-19T10:50:25Z</time>
      </trkpt>
      <trkpt lat="45.69273" lon="6.7914">
        <ele>2483.69</ele>
        <time>2017-02-19T10:50:46Z</time>
      </trkpt>
      <trkpt lat="45.69282" lon="6.79131">
        <ele>2486.18</ele>
        <time>2017-02-19T10:51:04Z</time>
      </trkpt>
      <trkpt lat="45.69288" lon="6.79131">
        <ele>2488.17</ele>
        <time>2017-02-19T10:51:17Z</time>
      </trkpt>
      <trkpt lat="45.69293" lon="6.79132">
        <ele>2489.99</ele>
        <time>2017-02-19T10:51:31Z</time>
      </trkpt>
      <trkpt lat="45.69298" lon="6.79129">
        <ele>2491.08</ele>
        <time>2017-02-19T10:51:50Z</time>
      </trkpt>
      <trkpt lat="45.69305" lon="6.79124">
        <ele>2492.69</ele>
        <time>2017-02-19T10:52:03Z</time>
      </trkpt>
      <trkpt lat="45.69307" lon="6.7912">
        <ele>2494.43</ele>
        <time>2017-02-19T10:52:15Z</time>
      </trkpt>
      <trkpt lat="45.69305" lon="6.79116">
        <ele>2495.65</ele>
        <time>2017-02-19T10:52:28Z</time>
      </trkpt>
      <trkpt lat="45.69301" lon="6.79108">
        <ele>2498.32</ele>
        <time>2017-02-19T10:52:48Z</time>
      </trkpt>
      <trkpt lat="45.69308" lon="6.79111">
        <ele>2500.63</ele>
        <time>2017-02-19T10:53:05Z</time>
      </trkpt>
      <trkpt lat="45.69318" lon="6.7911">
        <ele>2502.93</ele>
        <time>2017-02-19T10:53:22Z</time>
      </trkpt>
      <trkpt lat="45.69324" lon="6.79111">
        <ele>2504.74</ele>
        <time>2017-02-19T10:53:42Z</time>
      </trkpt>
      <trkpt lat="45.69333" lon="6.79112">
        <ele>2506.27</ele>
        <time>2017-02-19T10:53:56Z</time>
      </trkpt>
      <trkpt lat="45.69343" lon="6.79115">
        <ele>2508.16</ele>
        <time>2017-02-19T10:54:13Z</time>
      </trkpt>
      <trkpt lat="45.6935" lon="6.79115">
        <ele>2509.74</ele>
        <time>2017-02-19T10:54:26Z</time>
      </trkpt>
      <trkpt lat="45.69357" lon="6.7911">
        <ele>2512.03</ele>
        <time>2017-02-19T10:54:39Z</time>
      </trkpt>
      <trkpt lat="45.69361" lon="6.79107">
        <ele>2512.55</ele>
        <time>2017-02-19T10:54:45Z</time>
      </trkpt>
      <trkpt lat="45.69369" lon="6.7909">
        <ele>2511.12</ele>
        <time>2017-02-19T10:54:55Z</time>
      </trkpt>
      <trkpt lat="45.69371" lon="6.7908">
        <ele>2510.91</ele>
        <time>2017-02-19T10:55:05Z</time>
      </trkpt>
      <trkpt lat="45.69373" lon="6.79069">
        <ele>2512.47</ele>
        <time>2017-02-19T10:55:20Z</time>
      </trkpt>
      <trkpt lat="45.69379" lon="6.79063">
        <ele>2514.93</ele>
        <time>2017-02-19T10:55:34Z</time>
      </trkpt>
      <trkpt lat="45.69388" lon="6.79066">
        <ele>2516.1</ele>
        <time>2017-02-19T10:55:54Z</time>
      </trkpt>
      <trkpt lat="45.69394" lon="6.79067">
        <ele>2516.69</ele>
        <time>2017-02-19T10:56:11Z</time>
      </trkpt>
      <trkpt lat="45.69409" lon="6.7907">
        <ele>2518</ele>
        <time>2017-02-19T10:56:32Z</time>
      </trkpt>
      <trkpt lat="45.69425" lon="6.79074">
        <ele>2518.82</ele>
        <time>2017-02-19T10:56:54Z</time>
      </trkpt>
      <trkpt lat="45.69443" lon="6.79074">
        <ele>2520.77</ele>
        <time>2017-02-19T10:57:15Z</time>
      </trkpt>
      <trkpt lat="45.69452" lon="6.79072">
        <ele>2522.25</ele>
        <time>2017-02-19T10:57:29Z</time>
      </trkpt>
      <trkpt lat="45.69458" lon="6.7907">
        <ele>2524.57</ele>
        <time>2017-02-19T10:57:43Z</time>
      </trkpt>
      <trkpt lat="45.69467" lon="6.79069">
        <ele>2527.56</ele>
        <time>2017-02-19T10:57:58Z</time>
      </trkpt>
      <trkpt lat="45.69475" lon="6.79065">
        <ele>2530.12</ele>
        <time>2017-02-19T10:58:18Z</time>
      </trkpt>
      <trkpt lat="45.69475" lon="6.79067">
        <ele>2530.86</ele>
        <time>2017-02-19T10:58:34Z</time>
      </trkpt>
      <trkpt lat="45.69488" lon="6.79063">
        <ele>2531.37</ele>
        <time>2017-02-19T10:58:48Z</time>
      </trkpt>
      <trkpt lat="45.69501" lon="6.79056">
        <ele>2530.66</ele>
        <time>2017-02-19T10:59:04Z</time>
      </trkpt>
      <trkpt lat="45.69512" lon="6.79051">
        <ele>2531.61</ele>
        <time>2017-02-19T10:59:19Z</time>
      </trkpt>
      <trkpt lat="45.69522" lon="6.79045">
        <ele>2534.68</ele>
        <time>2017-02-19T10:59:36Z</time>
      </trkpt>
      <trkpt lat="45.69534" lon="6.79042">
        <ele>2536.51</ele>
        <time>2017-02-19T10:59:52Z</time>
      </trkpt>
      <trkpt lat="45.69549" lon="6.79036">
        <ele>2538.53</ele>
        <time>2017-02-19T11:00:12Z</time>
      </trkpt>
      <trkpt lat="45.6955" lon="6.79035">
        <ele>2538.58</ele>
        <time>2017-02-19T11:00:13Z</time>
      </trkpt>
      <trkpt lat="45.69559" lon="6.79027">
        <ele>2538.64</ele>
        <time>2017-02-19T11:00:24Z</time>
      </trkpt>
      <trkpt lat="45.69573" lon="6.7902">
        <ele>2540.12</ele>
        <time>2017-02-19T11:00:46Z</time>
      </trkpt>
      <trkpt lat="45.69587" lon="6.79021">
        <ele>2540.7</ele>
        <time>2017-02-19T11:01:02Z</time>
      </trkpt>
      <trkpt lat="45.69599" lon="6.79014">
        <ele>2542.55</ele>
        <time>2017-02-19T11:01:19Z</time>
      </trkpt>
      <trkpt lat="45.69608" lon="6.79004">
        <ele>2544.19</ele>
        <time>2017-02-19T11:01:38Z</time>
      </trkpt>
      <trkpt lat="45.69608" lon="6.79003">
        <ele>2544.79</ele>
        <time>2017-02-19T11:02:01Z</time>
      </trkpt>
      <trkpt lat="45.6962" lon="6.78993">
        <ele>2545.74</ele>
        <time>2017-02-19T11:02:18Z</time>
      </trkpt>
      <trkpt lat="45.6963" lon="6.78986">
        <ele>2547.02</ele>
        <time>2017-02-19T11:02:33Z</time>
      </trkpt>
      <trkpt lat="45.69647" lon="6.7898">
        <ele>2548.51</ele>
        <time>2017-02-19T11:02:54Z</time>
      </trkpt>
      <trkpt lat="45.6966" lon="6.78972">
        <ele>2549.83</ele>
        <time>2017-02-19T11:03:12Z</time>
      </trkpt>
      <trkpt lat="45.69674" lon="6.78965">
        <ele>2550.89</ele>
        <time>2017-02-19T11:03:31Z</time>
      </trkpt>
      <trkpt lat="45.69687" lon="6.78961">
        <ele>2552.84</ele>
        <time>2017-02-19T11:03:48Z</time>
      </trkpt>
      <trkpt lat="45.69698" lon="6.78957">
        <ele>2553.77</ele>
        <time>2017-02-19T11:04:04Z</time>
      </trkpt>
      <trkpt lat="45.69709" lon="6.78952">
        <ele>2554.47</ele>
        <time>2017-02-19T11:04:19Z</time>
      </trkpt>
      <trkpt lat="45.69725" lon="6.78951">
        <ele>2555.28</ele>
        <time>2017-02-19T11:04:38Z</time>
      </trkpt>
      <trkpt lat="45.69734" lon="6.78949">
        <ele>2557.62</ele>
        <time>2017-02-19T11:04:55Z</time>
      </trkpt>
      <trkpt lat="45.69743" lon="6.78949">
        <ele>2559.49</ele>
        <time>2017-02-19T11:05:09Z</time>
      </trkpt>
      <trkpt lat="45.69749" lon="6.78948">
        <ele>2561.23</ele>
        <time>2017-02-19T11:05:22Z</time>
      </trkpt>
      <trkpt lat="45.69761" lon="6.78948">
        <ele>2563.85</ele>
        <time>2017-02-19T11:05:43Z</time>
      </trkpt>
      <trkpt lat="45.6977" lon="6.78949">
        <ele>2565.71</ele>
        <time>2017-02-19T11:05:58Z</time>
      </trkpt>
      <trkpt lat="45.69778" lon="6.78947">
        <ele>2568.26</ele>
        <time>2017-02-19T11:06:17Z</time>
      </trkpt>
      <trkpt lat="45.69786" lon="6.78946">
        <ele>2570.19</ele>
        <time>2017-02-19T11:06:30Z</time>
      </trkpt>
      <trkpt lat="45.69789" lon="6.78948">
        <ele>2571.78</ele>
        <time>2017-02-19T11:06:45Z</time>
      </trkpt>
      <trkpt lat="45.69786" lon="6.78941">
        <ele>2572.3</ele>
        <time>2017-02-19T11:06:59Z</time>
      </trkpt>
      <trkpt lat="45.69781" lon="6.7893">
        <ele>2574.08</ele>
        <time>2017-02-19T11:07:13Z</time>
      </trkpt>
      <trkpt lat="45.69775" lon="6.78917">
        <ele>2576.73</ele>
        <time>2017-02-19T11:07:31Z</time>
      </trkpt>
      <trkpt lat="45.69777" lon="6.78913">
        <ele>2579.21</ele>
        <time>2017-02-19T11:07:47Z</time>
      </trkpt>
      <trkpt lat="45.69785" lon="6.78911">
        <ele>2580.77</ele>
        <time>2017-02-19T11:08:02Z</time>
      </trkpt>
      <trkpt lat="45.69801" lon="6.78909">
        <ele>2583.67</ele>
        <time>2017-02-19T11:08:23Z</time>
      </trkpt>
      <trkpt lat="45.69805" lon="6.78908">
        <ele>2585.7</ele>
        <time>2017-02-19T11:08:39Z</time>
      </trkpt>
      <trkpt lat="45.69813" lon="6.78905">
        <ele>2587.82</ele>
        <time>2017-02-19T11:08:55Z</time>
      </trkpt>
      <trkpt lat="45.69814" lon="6.78905">
        <ele>2589.78</ele>
        <time>2017-02-19T11:09:11Z</time>
      </trkpt>
      <trkpt lat="45.69815" lon="6.78905">
        <ele>2589.75</ele>
        <time>2017-02-19T11:09:31Z</time>
      </trkpt>
      <trkpt lat="45.69815" lon="6.78902">
        <ele>2589.83</ele>
        <time>2017-02-19T11:09:55Z</time>
      </trkpt>
      <trkpt lat="45.6981" lon="6.78896">
        <ele>2590.71</ele>
        <time>2017-02-19T11:10:06Z</time>
      </trkpt>
      <trkpt lat="45.69803" lon="6.78887">
        <ele>2592.82</ele>
        <time>2017-02-19T11:10:21Z</time>
      </trkpt>
      <trkpt lat="45.69807" lon="6.78881">
        <ele>2594.71</ele>
        <time>2017-02-19T11:10:37Z</time>
      </trkpt>
      <trkpt lat="45.69815" lon="6.78883">
        <ele>2595.56</ele>
        <time>2017-02-19T11:10:51Z</time>
      </trkpt>
      <trkpt lat="45.69818" lon="6.78884">
        <ele>2596.86</ele>
        <time>2017-02-19T11:11:06Z</time>
      </trkpt>
      <trkpt lat="45.69828" lon="6.78879">
        <ele>2598.96</ele>
        <time>2017-02-19T11:11:23Z</time>
      </trkpt>
      <trkpt lat="45.69837" lon="6.78878">
        <ele>2601.88</ele>
        <time>2017-02-19T11:11:40Z</time>
      </trkpt>
      <trkpt lat="45.69846" lon="6.78877">
        <ele>2604.92</ele>
        <time>2017-02-19T11:11:58Z</time>
      </trkpt>
      <trkpt lat="45.69852" lon="6.78877">
        <ele>2607.43</ele>
        <time>2017-02-19T11:12:14Z</time>
      </trkpt>
      <trkpt lat="45.69859" lon="6.78877">
        <ele>2608.43</ele>
        <time>2017-02-19T11:12:31Z</time>
      </trkpt>
      <trkpt lat="45.69867" lon="6.78879">
        <ele>2609.15</ele>
        <time>2017-02-19T11:12:46Z</time>
      </trkpt>
      <trkpt lat="45.69877" lon="6.7888">
        <ele>2611.09</ele>
        <time>2017-02-19T11:13:04Z</time>
      </trkpt>
      <trkpt lat="45.69889" lon="6.78883">
        <ele>2613.6</ele>
        <time>2017-02-19T11:13:24Z</time>
      </trkpt>
      <trkpt lat="45.69901" lon="6.7889">
        <ele>2615.99</ele>
        <time>2017-02-19T11:13:42Z</time>
      </trkpt>
      <trkpt lat="45.69915" lon="6.78891">
        <ele>2618.61</ele>
        <time>2017-02-19T11:14:03Z</time>
      </trkpt>
      <trkpt lat="45.69913" lon="6.78888">
        <ele>2619.59</ele>
        <time>2017-02-19T11:14:16Z</time>
      </trkpt>
      <trkpt lat="45.69921" lon="6.78885">
        <ele>2621.18</ele>
        <time>2017-02-19T11:14:30Z</time>
      </trkpt>
      <trkpt lat="45.69926" lon="6.78882">
        <ele>2623.47</ele>
        <time>2017-02-19T11:14:42Z</time>
      </trkpt>
      <trkpt lat="45.69936" lon="6.78877">
        <ele>2626.62</ele>
        <time>2017-02-19T11:14:59Z</time>
      </trkpt>
      <trkpt lat="45.69935" lon="6.78879">
        <ele>2627.47</ele>
        <time>2017-02-19T11:15:20Z</time>
      </trkpt>
      <trkpt lat="45.69932" lon="6.78881">
        <ele>2627.49</ele>
        <time>2017-02-19T11:15:42Z</time>
      </trkpt>
      <trkpt lat="45.69932" lon="6.78883">
        <ele>2627.7</ele>
        <time>2017-02-19T11:15:48Z</time>
      </trkpt>
      <trkpt lat="45.69936" lon="6.78879">
        <ele>2627.74</ele>
        <time>2017-02-19T11:16:06Z</time>
      </trkpt>
      <trkpt lat="45.69946" lon="6.78873">
        <ele>2628.76</ele>
        <time>2017-02-19T11:16:22Z</time>
      </trkpt>
      <trkpt lat="45.69959" lon="6.78867">
        <ele>2629.67</ele>
        <time>2017-02-19T11:16:38Z</time>
      </trkpt>
      <trkpt lat="45.6996" lon="6.78866">
        <ele>2629.69</ele>
        <time>2017-02-19T11:16:40Z</time>
      </trkpt>
      <trkpt lat="45.69972" lon="6.7886">
        <ele>2630.74</ele>
        <time>2017-02-19T11:16:55Z</time>
      </trkpt>
      <trkpt lat="45.69981" lon="6.78856">
        <ele>2633.73</ele>
        <time>2017-02-19T11:17:12Z</time>
      </trkpt>
      <trkpt lat="45.6999" lon="6.78852">
        <ele>2636.23</ele>
        <time>2017-02-19T11:17:27Z</time>
      </trkpt>
      <trkpt lat="45.69999" lon="6.78847">
        <ele>2639.33</ele>
        <time>2017-02-19T11:17:44Z</time>
      </trkpt>
      <trkpt lat="45.70006" lon="6.78842">
        <ele>2641.92</ele>
        <time>2017-02-19T11:18:00Z</time>
      </trkpt>
      <trkpt lat="45.70013" lon="6.78838">
        <ele>2644.71</ele>
        <time>2017-02-19T11:18:16Z</time>
      </trkpt>
      <trkpt lat="45.70019" lon="6.78831">
        <ele>2646.79</ele>
        <time>2017-02-19T11:18:32Z</time>
      </trkpt>
      <trkpt lat="45.70029" lon="6.78827">
        <ele>2649.49</ele>
        <time>2017-02-19T11:18:49Z</time>
      </trkpt>
      <trkpt lat="45.70037" lon="6.78823">
        <ele>2651.56</ele>
        <time>2017-02-19T11:19:04Z</time>
      </trkpt>
      <trkpt lat="45.70045" lon="6.78813">
        <ele>2654.1</ele>
        <time>2017-02-19T11:19:25Z</time>
      </trkpt>
      <trkpt lat="45.7005" lon="6.78805">
        <ele>2655.89</ele>
        <time>2017-02-19T11:19:41Z</time>
      </trkpt>
      <trkpt lat="45.70058" lon="6.78796">
        <ele>2657.95</ele>
        <time>2017-02-19T11:19:58Z</time>
      </trkpt>
      <trkpt lat="45.70066" lon="6.78788">
        <ele>2659.47</ele>
        <time>2017-02-19T11:20:14Z</time>
      </trkpt>
      <trkpt lat="45.70072" lon="6.78775">
        <ele>2661.26</ele>
        <time>2017-02-19T11:20:34Z</time>
      </trkpt>
      <trkpt lat="45.70078" lon="6.78763">
        <ele>2662.24</ele>
        <time>2017-02-19T11:20:49Z</time>
      </trkpt>
      <trkpt lat="45.70085" lon="6.78753">
        <ele>2664.16</ele>
        <time>2017-02-19T11:21:05Z</time>
      </trkpt>
      <trkpt lat="45.70094" lon="6.78747">
        <ele>2667.15</ele>
        <time>2017-02-19T11:21:23Z</time>
      </trkpt>
      <trkpt lat="45.70101" lon="6.78742">
        <ele>2669.23</ele>
        <time>2017-02-19T11:21:37Z</time>
      </trkpt>
      <trkpt lat="45.70108" lon="6.78737">
        <ele>2671.28</ele>
        <time>2017-02-19T11:21:53Z</time>
      </trkpt>
      <trkpt lat="45.70119" lon="6.78736">
        <ele>2673.92</ele>
        <time>2017-02-19T11:22:10Z</time>
      </trkpt>
      <trkpt lat="45.70127" lon="6.78739">
        <ele>2676.23</ele>
        <time>2017-02-19T11:22:24Z</time>
      </trkpt>
      <trkpt lat="45.70128" lon="6.78739">
        <ele>2677.71</ele>
        <time>2017-02-19T11:22:38Z</time>
      </trkpt>
      <trkpt lat="45.70128" lon="6.78731">
        <ele>2678.81</ele>
        <time>2017-02-19T11:22:54Z</time>
      </trkpt>
      <trkpt lat="45.70127" lon="6.78719">
        <ele>2681.49</ele>
        <time>2017-02-19T11:23:11Z</time>
      </trkpt>
      <trkpt lat="45.70129" lon="6.78711">
        <ele>2684.29</ele>
        <time>2017-02-19T11:23:28Z</time>
      </trkpt>
      <trkpt lat="45.70133" lon="6.78707">
        <ele>2685.87</ele>
        <time>2017-02-19T11:23:46Z</time>
      </trkpt>
      <trkpt lat="45.70141" lon="6.787">
        <ele>2688.71</ele>
        <time>2017-02-19T11:24:04Z</time>
      </trkpt>
      <trkpt lat="45.70145" lon="6.78692">
        <ele>2691.55</ele>
        <time>2017-02-19T11:24:21Z</time>
      </trkpt>
      <trkpt lat="45.70153" lon="6.78688">
        <ele>2694.35</ele>
        <time>2017-02-19T11:24:36Z</time>
      </trkpt>
      <trkpt lat="45.7016" lon="6.78688">
        <ele>2696.56</ele>
        <time>2017-02-19T11:24:50Z</time>
      </trkpt>
      <trkpt lat="45.70169" lon="6.78693">
        <ele>2698.45</ele>
        <time>2017-02-19T11:25:03Z</time>
      </trkpt>
      <trkpt lat="45.70175" lon="6.78701">
        <ele>2699.99</ele>
        <time>2017-02-19T11:25:16Z</time>
      </trkpt>
      <trkpt lat="45.70184" lon="6.78709">
        <ele>2701.31</ele>
        <time>2017-02-19T11:25:29Z</time>
      </trkpt>
      <trkpt lat="45.7019" lon="6.78716">
        <ele>2702.87</ele>
        <time>2017-02-19T11:25:42Z</time>
      </trkpt>
      <trkpt lat="45.70195" lon="6.78721">
        <ele>2704.51</ele>
        <time>2017-02-19T11:25:55Z</time>
      </trkpt>
      <trkpt lat="45.70194" lon="6.78723">
        <ele>2704.89</ele>
        <time>2017-02-19T11:26:11Z</time>
      </trkpt>
      <trkpt lat="45.70193" lon="6.78723">
        <ele>2703.8</ele>
        <time>2017-02-19T11:26:35Z</time>
      </trkpt>
      <trkpt lat="45.70193" lon="6.78722">
        <ele>2703.44</ele>
        <time>2017-02-19T11:27:20Z</time>
      </trkpt>
      <trkpt lat="45.70193" lon="6.78722">
        <ele>2703.55</ele>
        <time>2017-02-19T11:27:57Z</time>
      </trkpt>
      <trkpt lat="45.70192" lon="6.78722">
        <ele>2703.66</ele>
        <time>2017-02-19T11:28:23Z</time>
      </trkpt>
      <trkpt lat="45.70191" lon="6.78721">
        <ele>2704.23</ele>
        <time>2017-02-19T11:29:31Z</time>
      </trkpt>
      <trkpt lat="45.70191" lon="6.78722">
        <ele>2704.21</ele>
        <time>2017-02-19T11:30:04Z</time>
      </trkpt>
      <trkpt lat="45.70193" lon="6.78724">
        <ele>2704.27</ele>
        <time>2017-02-19T11:30:49Z</time>
      </trkpt>
      <trkpt lat="45.70194" lon="6.78723">
        <ele>2704.73</ele>
        <time>2017-02-19T11:31:28Z</time>
      </trkpt>
      <trkpt lat="45.70193" lon="6.78721">
        <ele>2705.9</ele>
        <time>2017-02-19T11:31:46Z</time>
      </trkpt>
      <trkpt lat="45.70191" lon="6.7872">
        <ele>2705.82</ele>
        <time>2017-02-19T11:32:10Z</time>
      </trkpt>
      <trkpt lat="45.7019" lon="6.7872">
        <ele>2706.14</ele>
        <time>2017-02-19T11:32:42Z</time>
      </trkpt>
      <trkpt lat="45.70197" lon="6.78726">
        <ele>2706.2</ele>
        <time>2017-02-19T11:33:00Z</time>
      </trkpt>
      <trkpt lat="45.70206" lon="6.78732">
        <ele>2706.61</ele>
        <time>2017-02-19T11:33:11Z</time>
      </trkpt>
      <trkpt lat="45.70207" lon="6.78733">
        <ele>2706.96</ele>
        <time>2017-02-19T11:33:25Z</time>
      </trkpt>
      <trkpt lat="45.70207" lon="6.78734">
        <ele>2706.82</ele>
        <time>2017-02-19T11:33:42Z</time>
      </trkpt>
      <trkpt lat="45.70208" lon="6.78735">
        <ele>2706.82</ele>
        <time>2017-02-19T11:33:43Z</time>
      </trkpt>
      <trkpt lat="45.70212" lon="6.78739">
        <ele>2706.8</ele>
        <time>2017-02-19T11:33:48Z</time>
      </trkpt>
      <trkpt lat="45.70226" lon="6.7875">
        <ele>2706.35</ele>
        <time>2017-02-19T11:34:01Z</time>
      </trkpt>
      <trkpt lat="45.70235" lon="6.78756">
        <ele>2707.02</ele>
        <time>2017-02-19T11:34:12Z</time>
      </trkpt>
      <trkpt lat="45.70246" lon="6.78761">
        <ele>2708.76</ele>
        <time>2017-02-19T11:34:26Z</time>
      </trkpt>
      <trkpt lat="45.70256" lon="6.78765">
        <ele>2710.39</ele>
        <time>2017-02-19T11:34:39Z</time>
      </trkpt>
      <trkpt lat="45.70265" lon="6.7877">
        <ele>2712.32</ele>
        <time>2017-02-19T11:34:54Z</time>
      </trkpt>
      <trkpt lat="45.70273" lon="6.78773">
        <ele>2714.13</ele>
        <time>2017-02-19T11:35:06Z</time>
      </trkpt>
      <trkpt lat="45.70281" lon="6.78775">
        <ele>2715.8</ele>
        <time>2017-02-19T11:35:19Z</time>
      </trkpt>
      <trkpt lat="45.70286" lon="6.78778">
        <ele>2717.65</ele>
        <time>2017-02-19T11:35:32Z</time>
      </trkpt>
      <trkpt lat="45.70293" lon="6.78777">
        <ele>2720.8</ele>
        <time>2017-02-19T11:35:52Z</time>
      </trkpt>
      <trkpt lat="45.70296" lon="6.78777">
        <ele>2722.61</ele>
        <time>2017-02-19T11:36:01Z</time>
      </trkpt>
      <trkpt lat="45.70302" lon="6.78782">
        <ele>2724.85</ele>
        <time>2017-02-19T11:36:16Z</time>
      </trkpt>
      <trkpt lat="45.70308" lon="6.78786">
        <ele>2726.94</ele>
        <time>2017-02-19T11:36:27Z</time>
      </trkpt>
      <trkpt lat="45.70313" lon="6.78791">
        <ele>2728.46</ele>
        <time>2017-02-19T11:36:39Z</time>
      </trkpt>
      <trkpt lat="45.70319" lon="6.78797">
        <ele>2730.71</ele>
        <time>2017-02-19T11:36:55Z</time>
      </trkpt>
      <trkpt lat="45.70324" lon="6.78803">
        <ele>2732.8</ele>
        <time>2017-02-19T11:37:09Z</time>
      </trkpt>
      <trkpt lat="45.70329" lon="6.78809">
        <ele>2734.31</ele>
        <time>2017-02-19T11:37:22Z</time>
      </trkpt>
      <trkpt lat="45.70336" lon="6.78812">
        <ele>2736.46</ele>
        <time>2017-02-19T11:37:40Z</time>
      </trkpt>
      <trkpt lat="45.70343" lon="6.78815">
        <ele>2737.91</ele>
        <time>2017-02-19T11:37:53Z</time>
      </trkpt>
      <trkpt lat="45.70349" lon="6.78817">
        <ele>2739.25</ele>
        <time>2017-02-19T11:38:04Z</time>
      </trkpt>
      <trkpt lat="45.70355" lon="6.7882">
        <ele>2740.87</ele>
        <time>2017-02-19T11:38:17Z</time>
      </trkpt>
      <trkpt lat="45.70361" lon="6.78824">
        <ele>2743.44</ele>
        <time>2017-02-19T11:38:31Z</time>
      </trkpt>
      <trkpt lat="45.70367" lon="6.78828">
        <ele>2746.19</ele>
        <time>2017-02-19T11:38:49Z</time>
      </trkpt>
      <trkpt lat="45.7037" lon="6.7883">
        <ele>2748.63</ele>
        <time>2017-02-19T11:39:04Z</time>
      </trkpt>
      <trkpt lat="45.70375" lon="6.78833">
        <ele>2749.45</ele>
        <time>2017-02-19T11:39:19Z</time>
      </trkpt>
      <trkpt lat="45.70381" lon="6.78833">
        <ele>2750.7</ele>
        <time>2017-02-19T11:39:34Z</time>
      </trkpt>
      <trkpt lat="45.70387" lon="6.78833">
        <ele>2752.47</ele>
        <time>2017-02-19T11:39:48Z</time>
      </trkpt>
      <trkpt lat="45.70394" lon="6.7883">
        <ele>2754.88</ele>
        <time>2017-02-19T11:40:05Z</time>
      </trkpt>
      <trkpt lat="45.70393" lon="6.78829">
        <ele>2756.47</ele>
        <time>2017-02-19T11:40:26Z</time>
      </trkpt>
      <trkpt lat="45.70392" lon="6.7883">
        <ele>2756.3</ele>
        <time>2017-02-19T11:40:48Z</time>
      </trkpt>
      <trkpt lat="45.70398" lon="6.78822">
        <ele>2756.98</ele>
        <time>2017-02-19T11:41:02Z</time>
      </trkpt>
      <trkpt lat="45.70404" lon="6.7881">
        <ele>2758.44</ele>
        <time>2017-02-19T11:41:18Z</time>
      </trkpt>
      <trkpt lat="45.70406" lon="6.78802">
        <ele>2760.38</ele>
        <time>2017-02-19T11:41:31Z</time>
      </trkpt>
      <trkpt lat="45.70399" lon="6.78796">
        <ele>2763.4</ele>
        <time>2017-02-19T11:41:49Z</time>
      </trkpt>
      <trkpt lat="45.70395" lon="6.78787">
        <ele>2766.26</ele>
        <time>2017-02-19T11:42:11Z</time>
      </trkpt>
      <trkpt lat="45.70402" lon="6.78787">
        <ele>2767.83</ele>
        <time>2017-02-19T11:42:25Z</time>
      </trkpt>
      <trkpt lat="45.70409" lon="6.78787">
        <ele>2770.31</ele>
        <time>2017-02-19T11:42:40Z</time>
      </trkpt>
      <trkpt lat="45.7041" lon="6.78785">
        <ele>2772.06</ele>
        <time>2017-02-19T11:42:54Z</time>
      </trkpt>
      <trkpt lat="45.7041" lon="6.78784">
        <ele>2772.73</ele>
        <time>2017-02-19T11:43:07Z</time>
      </trkpt>
      <trkpt lat="45.70407" lon="6.78779">
        <ele>2774</ele>
        <time>2017-02-19T11:43:21Z</time>
      </trkpt>
      <trkpt lat="45.70407" lon="6.78777">
        <ele>2775.33</ele>
        <time>2017-02-19T11:43:36Z</time>
      </trkpt>
      <trkpt lat="45.70411" lon="6.78775">
        <ele>2776.22</ele>
        <time>2017-02-19T11:43:47Z</time>
      </trkpt>
      <trkpt lat="45.70413" lon="6.78772">
        <ele>2777.71</ele>
        <time>2017-02-19T11:44:04Z</time>
      </trkpt>
      <trkpt lat="45.70412" lon="6.78768">
        <ele>2778.83</ele>
        <time>2017-02-19T11:44:17Z</time>
      </trkpt>
      <trkpt lat="45.70411" lon="6.78767">
        <ele>2779.3</ele>
        <time>2017-02-19T11:44:36Z</time>
      </trkpt>
      <trkpt lat="45.70413" lon="6.78767">
        <ele>2780.07</ele>
        <time>2017-02-19T11:44:52Z</time>
      </trkpt>
      <trkpt lat="45.70419" lon="6.78766">
        <ele>2781.77</ele>
        <time>2017-02-19T11:45:07Z</time>
      </trkpt>
      <trkpt lat="45.7042" lon="6.78766">
        <ele>2782.93</ele>
        <time>2017-02-19T11:45:22Z</time>
      </trkpt>
      <trkpt lat="45.70424" lon="6.78764">
        <ele>2783.53</ele>
        <time>2017-02-19T11:45:41Z</time>
      </trkpt>
      <trkpt lat="45.70425" lon="6.78764">
        <ele>2784.37</ele>
        <time>2017-02-19T11:45:57Z</time>
      </trkpt>
      <trkpt lat="45.70422" lon="6.78761">
        <ele>2785.04</ele>
        <time>2017-02-19T11:46:12Z</time>
      </trkpt>
      <trkpt lat="45.70419" lon="6.78756">
        <ele>2786.78</ele>
        <time>2017-02-19T11:46:26Z</time>
      </trkpt>
      <trkpt lat="45.70414" lon="6.78751">
        <ele>2788.95</ele>
        <time>2017-02-19T11:46:41Z</time>
      </trkpt>
      <trkpt lat="45.70413" lon="6.78741">
        <ele>2790.76</ele>
        <time>2017-02-19T11:46:59Z</time>
      </trkpt>
      <trkpt lat="45.70419" lon="6.78734">
        <ele>2793.3</ele>
        <time>2017-02-19T11:47:21Z</time>
      </trkpt>
      <trkpt lat="45.70428" lon="6.78735">
        <ele>2795.76</ele>
        <time>2017-02-19T11:47:39Z</time>
      </trkpt>
      <trkpt lat="45.70437" lon="6.78736">
        <ele>2798.35</ele>
        <time>2017-02-19T11:47:59Z</time>
      </trkpt>
      <trkpt lat="45.70444" lon="6.78734">
        <ele>2800.38</ele>
        <time>2017-02-19T11:48:15Z</time>
      </trkpt>
      <trkpt lat="45.70445" lon="6.78733">
        <ele>2801.36</ele>
        <time>2017-02-19T11:48:38Z</time>
      </trkpt>
      <trkpt lat="45.70447" lon="6.78729">
        <ele>2801.84</ele>
        <time>2017-02-19T11:49:00Z</time>
      </trkpt>
      <trkpt lat="45.70442" lon="6.78712">
        <ele>2804.88</ele>
        <time>2017-02-19T11:49:22Z</time>
      </trkpt>
      <trkpt lat="45.70441" lon="6.78704">
        <ele>2807.1</ele>
        <time>2017-02-19T11:49:37Z</time>
      </trkpt>
      <trkpt lat="45.70441" lon="6.78704">
        <ele>2807.33</ele>
        <time>2017-02-19T11:50:12Z</time>
      </trkpt>
      <trkpt lat="45.70442" lon="6.7869">
        <ele>2808.76</ele>
        <time>2017-02-19T11:50:32Z</time>
      </trkpt>
      <trkpt lat="45.70444" lon="6.78676">
        <ele>2811.7</ele>
        <time>2017-02-19T11:50:51Z</time>
      </trkpt>
      <trkpt lat="45.70446" lon="6.78663">
        <ele>2814.36</ele>
        <time>2017-02-19T11:51:11Z</time>
      </trkpt>
      <trkpt lat="45.70448" lon="6.78653">
        <ele>2816.79</ele>
        <time>2017-02-19T11:51:33Z</time>
      </trkpt>
      <trkpt lat="45.70448" lon="6.78653">
        <ele>2817.47</ele>
        <time>2017-02-19T11:51:49Z</time>
      </trkpt>
      <trkpt lat="45.7045" lon="6.78649">
        <ele>2817.8</ele>
        <time>2017-02-19T11:52:11Z</time>
      </trkpt>
      <trkpt lat="45.70451" lon="6.78635">
        <ele>2820.86</ele>
        <time>2017-02-19T11:52:33Z</time>
      </trkpt>
      <trkpt lat="45.70453" lon="6.78623">
        <ele>2823.83</ele>
        <time>2017-02-19T11:52:53Z</time>
      </trkpt>
      <trkpt lat="45.70453" lon="6.78616">
        <ele>2824.85</ele>
        <time>2017-02-19T11:53:14Z</time>
      </trkpt>
      <trkpt lat="45.70453" lon="6.78606">
        <ele>2826.91</ele>
        <time>2017-02-19T11:53:30Z</time>
      </trkpt>
      <trkpt lat="45.70452" lon="6.78593">
        <ele>2829.13</ele>
        <time>2017-02-19T11:53:48Z</time>
      </trkpt>
      <trkpt lat="45.70453" lon="6.78588">
        <ele>2831.81</ele>
        <time>2017-02-19T11:54:06Z</time>
      </trkpt>
      <trkpt lat="45.70453" lon="6.78583">
        <ele>2832.34</ele>
        <time>2017-02-19T11:54:22Z</time>
      </trkpt>
      <trkpt lat="45.70457" lon="6.7857">
        <ele>2834.65</ele>
        <time>2017-02-19T11:54:42Z</time>
      </trkpt>
      <trkpt lat="45.70464" lon="6.78575">
        <ele>2837.23</ele>
        <time>2017-02-19T11:54:58Z</time>
      </trkpt>
      <trkpt lat="45.70469" lon="6.78576">
        <ele>2837.23</ele>
        <time>2017-02-19T11:55:22Z</time>
      </trkpt>
      <trkpt lat="45.70475" lon="6.78584">
        <ele>2838.46</ele>
        <time>2017-02-19T11:55:37Z</time>
      </trkpt>
      <trkpt lat="45.7048" lon="6.78592">
        <ele>2840.37</ele>
        <time>2017-02-19T11:55:53Z</time>
      </trkpt>
      <trkpt lat="45.70483" lon="6.78597">
        <ele>2842.13</ele>
        <time>2017-02-19T11:56:07Z</time>
      </trkpt>
      <trkpt lat="45.70486" lon="6.78597">
        <ele>2843.94</ele>
        <time>2017-02-19T11:56:19Z</time>
      </trkpt>
      <trkpt lat="45.70485" lon="6.78596">
        <ele>2844.86</ele>
        <time>2017-02-19T11:56:41Z</time>
      </trkpt>
      <trkpt lat="45.70485" lon="6.78583">
        <ele>2846.16</ele>
        <time>2017-02-19T11:56:59Z</time>
      </trkpt>
      <trkpt lat="45.70484" lon="6.78582">
        <ele>2847.05</ele>
        <time>2017-02-19T11:57:16Z</time>
      </trkpt>
      <trkpt lat="45.70484" lon="6.78578">
        <ele>2847.74</ele>
        <time>2017-02-19T11:57:40Z</time>
      </trkpt>
      <trkpt lat="45.70485" lon="6.78566">
        <ele>2849.51</ele>
        <time>2017-02-19T11:58:00Z</time>
      </trkpt>
      <trkpt lat="45.70486" lon="6.78555">
        <ele>2851.4</ele>
        <time>2017-02-19T11:58:16Z</time>
      </trkpt>
      <trkpt lat="45.70487" lon="6.78545">
        <ele>2854.33</ele>
        <time>2017-02-19T11:58:37Z</time>
      </trkpt>
      <trkpt lat="45.70487" lon="6.78533">
        <ele>2856.47</ele>
        <time>2017-02-19T11:58:56Z</time>
      </trkpt>
      <trkpt lat="45.70487" lon="6.78524">
        <ele>2858.28</ele>
        <time>2017-02-19T11:59:12Z</time>
      </trkpt>
      <trkpt lat="45.70486" lon="6.78522">
        <ele>2858.94</ele>
        <time>2017-02-19T11:59:30Z</time>
      </trkpt>
      <trkpt lat="45.70487" lon="6.78523">
        <ele>2858.95</ele>
        <time>2017-02-19T11:59:51Z</time>
      </trkpt>
      <trkpt lat="45.7049" lon="6.78523">
        <ele>2858.07</ele>
        <time>2017-02-19T12:00:37Z</time>
      </trkpt>
      <trkpt lat="45.70488" lon="6.78523">
        <ele>2858.26</ele>
        <time>2017-02-19T12:01:21Z</time>
      </trkpt>
      <trkpt lat="45.70486" lon="6.78519">
        <ele>2858.73</ele>
        <time>2017-02-19T12:01:54Z</time>
      </trkpt>
      <trkpt lat="45.70486" lon="6.78512">
        <ele>2860.94</ele>
        <time>2017-02-19T12:02:16Z</time>
      </trkpt>
      <trkpt lat="45.70485" lon="6.78505">
        <ele>2861.32</ele>
        <time>2017-02-19T12:02:34Z</time>
      </trkpt>
      <trkpt lat="45.70484" lon="6.78496">
        <ele>2863.09</ele>
        <time>2017-02-19T12:02:47Z</time>
      </trkpt>
      <trkpt lat="45.70482" lon="6.78484">
        <ele>2866.17</ele>
        <time>2017-02-19T12:03:04Z</time>
      </trkpt>
      <trkpt lat="45.70481" lon="6.78476">
        <ele>2869.15</ele>
        <time>2017-02-19T12:03:23Z</time>
      </trkpt>
      <trkpt lat="45.70482" lon="6.78476">
        <ele>2869.25</ele>
        <time>2017-02-19T12:03:39Z</time>
      </trkpt>
      <trkpt lat="45.70482" lon="6.78477">
        <ele>2869.23</ele>
        <time>2017-02-19T12:03:55Z</time>
      </trkpt>
      <trkpt lat="45.70483" lon="6.78477">
        <ele>2869.25</ele>
        <time>2017-02-19T12:04:10Z</time>
      </trkpt>
      <trkpt lat="45.70484" lon="6.78479">
        <ele>2869.36</ele>
        <time>2017-02-19T12:04:42Z</time>
      </trkpt>
      <trkpt lat="45.70486" lon="6.78478">
        <ele>2868.94</ele>
        <time>2017-02-19T12:05:06Z</time>
      </trkpt>
      <trkpt lat="45.70485" lon="6.78476">
        <ele>2868.92</ele>
        <time>2017-02-19T12:05:30Z</time>
      </trkpt>
      <trkpt lat="45.70483" lon="6.78476">
        <ele>2869.66</ele>
        <time>2017-02-19T12:05:49Z</time>
      </trkpt>
      <trkpt lat="45.70483" lon="6.78476">
        <ele>2870.75</ele>
        <time>2017-02-19T12:06:05Z</time>
      </trkpt>
      <trkpt lat="45.70484" lon="6.78476">
        <ele>2870.31</ele>
        <time>2017-02-19T12:06:25Z</time>
      </trkpt>
      <trkpt lat="45.70486" lon="6.78475">
        <ele>2872.29</ele>
        <time>2017-02-19T12:06:43Z</time>
      </trkpt>
      <trkpt lat="45.70487" lon="6.78472">
        <ele>2873.6</ele>
        <time>2017-02-19T12:06:57Z</time>
      </trkpt>
      <trkpt lat="45.70488" lon="6.7847">
        <ele>2874.96</ele>
        <time>2017-02-19T12:07:12Z</time>
      </trkpt>
      <trkpt lat="45.70489" lon="6.78471">
        <ele>2875.82</ele>
        <time>2017-02-19T12:07:28Z</time>
      </trkpt>
      <trkpt lat="45.70489" lon="6.78472">
        <ele>2876.05</ele>
        <time>2017-02-19T12:07:51Z</time>
      </trkpt>
      <trkpt lat="45.7049" lon="6.78471">
        <ele>2876.76</ele>
        <time>2017-02-19T12:08:05Z</time>
      </trkpt>
      <trkpt lat="45.70491" lon="6.7847">
        <ele>2877.63</ele>
        <time>2017-02-19T12:08:19Z</time>
      </trkpt>
      <trkpt lat="45.70491" lon="6.78469">
        <ele>2878.43</ele>
        <time>2017-02-19T12:08:35Z</time>
      </trkpt>
      <trkpt lat="45.70492" lon="6.78468">
        <ele>2878.58</ele>
        <time>2017-02-19T12:09:02Z</time>
      </trkpt>
      <trkpt lat="45.70493" lon="6.78469">
        <ele>2878.94</ele>
        <time>2017-02-19T12:09:18Z</time>
      </trkpt>
      <trkpt lat="45.70493" lon="6.78467">
        <ele>2880.24</ele>
        <time>2017-02-19T12:09:33Z</time>
      </trkpt>
      <trkpt lat="45.70493" lon="6.78466">
        <ele>2881.02</ele>
        <time>2017-02-19T12:09:49Z</time>
      </trkpt>
      <trkpt lat="45.70495" lon="6.78466">
        <ele>2882.14</ele>
        <time>2017-02-19T12:10:04Z</time>
      </trkpt>
      <trkpt lat="45.70495" lon="6.78466">
        <ele>2882.8</ele>
        <time>2017-02-19T12:10:23Z</time>
      </trkpt>
      <trkpt lat="45.70495" lon="6.78465">
        <ele>2883.12</ele>
        <time>2017-02-19T12:10:41Z</time>
      </trkpt>
      <trkpt lat="45.70495" lon="6.78464">
        <ele>2884</ele>
        <time>2017-02-19T12:10:57Z</time>
      </trkpt>
      <trkpt lat="45.70496" lon="6.78462">
        <ele>2884.9</ele>
        <time>2017-02-19T12:11:12Z</time>
      </trkpt>
      <trkpt lat="45.70497" lon="6.78463">
        <ele>2885.18</ele>
        <time>2017-02-19T12:11:33Z</time>
      </trkpt>
      <trkpt lat="45.70498" lon="6.78463">
        <ele>2885.63</ele>
        <time>2017-02-19T12:11:46Z</time>
      </trkpt>
      <trkpt lat="45.705" lon="6.78462">
        <ele>2886.23</ele>
        <time>2017-02-19T12:11:59Z</time>
      </trkpt>
      <trkpt lat="45.70499" lon="6.78461">
        <ele>2886.9</ele>
        <time>2017-02-19T12:12:15Z</time>
      </trkpt>
      <trkpt lat="45.705" lon="6.7846">
        <ele>2887.57</ele>
        <time>2017-02-19T12:12:28Z</time>
      </trkpt>
      <trkpt lat="45.70502" lon="6.7846">
        <ele>2888.57</ele>
        <time>2017-02-19T12:12:49Z</time>
      </trkpt>
      <trkpt lat="45.70504" lon="6.78458">
        <ele>2890.41</ele>
        <time>2017-02-19T12:13:03Z</time>
      </trkpt>
      <trkpt lat="45.70507" lon="6.78456">
        <ele>2891.95</ele>
        <time>2017-02-19T12:13:20Z</time>
      </trkpt>
      <trkpt lat="45.70511" lon="6.78462">
        <ele>2893.35</ele>
        <time>2017-02-19T12:13:36Z</time>
      </trkpt>
      <trkpt lat="45.70513" lon="6.78466">
        <ele>2894.35</ele>
        <time>2017-02-19T12:13:51Z</time>
      </trkpt>
      <trkpt lat="45.70516" lon="6.78469">
        <ele>2895.37</ele>
        <time>2017-02-19T12:14:06Z</time>
      </trkpt>
      <trkpt lat="45.70518" lon="6.78469">
        <ele>2896.12</ele>
        <time>2017-02-19T12:14:19Z</time>
      </trkpt>
      <trkpt lat="45.70518" lon="6.78469">
        <ele>2896.35</ele>
        <time>2017-02-19T12:14:39Z</time>
      </trkpt>
      <trkpt lat="45.70517" lon="6.7847">
        <ele>2895.57</ele>
        <time>2017-02-19T12:14:55Z</time>
      </trkpt>
      <trkpt lat="45.70516" lon="6.7847">
        <ele>2894.93</ele>
        <time>2017-02-19T12:15:30Z</time>
      </trkpt>
      <trkpt lat="45.70517" lon="6.78472">
        <ele>2894.96</ele>
        <time>2017-02-19T12:15:59Z</time>
      </trkpt>
      <trkpt lat="45.70518" lon="6.78472">
        <ele>2895.56</ele>
        <time>2017-02-19T12:16:13Z</time>
      </trkpt>
      <trkpt lat="45.70521" lon="6.78473">
        <ele>2896.2</ele>
        <time>2017-02-19T12:16:31Z</time>
      </trkpt>
      <trkpt lat="45.70526" lon="6.78476">
        <ele>2897.25</ele>
        <time>2017-02-19T12:16:48Z</time>
      </trkpt>
      <trkpt lat="45.7053" lon="6.78476">
        <ele>2899.01</ele>
        <time>2017-02-19T12:17:01Z</time>
      </trkpt>
      <trkpt lat="45.70532" lon="6.78474">
        <ele>2900.75</ele>
        <time>2017-02-19T12:17:16Z</time>
      </trkpt>
      <trkpt lat="45.70538" lon="6.78474">
        <ele>2903.73</ele>
        <time>2017-02-19T12:17:34Z</time>
      </trkpt>
      <trkpt lat="45.70541" lon="6.78476">
        <ele>2905.39</ele>
        <time>2017-02-19T12:17:46Z</time>
      </trkpt>
      <trkpt lat="45.70546" lon="6.78479">
        <ele>2906.27</ele>
        <time>2017-02-19T12:18:00Z</time>
      </trkpt>
      <trkpt lat="45.70547" lon="6.78479">
        <ele>2906.83</ele>
        <time>2017-02-19T12:18:18Z</time>
      </trkpt>
      <trkpt lat="45.70546" lon="6.78479">
        <ele>2906.93</ele>
        <time>2017-02-19T12:18:38Z</time>
      </trkpt>
      <trkpt lat="45.70551" lon="6.78481">
        <ele>2907.14</ele>
        <time>2017-02-19T12:18:54Z</time>
      </trkpt>
      <trkpt lat="45.70551" lon="6.78482">
        <ele>2908.42</ele>
        <time>2017-02-19T12:19:08Z</time>
      </trkpt>
      <trkpt lat="45.70551" lon="6.78483">
        <ele>2908.07</ele>
        <time>2017-02-19T12:19:34Z</time>
      </trkpt>
      <trkpt lat="45.70551" lon="6.78483">
        <ele>2907.16</ele>
        <time>2017-02-19T12:20:36Z</time>
      </trkpt>
      <trkpt lat="45.70551" lon="6.78483">
        <ele>2907.34</ele>
        <time>2017-02-19T12:21:15Z</time>
      </trkpt>
      <trkpt lat="45.70552" lon="6.78483">
        <ele>2907.55</ele>
        <time>2017-02-19T12:21:59Z</time>
      </trkpt>
      <trkpt lat="45.70553" lon="6.78482">
        <ele>2907.79</ele>
        <time>2017-02-19T12:23:20Z</time>
      </trkpt>
      <trkpt lat="45.70552" lon="6.78482">
        <ele>2908.04</ele>
        <time>2017-02-19T12:23:41Z</time>
      </trkpt>
      <trkpt lat="45.70553" lon="6.78482">
        <ele>2908.78</ele>
        <time>2017-02-19T12:23:56Z</time>
      </trkpt>
      <trkpt lat="45.70551" lon="6.78482">
        <ele>2909</ele>
        <time>2017-02-19T12:24:13Z</time>
      </trkpt>
      <trkpt lat="45.70551" lon="6.78482">
        <ele>2908.33</ele>
        <time>2017-02-19T12:24:38Z</time>
      </trkpt>
      <trkpt lat="45.70549" lon="6.78481">
        <ele>2908.73</ele>
        <time>2017-02-19T12:25:17Z</time>
      </trkpt>
      <trkpt lat="45.7055" lon="6.78481">
        <ele>2908.68</ele>
        <time>2017-02-19T12:25:43Z</time>
      </trkpt>
      <trkpt lat="45.70551" lon="6.7848">
        <ele>2908.34</ele>
        <time>2017-02-19T12:26:13Z</time>
      </trkpt>
      <trkpt lat="45.70552" lon="6.78481">
        <ele>2908.7</ele>
        <time>2017-02-19T12:26:45Z</time>
      </trkpt>
      <trkpt lat="45.70552" lon="6.78481">
        <ele>2908.38</ele>
        <time>2017-02-19T12:27:04Z</time>
      </trkpt>
      <trkpt lat="45.70552" lon="6.78481">
        <ele>2908.45</ele>
        <time>2017-02-19T12:27:18Z</time>
      </trkpt>
      <trkpt lat="45.70552" lon="6.78479">
        <ele>2908.51</ele>
        <time>2017-02-19T12:27:43Z</time>
      </trkpt>
      <trkpt lat="45.70552" lon="6.78481">
        <ele>2909.16</ele>
        <time>2017-02-19T12:28:02Z</time>
      </trkpt>
      <trkpt lat="45.70548" lon="6.78481">
        <ele>2908.83</ele>
        <time>2017-02-19T12:28:20Z</time>
      </trkpt>
      <trkpt lat="45.70541" lon="6.78476">
        <ele>2906.71</ele>
        <time>2017-02-19T12:28:37Z</time>
      </trkpt>
      <trkpt lat="45.70538" lon="6.78475">
        <ele>2905.23</ele>
        <time>2017-02-19T12:28:55Z</time>
      </trkpt>
      <trkpt lat="45.70534" lon="6.78476">
        <ele>2902.35</ele>
        <time>2017-02-19T12:29:22Z</time>
      </trkpt>
      <trkpt lat="45.70529" lon="6.78476">
        <ele>2900.06</ele>
        <time>2017-02-19T12:29:42Z</time>
      </trkpt>
      <trkpt lat="45.70525" lon="6.78475">
        <ele>2898.77</ele>
        <time>2017-02-19T12:29:56Z</time>
      </trkpt>
      <trkpt lat="45.70522" lon="6.78474">
        <ele>2897.73</ele>
        <time>2017-02-19T12:30:10Z</time>
      </trkpt>
      <trkpt lat="45.70521" lon="6.78474">
        <ele>2897.05</ele>
        <time>2017-02-19T12:30:27Z</time>
      </trkpt>
      <trkpt lat="45.7052" lon="6.78473">
        <ele>2897.27</ele>
        <time>2017-02-19T12:30:49Z</time>
      </trkpt>
      <trkpt lat="45.70517" lon="6.78471">
        <ele>2896.59</ele>
        <time>2017-02-19T12:31:06Z</time>
      </trkpt>
      <trkpt lat="45.70514" lon="6.78466">
        <ele>2895.04</ele>
        <time>2017-02-19T12:31:25Z</time>
      </trkpt>
      <trkpt lat="45.70515" lon="6.78466">
        <ele>2894.99</ele>
        <time>2017-02-19T12:31:40Z</time>
      </trkpt>
      <trkpt lat="45.70514" lon="6.78465">
        <ele>2894.67</ele>
        <time>2017-02-19T12:32:23Z</time>
      </trkpt>
      <trkpt lat="45.70514" lon="6.78465">
        <ele>2895.16</ele>
        <time>2017-02-19T12:32:58Z</time>
      </trkpt>
      <trkpt lat="45.70513" lon="6.78466">
        <ele>2894.92</ele>
        <time>2017-02-19T12:33:20Z</time>
      </trkpt>
      <trkpt lat="45.70513" lon="6.78469">
        <ele>2893.28</ele>
        <time>2017-02-19T12:33:41Z</time>
      </trkpt>
      <trkpt lat="45.70513" lon="6.78473">
        <ele>2891.38</ele>
        <time>2017-02-19T12:34:02Z</time>
      </trkpt>
      <trkpt lat="45.70513" lon="6.78476">
        <ele>2888.81</ele>
        <time>2017-02-19T12:34:24Z</time>
      </trkpt>
      <trkpt lat="45.70512" lon="6.78483">
        <ele>2887.16</ele>
        <time>2017-02-19T12:34:43Z</time>
      </trkpt>
      <trkpt lat="45.70511" lon="6.78488">
        <ele>2885.7</ele>
        <time>2017-02-19T12:34:57Z</time>
      </trkpt>
      <trkpt lat="45.70512" lon="6.78501">
        <ele>2882.44</ele>
        <time>2017-02-19T12:35:15Z</time>
      </trkpt>
      <trkpt lat="45.70512" lon="6.78513">
        <ele>2879.4</ele>
        <time>2017-02-19T12:35:26Z</time>
      </trkpt>
      <trkpt lat="45.70512" lon="6.78519">
        <ele>2877.34</ele>
        <time>2017-02-19T12:35:36Z</time>
      </trkpt>
      <trkpt lat="45.70514" lon="6.78519">
        <ele>2876.17</ele>
        <time>2017-02-19T12:35:51Z</time>
      </trkpt>
      <trkpt lat="45.70515" lon="6.78519">
        <ele>2875.97</ele>
        <time>2017-02-19T12:36:05Z</time>
      </trkpt>
      <trkpt lat="45.70514" lon="6.78519">
        <ele>2875</ele>
        <time>2017-02-19T12:36:32Z</time>
      </trkpt>
      <trkpt lat="45.70513" lon="6.78517">
        <ele>2874.95</ele>
        <time>2017-02-19T12:36:47Z</time>
      </trkpt>
      <trkpt lat="45.70511" lon="6.78517">
        <ele>2874.84</ele>
        <time>2017-02-19T12:37:38Z</time>
      </trkpt>
      <trkpt lat="45.70512" lon="6.78518">
        <ele>2874.72</ele>
        <time>2017-02-19T12:37:57Z</time>
      </trkpt>
      <trkpt lat="45.70511" lon="6.78518">
        <ele>2875.49</ele>
        <time>2017-02-19T12:38:15Z</time>
      </trkpt>
      <trkpt lat="45.70511" lon="6.78518">
        <ele>2875.86</ele>
        <time>2017-02-19T12:39:45Z</time>
      </trkpt>
      <trkpt lat="45.70513" lon="6.78516">
        <ele>2877.07</ele>
        <time>2017-02-19T12:42:07Z</time>
      </trkpt>
      <trkpt lat="45.70513" lon="6.78518">
        <ele>2876.85</ele>
        <time>2017-02-19T12:43:53Z</time>
      </trkpt>
      <trkpt lat="45.70514" lon="6.78518">
        <ele>2876.09</ele>
        <time>2017-02-19T12:44:15Z</time>
      </trkpt>
      <trkpt lat="45.70514" lon="6.78519">
        <ele>2875.34</ele>
        <time>2017-02-19T12:45:02Z</time>
      </trkpt>
      <trkpt lat="45.70514" lon="6.78519">
        <ele>2875.4</ele>
        <time>2017-02-19T12:45:25Z</time>
      </trkpt>
      <trkpt lat="45.70514" lon="6.7852">
        <ele>2875.25</ele>
        <time>2017-02-19T12:45:59Z</time>
      </trkpt>
      <trkpt lat="45.70514" lon="6.78519">
        <ele>2875.37</ele>
        <time>2017-02-19T12:46:45Z</time>
      </trkpt>
      <trkpt lat="45.70514" lon="6.78517">
        <ele>2875.92</ele>
        <time>2017-02-19T12:47:49Z</time>
      </trkpt>
      <trkpt lat="45.70513" lon="6.78521">
        <ele>2876.66</ele>
        <time>2017-02-19T12:48:27Z</time>
      </trkpt>
      <trkpt lat="45.70511" lon="6.7852">
        <ele>2876.27</ele>
        <time>2017-02-19T12:48:43Z</time>
      </trkpt>
      <trkpt lat="45.70495" lon="6.78506">
        <ele>2875.15</ele>
        <time>2017-02-19T12:48:50Z</time>
      </trkpt>
      <trkpt lat="45.7049" lon="6.78513">
        <ele>2871.96</ele>
        <time>2017-02-19T12:48:54Z</time>
      </trkpt>
      <trkpt lat="45.7049" lon="6.78513">
        <ele>2868.77</ele>
        <time>2017-02-19T12:48:57Z</time>
      </trkpt>
      <trkpt lat="45.7049" lon="6.78513">
        <ele>2865.61</ele>
        <time>2017-02-19T12:49:04Z</time>
      </trkpt>
      <trkpt lat="45.7049" lon="6.78514">
        <ele>2864.64</ele>
        <time>2017-02-19T12:49:27Z</time>
      </trkpt>
      <trkpt lat="45.70488" lon="6.78514">
        <ele>2864.57</ele>
        <time>2017-02-19T12:49:59Z</time>
      </trkpt>
      <trkpt lat="45.70488" lon="6.78514">
        <ele>2864.58</ele>
        <time>2017-02-19T12:50:17Z</time>
      </trkpt>
      <trkpt lat="45.7049" lon="6.7853">
        <ele>2864.51</ele>
        <time>2017-02-19T12:50:21Z</time>
      </trkpt>
      <trkpt lat="45.70493" lon="6.78546">
        <ele>2860.97</ele>
        <time>2017-02-19T12:50:27Z</time>
      </trkpt>
      <trkpt lat="45.70493" lon="6.78546">
        <ele>2860.97</ele>
        <time>2017-02-19T12:50:28Z</time>
      </trkpt>
      <trkpt lat="45.70494" lon="6.78545">
        <ele>2858.15</ele>
        <time>2017-02-19T12:50:52Z</time>
      </trkpt>
      <trkpt lat="45.70495" lon="6.78546">
        <ele>2857.93</ele>
        <time>2017-02-19T12:51:08Z</time>
      </trkpt>
      <trkpt lat="45.70495" lon="6.78548">
        <ele>2857.98</ele>
        <time>2017-02-19T12:51:24Z</time>
      </trkpt>
      <trkpt lat="45.70495" lon="6.78549">
        <ele>2857.73</ele>
        <time>2017-02-19T12:51:50Z</time>
      </trkpt>
      <trkpt lat="45.70494" lon="6.78549">
        <ele>2856.57</ele>
        <time>2017-02-19T12:52:14Z</time>
      </trkpt>
      <trkpt lat="45.70496" lon="6.78547">
        <ele>2856.8</ele>
        <time>2017-02-19T12:52:40Z</time>
      </trkpt>
      <trkpt lat="45.70496" lon="6.78546">
        <ele>2857.18</ele>
        <time>2017-02-19T12:53:07Z</time>
      </trkpt>
      <trkpt lat="45.70496" lon="6.78548">
        <ele>2856.76</ele>
        <time>2017-02-19T12:53:46Z</time>
      </trkpt>
      <trkpt lat="45.70494" lon="6.78548">
        <ele>2857.63</ele>
        <time>2017-02-19T12:54:35Z</time>
      </trkpt>
      <trkpt lat="45.70493" lon="6.78549">
        <ele>2858.43</ele>
        <time>2017-02-19T12:54:50Z</time>
      </trkpt>
      <trkpt lat="45.70485" lon="6.78559">
        <ele>2857.77</ele>
        <time>2017-02-19T12:54:57Z</time>
      </trkpt>
      <trkpt lat="45.70469" lon="6.7856">
        <ele>2854.44</ele>
        <time>2017-02-19T12:55:01Z</time>
      </trkpt>
      <trkpt lat="45.70472" lon="6.78576">
        <ele>2850.42</ele>
        <time>2017-02-19T12:55:04Z</time>
      </trkpt>
      <trkpt lat="45.70471" lon="6.78583">
        <ele>2847.2</ele>
        <time>2017-02-19T12:55:06Z</time>
      </trkpt>
      <trkpt lat="45.70471" lon="6.78585">
        <ele>2845.81</ele>
        <time>2017-02-19T12:55:07Z</time>
      </trkpt>
      <trkpt lat="45.70467" lon="6.78587">
        <ele>2841.12</ele>
        <time>2017-02-19T12:55:12Z</time>
      </trkpt>
      <trkpt lat="45.70467" lon="6.78587">
        <ele>2838.01</ele>
        <time>2017-02-19T12:55:18Z</time>
      </trkpt>
      <trkpt lat="45.7046" lon="6.7859">
        <ele>2837.28</ele>
        <time>2017-02-19T12:55:51Z</time>
      </trkpt>
      <trkpt lat="45.70456" lon="6.78597">
        <ele>2836.24</ele>
        <time>2017-02-19T12:55:56Z</time>
      </trkpt>
      <trkpt lat="45.70449" lon="6.78601">
        <ele>2833.13</ele>
        <time>2017-02-19T12:56:00Z</time>
      </trkpt>
      <trkpt lat="45.70442" lon="6.78607">
        <ele>2828.87</ele>
        <time>2017-02-19T12:56:03Z</time>
      </trkpt>
      <trkpt lat="45.70438" lon="6.78606">
        <ele>2827.28</ele>
        <time>2017-02-19T12:56:04Z</time>
      </trkpt>
      <trkpt lat="45.70433" lon="6.7862">
        <ele>2821</ele>
        <time>2017-02-19T12:56:08Z</time>
      </trkpt>
      <trkpt lat="45.70427" lon="6.78619">
        <ele>2816.6</ele>
        <time>2017-02-19T12:56:10Z</time>
      </trkpt>
      <trkpt lat="45.70421" lon="6.7863">
        <ele>2812.1</ele>
        <time>2017-02-19T12:56:13Z</time>
      </trkpt>
      <trkpt lat="45.70416" lon="6.7863">
        <ele>2809</ele>
        <time>2017-02-19T12:56:15Z</time>
      </trkpt>
      <trkpt lat="45.70413" lon="6.78636">
        <ele>2805.78</ele>
        <time>2017-02-19T12:56:17Z</time>
      </trkpt>
      <trkpt lat="45.70413" lon="6.7864">
        <ele>2801.02</ele>
        <time>2017-02-19T12:56:20Z</time>
      </trkpt>
      <trkpt lat="45.70413" lon="6.78641">
        <ele>2797.99</ele>
        <time>2017-02-19T12:56:23Z</time>
      </trkpt>
      <trkpt lat="45.70408" lon="6.78645">
        <ele>2794.83</ele>
        <time>2017-02-19T12:56:36Z</time>
      </trkpt>
      <trkpt lat="45.70396" lon="6.78645">
        <ele>2790.77</ele>
        <time>2017-02-19T12:56:41Z</time>
      </trkpt>
      <trkpt lat="45.70391" lon="6.78648">
        <ele>2787.76</ele>
        <time>2017-02-19T12:56:43Z</time>
      </trkpt>
      <trkpt lat="45.70386" lon="6.78656">
        <ele>2784.58</ele>
        <time>2017-02-19T12:56:45Z</time>
      </trkpt>
      <trkpt lat="45.70385" lon="6.78659">
        <ele>2780.93</ele>
        <time>2017-02-19T12:56:47Z</time>
      </trkpt>
      <trkpt lat="45.70383" lon="6.7866">
        <ele>2777.9</ele>
        <time>2017-02-19T12:56:49Z</time>
      </trkpt>
      <trkpt lat="45.70382" lon="6.7866">
        <ele>2774.59</ele>
        <time>2017-02-19T12:56:53Z</time>
      </trkpt>
      <trkpt lat="45.70375" lon="6.78659">
        <ele>2772.91</ele>
        <time>2017-02-19T12:56:57Z</time>
      </trkpt>
      <trkpt lat="45.70368" lon="6.78671">
        <ele>2768.86</ele>
        <time>2017-02-19T12:57:00Z</time>
      </trkpt>
      <trkpt lat="45.70356" lon="6.78683">
        <ele>2764.1</ele>
        <time>2017-02-19T12:57:03Z</time>
      </trkpt>
      <trkpt lat="45.70348" lon="6.78697">
        <ele>2761.04</ele>
        <time>2017-02-19T12:57:05Z</time>
      </trkpt>
      <trkpt lat="45.7034" lon="6.78716">
        <ele>2757.18</ele>
        <time>2017-02-19T12:57:07Z</time>
      </trkpt>
      <trkpt lat="45.70327" lon="6.78754">
        <ele>2750.37</ele>
        <time>2017-02-19T12:57:10Z</time>
      </trkpt>
      <trkpt lat="45.70307" lon="6.78792">
        <ele>2742.27</ele>
        <time>2017-02-19T12:57:13Z</time>
      </trkpt>
      <trkpt lat="45.70302" lon="6.788">
        <ele>2740.13</ele>
        <time>2017-02-19T12:57:14Z</time>
      </trkpt>
      <trkpt lat="45.70293" lon="6.78792">
        <ele>2734.61</ele>
        <time>2017-02-19T12:57:18Z</time>
      </trkpt>
      <trkpt lat="45.70296" lon="6.78785">
        <ele>2731.3</ele>
        <time>2017-02-19T12:57:23Z</time>
      </trkpt>
      <trkpt lat="45.70293" lon="6.78781">
        <ele>2729.76</ele>
        <time>2017-02-19T12:58:08Z</time>
      </trkpt>
      <trkpt lat="45.70289" lon="6.78778">
        <ele>2729.58</ele>
        <time>2017-02-19T12:58:10Z</time>
      </trkpt>
      <trkpt lat="45.70241" lon="6.78762">
        <ele>2724.87</ele>
        <time>2017-02-19T12:58:16Z</time>
      </trkpt>
      <trkpt lat="45.70216" lon="6.78749">
        <ele>2719.39</ele>
        <time>2017-02-19T12:58:19Z</time>
      </trkpt>
      <trkpt lat="45.70209" lon="6.78746">
        <ele>2716.12</ele>
        <time>2017-02-19T12:58:20Z</time>
      </trkpt>
      <trkpt lat="45.70188" lon="6.78742">
        <ele>2711.6</ele>
        <time>2017-02-19T12:58:26Z</time>
      </trkpt>
      <trkpt lat="45.70188" lon="6.78742">
        <ele>2710.81</ele>
        <time>2017-02-19T12:58:38Z</time>
      </trkpt>
      <trkpt lat="45.7019" lon="6.78736">
        <ele>2710.95</ele>
        <time>2017-02-19T12:58:53Z</time>
      </trkpt>
      <trkpt lat="45.70188" lon="6.78737">
        <ele>2711.48</ele>
        <time>2017-02-19T12:59:54Z</time>
      </trkpt>
      <trkpt lat="45.70189" lon="6.78735">
        <ele>2713.33</ele>
        <time>2017-02-19T13:01:13Z</time>
      </trkpt>
      <trkpt lat="45.70191" lon="6.78736">
        <ele>2713.91</ele>
        <time>2017-02-19T13:02:19Z</time>
      </trkpt>
      <trkpt lat="45.70191" lon="6.78734">
        <ele>2714.12</ele>
        <time>2017-02-19T13:02:31Z</time>
      </trkpt>
      <trkpt lat="45.70189" lon="6.78741">
        <ele>2713.71</ele>
        <time>2017-02-19T13:02:52Z</time>
      </trkpt>
      <trkpt lat="45.70187" lon="6.78742">
        <ele>2713.62</ele>
        <time>2017-02-19T13:03:09Z</time>
      </trkpt>
      <trkpt lat="45.70181" lon="6.7874">
        <ele>2713.78</ele>
        <time>2017-02-19T13:03:21Z</time>
      </trkpt>
      <trkpt lat="45.70184" lon="6.78739">
        <ele>2713.71</ele>
        <time>2017-02-19T13:04:01Z</time>
      </trkpt>
      <trkpt lat="45.70185" lon="6.78738">
        <ele>2714.16</ele>
        <time>2017-02-19T13:04:35Z</time>
      </trkpt>
      <trkpt lat="45.70188" lon="6.78738">
        <ele>2714.51</ele>
        <time>2017-02-19T13:05:06Z</time>
      </trkpt>
      <trkpt lat="45.70185" lon="6.78734">
        <ele>2714.3</ele>
        <time>2017-02-19T13:05:41Z</time>
      </trkpt>
      <trkpt lat="45.7019" lon="6.7874">
        <ele>2714.1</ele>
        <time>2017-02-19T13:06:11Z</time>
      </trkpt>
      <trkpt lat="45.70189" lon="6.78743">
        <ele>2713.8</ele>
        <time>2017-02-19T13:06:52Z</time>
      </trkpt>
      <trkpt lat="45.70195" lon="6.78747">
        <ele>2713.31</ele>
        <time>2017-02-19T13:07:24Z</time>
      </trkpt>
      <trkpt lat="45.70191" lon="6.78744">
        <ele>2713.25</ele>
        <time>2017-02-19T13:07:59Z</time>
      </trkpt>
      <trkpt lat="45.7019" lon="6.78743">
        <ele>2712.84</ele>
        <time>2017-02-19T13:08:27Z</time>
      </trkpt>
      <trkpt lat="45.70191" lon="6.78742">
        <ele>2712.18</ele>
        <time>2017-02-19T13:09:17Z</time>
      </trkpt>
      <trkpt lat="45.70191" lon="6.78743">
        <ele>2711.9</ele>
        <time>2017-02-19T13:10:15Z</time>
      </trkpt>
      <trkpt lat="45.70193" lon="6.78741">
        <ele>2711.55</ele>
        <time>2017-02-19T13:11:28Z</time>
      </trkpt>
      <trkpt lat="45.70192" lon="6.78739">
        <ele>2710.87</ele>
        <time>2017-02-19T13:12:45Z</time>
      </trkpt>
      <trkpt lat="45.7019" lon="6.78737">
        <ele>2710.09</ele>
        <time>2017-02-19T13:13:37Z</time>
      </trkpt>
      <trkpt lat="45.70189" lon="6.78737">
        <ele>2709.7</ele>
        <time>2017-02-19T13:14:48Z</time>
      </trkpt>
      <trkpt lat="45.7019" lon="6.78736">
        <ele>2708.7</ele>
        <time>2017-02-19T13:16:08Z</time>
      </trkpt>
      <trkpt lat="45.7019" lon="6.78736">
        <ele>2708.58</ele>
        <time>2017-02-19T13:17:42Z</time>
      </trkpt>
      <trkpt lat="45.70188" lon="6.78739">
        <ele>2707.97</ele>
        <time>2017-02-19T13:19:13Z</time>
      </trkpt>
      <trkpt lat="45.70187" lon="6.78742">
        <ele>2707.93</ele>
        <time>2017-02-19T13:20:24Z</time>
      </trkpt>
      <trkpt lat="45.70184" lon="6.78739">
        <ele>2708.31</ele>
        <time>2017-02-19T13:21:33Z</time>
      </trkpt>
      <trkpt lat="45.70182" lon="6.7874">
        <ele>2708.29</ele>
        <time>2017-02-19T13:22:16Z</time>
      </trkpt>
      <trkpt lat="45.70178" lon="6.78743">
        <ele>2708.74</ele>
        <time>2017-02-19T13:22:45Z</time>
      </trkpt>
      <trkpt lat="45.70174" lon="6.78746">
        <ele>2708.84</ele>
        <time>2017-02-19T13:23:14Z</time>
      </trkpt>
      <trkpt lat="45.70178" lon="6.7874">
        <ele>2709.2</ele>
        <time>2017-02-19T13:24:02Z</time>
      </trkpt>
      <trkpt lat="45.70176" lon="6.78741">
        <ele>2708.64</ele>
        <time>2017-02-19T13:24:24Z</time>
      </trkpt>
      <trkpt lat="45.70178" lon="6.78742">
        <ele>2708.9</ele>
        <time>2017-02-19T13:24:55Z</time>
      </trkpt>
      <trkpt lat="45.70181" lon="6.78741">
        <ele>2709.01</ele>
        <time>2017-02-19T13:25:16Z</time>
      </trkpt>
      <trkpt lat="45.70183" lon="6.78743">
        <ele>2709.33</ele>
        <time>2017-02-19T13:25:53Z</time>
      </trkpt>
      <trkpt lat="45.70183" lon="6.78743">
        <ele>2708.95</ele>
        <time>2017-02-19T13:26:19Z</time>
      </trkpt>
      <trkpt lat="45.70185" lon="6.78744">
        <ele>2708.97</ele>
        <time>2017-02-19T13:26:46Z</time>
      </trkpt>
      <trkpt lat="45.70186" lon="6.78744">
        <ele>2708.69</ele>
        <time>2017-02-19T13:27:15Z</time>
      </trkpt>
      <trkpt lat="45.70186" lon="6.78744">
        <ele>2709.08</ele>
        <time>2017-02-19T13:27:39Z</time>
      </trkpt>
      <trkpt lat="45.70183" lon="6.78748">
        <ele>2708.82</ele>
        <time>2017-02-19T13:28:08Z</time>
      </trkpt>
      <trkpt lat="45.70187" lon="6.78745">
        <ele>2709.52</ele>
        <time>2017-02-19T13:28:44Z</time>
      </trkpt>
      <trkpt lat="45.70187" lon="6.78745">
        <ele>2709.95</ele>
        <time>2017-02-19T13:29:15Z</time>
      </trkpt>
      <trkpt lat="45.70187" lon="6.78745">
        <ele>2709.94</ele>
        <time>2017-02-19T13:29:46Z</time>
      </trkpt>
      <trkpt lat="45.70187" lon="6.78745">
        <ele>2711.06</ele>
        <time>2017-02-19T13:30:11Z</time>
      </trkpt>
      <trkpt lat="45.70191" lon="6.78742">
        <ele>2710.89</ele>
        <time>2017-02-19T13:30:27Z</time>
      </trkpt>
      <trkpt lat="45.7019" lon="6.78743">
        <ele>2710.79</ele>
        <time>2017-02-19T13:30:55Z</time>
      </trkpt>
      <trkpt lat="45.70192" lon="6.78741">
        <ele>2710.9</ele>
        <time>2017-02-19T13:31:18Z</time>
      </trkpt>
      <trkpt lat="45.70192" lon="6.78738">
        <ele>2711.1</ele>
        <time>2017-02-19T13:31:33Z</time>
      </trkpt>
      <trkpt lat="45.70192" lon="6.78739">
        <ele>2711.01</ele>
        <time>2017-02-19T13:32:14Z</time>
      </trkpt>
      <trkpt lat="45.70196" lon="6.7874">
        <ele>2710.98</ele>
        <time>2017-02-19T13:32:32Z</time>
      </trkpt>
      <trkpt lat="45.70191" lon="6.78741">
        <ele>2710.87</ele>
        <time>2017-02-19T13:32:59Z</time>
      </trkpt>
      <trkpt lat="45.70191" lon="6.78741">
        <ele>2710.95</ele>
        <time>2017-02-19T13:33:02Z</time>
      </trkpt>
      <trkpt lat="45.70192" lon="6.78739">
        <ele>2710.24</ele>
        <time>2017-02-19T13:33:30Z</time>
      </trkpt>
      <trkpt lat="45.70188" lon="6.7874">
        <ele>2710.32</ele>
        <time>2017-02-19T13:33:42Z</time>
      </trkpt>
      <trkpt lat="45.70186" lon="6.78742">
        <ele>2710.51</ele>
        <time>2017-02-19T13:34:10Z</time>
      </trkpt>
      <trkpt lat="45.70187" lon="6.78744">
        <ele>2710.97</ele>
        <time>2017-02-19T13:34:29Z</time>
      </trkpt>
      <trkpt lat="45.70187" lon="6.78742">
        <ele>2711.27</ele>
        <time>2017-02-19T13:35:00Z</time>
      </trkpt>
      <trkpt lat="45.70188" lon="6.78741">
        <ele>2711</ele>
        <time>2017-02-19T13:35:38Z</time>
      </trkpt>
      <trkpt lat="45.70187" lon="6.78739">
        <ele>2711.02</ele>
        <time>2017-02-19T13:35:59Z</time>
      </trkpt>
      <trkpt lat="45.70187" lon="6.78739">
        <ele>2710.92</ele>
        <time>2017-02-19T13:36:39Z</time>
      </trkpt>
      <trkpt lat="45.70186" lon="6.78739">
        <ele>2710.92</ele>
        <time>2017-02-19T13:37:02Z</time>
      </trkpt>
      <trkpt lat="45.70185" lon="6.78738">
        <ele>2710.45</ele>
        <time>2017-02-19T13:37:29Z</time>
      </trkpt>
      <trkpt lat="45.70184" lon="6.7874">
        <ele>2710.74</ele>
        <time>2017-02-19T13:38:06Z</time>
      </trkpt>
      <trkpt lat="45.70183" lon="6.78738">
        <ele>2710.54</ele>
        <time>2017-02-19T13:38:26Z</time>
      </trkpt>
      <trkpt lat="45.70182" lon="6.78736">
        <ele>2710.25</ele>
        <time>2017-02-19T13:38:29Z</time>
      </trkpt>
      <trkpt lat="45.70166" lon="6.78706">
        <ele>2708.91</ele>
        <time>2017-02-19T13:38:38Z</time>
      </trkpt>
      <trkpt lat="45.70164" lon="6.78702">
        <ele>2708.55</ele>
        <time>2017-02-19T13:38:39Z</time>
      </trkpt>
      <trkpt lat="45.70152" lon="6.78693">
        <ele>2707.63</ele>
        <time>2017-02-19T13:38:42Z</time>
      </trkpt>
      <trkpt lat="45.70138" lon="6.7869">
        <ele>2706.74</ele>
        <time>2017-02-19T13:38:44Z</time>
      </trkpt>
      <trkpt lat="45.70111" lon="6.78693">
        <ele>2702.95</ele>
        <time>2017-02-19T13:38:48Z</time>
      </trkpt>
      <trkpt lat="45.7009" lon="6.787">
        <ele>2699.85</ele>
        <time>2017-02-19T13:38:52Z</time>
      </trkpt>
      <trkpt lat="45.70063" lon="6.78711">
        <ele>2696.72</ele>
        <time>2017-02-19T13:38:57Z</time>
      </trkpt>
      <trkpt lat="45.70028" lon="6.78728">
        <ele>2692.79</ele>
        <time>2017-02-19T13:39:02Z</time>
      </trkpt>
      <trkpt lat="45.70007" lon="6.78741">
        <ele>2688.88</ele>
        <time>2017-02-19T13:39:06Z</time>
      </trkpt>
      <trkpt lat="45.69985" lon="6.78753">
        <ele>2685.82</ele>
        <time>2017-02-19T13:39:10Z</time>
      </trkpt>
      <trkpt lat="45.69964" lon="6.78762">
        <ele>2683.17</ele>
        <time>2017-02-19T13:39:14Z</time>
      </trkpt>
      <trkpt lat="45.69951" lon="6.7876">
        <ele>2679.23</ele>
        <time>2017-02-19T13:39:19Z</time>
      </trkpt>
      <trkpt lat="45.69951" lon="6.78764">
        <ele>2677.1</ele>
        <time>2017-02-19T13:39:31Z</time>
      </trkpt>
      <trkpt lat="45.6994" lon="6.78775">
        <ele>2676.79</ele>
        <time>2017-02-19T13:39:35Z</time>
      </trkpt>
      <trkpt lat="45.69935" lon="6.78797">
        <ele>2675.38</ele>
        <time>2017-02-19T13:39:38Z</time>
      </trkpt>
      <trkpt lat="45.69931" lon="6.78833">
        <ele>2669.79</ele>
        <time>2017-02-19T13:39:42Z</time>
      </trkpt>
      <trkpt lat="45.6993" lon="6.78843">
        <ele>2665.51</ele>
        <time>2017-02-19T13:39:43Z</time>
      </trkpt>
      <trkpt lat="45.69917" lon="6.78864">
        <ele>2658.47</ele>
        <time>2017-02-19T13:39:46Z</time>
      </trkpt>
      <trkpt lat="45.69908" lon="6.78868">
        <ele>2653.5</ele>
        <time>2017-02-19T13:39:48Z</time>
      </trkpt>
      <trkpt lat="45.6989" lon="6.78879">
        <ele>2647.08</ele>
        <time>2017-02-19T13:39:51Z</time>
      </trkpt>
      <trkpt lat="45.69871" lon="6.78886">
        <ele>2642.37</ele>
        <time>2017-02-19T13:39:54Z</time>
      </trkpt>
      <trkpt lat="45.6986" lon="6.78886">
        <ele>2639.2</ele>
        <time>2017-02-19T13:39:56Z</time>
      </trkpt>
      <trkpt lat="45.6984" lon="6.78883">
        <ele>2634.72</ele>
        <time>2017-02-19T13:40:00Z</time>
      </trkpt>
      <trkpt lat="45.69832" lon="6.78878">
        <ele>2631.11</ele>
        <time>2017-02-19T13:40:04Z</time>
      </trkpt>
      <trkpt lat="45.69834" lon="6.78876">
        <ele>2628.22</ele>
        <time>2017-02-19T13:40:08Z</time>
      </trkpt>
      <trkpt lat="45.69838" lon="6.78871">
        <ele>2626.51</ele>
        <time>2017-02-19T13:40:14Z</time>
      </trkpt>
      <trkpt lat="45.69842" lon="6.78867">
        <ele>2625.89</ele>
        <time>2017-02-19T13:40:39Z</time>
      </trkpt>
      <trkpt lat="45.69842" lon="6.78867">
        <ele>2625.89</ele>
        <time>2017-02-19T13:40:55Z</time>
      </trkpt>
      <trkpt lat="45.69825" lon="6.78869">
        <ele>2625.6</ele>
        <time>2017-02-19T13:41:00Z</time>
      </trkpt>
      <trkpt lat="45.69796" lon="6.78867">
        <ele>2623.37</ele>
        <time>2017-02-19T13:41:05Z</time>
      </trkpt>
      <trkpt lat="45.69775" lon="6.78869">
        <ele>2619.4</ele>
        <time>2017-02-19T13:41:11Z</time>
      </trkpt>
      <trkpt lat="45.69756" lon="6.78869">
        <ele>2616.2</ele>
        <time>2017-02-19T13:41:18Z</time>
      </trkpt>
      <trkpt lat="45.69752" lon="6.7887">
        <ele>2615.36</ele>
        <time>2017-02-19T13:41:20Z</time>
      </trkpt>
      <trkpt lat="45.69748" lon="6.78888">
        <ele>2612.09</ele>
        <time>2017-02-19T13:41:25Z</time>
      </trkpt>
      <trkpt lat="45.69742" lon="6.78893">
        <ele>2607.24</ele>
        <time>2017-02-19T13:41:29Z</time>
      </trkpt>
      <trkpt lat="45.69731" lon="6.78895">
        <ele>2603.79</ele>
        <time>2017-02-19T13:41:33Z</time>
      </trkpt>
      <trkpt lat="45.69721" lon="6.78906">
        <ele>2600.64</ele>
        <time>2017-02-19T13:41:38Z</time>
      </trkpt>
      <trkpt lat="45.69709" lon="6.78928">
        <ele>2594.97</ele>
        <time>2017-02-19T13:41:44Z</time>
      </trkpt>
      <trkpt lat="45.69706" lon="6.78933">
        <ele>2589.64</ele>
        <time>2017-02-19T13:41:46Z</time>
      </trkpt>
      <trkpt lat="45.69701" lon="6.78941">
        <ele>2586.92</ele>
        <time>2017-02-19T13:41:48Z</time>
      </trkpt>
      <trkpt lat="45.69687" lon="6.78965">
        <ele>2581.54</ele>
        <time>2017-02-19T13:41:52Z</time>
      </trkpt>
      <trkpt lat="45.69677" lon="6.78979">
        <ele>2577.95</ele>
        <time>2017-02-19T13:41:54Z</time>
      </trkpt>
      <trkpt lat="45.69671" lon="6.78985">
        <ele>2575.96</ele>
        <time>2017-02-19T13:41:55Z</time>
      </trkpt>
      <trkpt lat="45.69654" lon="6.78994">
        <ele>2569.47</ele>
        <time>2017-02-19T13:41:58Z</time>
      </trkpt>
      <trkpt lat="45.69636" lon="6.79002">
        <ele>2564.04</ele>
        <time>2017-02-19T13:42:01Z</time>
      </trkpt>
      <trkpt lat="45.6962" lon="6.79008">
        <ele>2559.78</ele>
        <time>2017-02-19T13:42:04Z</time>
      </trkpt>
      <trkpt lat="45.69611" lon="6.79011">
        <ele>2557.45</ele>
        <time>2017-02-19T13:42:06Z</time>
      </trkpt>
      <trkpt lat="45.69596" lon="6.79018">
        <ele>2554.82</ele>
        <time>2017-02-19T13:42:09Z</time>
      </trkpt>
      <trkpt lat="45.69577" lon="6.79029">
        <ele>2551.3</ele>
        <time>2017-02-19T13:42:16Z</time>
      </trkpt>
      <trkpt lat="45.69551" lon="6.7904">
        <ele>2549.38</ele>
        <time>2017-02-19T13:42:21Z</time>
      </trkpt>
      <trkpt lat="45.6953" lon="6.79052">
        <ele>2546.84</ele>
        <time>2017-02-19T13:42:25Z</time>
      </trkpt>
      <trkpt lat="45.69486" lon="6.79069">
        <ele>2543.05</ele>
        <time>2017-02-19T13:42:33Z</time>
      </trkpt>
      <trkpt lat="45.69472" lon="6.79076">
        <ele>2541.58</ele>
        <time>2017-02-19T13:42:35Z</time>
      </trkpt>
      <trkpt lat="45.69459" lon="6.79079">
        <ele>2538.82</ele>
        <time>2017-02-19T13:42:38Z</time>
      </trkpt>
      <trkpt lat="45.69451" lon="6.79079">
        <ele>2537.23</ele>
        <time>2017-02-19T13:42:40Z</time>
      </trkpt>
      <trkpt lat="45.69436" lon="6.79074">
        <ele>2534.03</ele>
        <time>2017-02-19T13:42:47Z</time>
      </trkpt>
      <trkpt lat="45.69434" lon="6.79074">
        <ele>2533.37</ele>
        <time>2017-02-19T13:42:48Z</time>
      </trkpt>
      <trkpt lat="45.69407" lon="6.7908">
        <ele>2530.31</ele>
        <time>2017-02-19T13:42:55Z</time>
      </trkpt>
      <trkpt lat="45.69381" lon="6.79086">
        <ele>2527.94</ele>
        <time>2017-02-19T13:42:59Z</time>
      </trkpt>
      <trkpt lat="45.69355" lon="6.79078">
        <ele>2523.84</ele>
        <time>2017-02-19T13:43:03Z</time>
      </trkpt>
      <trkpt lat="45.6934" lon="6.79073">
        <ele>2520.42</ele>
        <time>2017-02-19T13:43:06Z</time>
      </trkpt>
      <trkpt lat="45.69333" lon="6.79072">
        <ele>2519.26</ele>
        <time>2017-02-19T13:43:08Z</time>
      </trkpt>
      <trkpt lat="45.69326" lon="6.79074">
        <ele>2518.3</ele>
        <time>2017-02-19T13:43:18Z</time>
      </trkpt>
      <trkpt lat="45.6932" lon="6.79075">
        <ele>2518.95</ele>
        <time>2017-02-19T13:43:30Z</time>
      </trkpt>
      <trkpt lat="45.69319" lon="6.79072">
        <ele>2518.57</ele>
        <time>2017-02-19T13:43:44Z</time>
      </trkpt>
      <trkpt lat="45.69316" lon="6.79066">
        <ele>2518.61</ele>
        <time>2017-02-19T13:44:16Z</time>
      </trkpt>
      <trkpt lat="45.69309" lon="6.79065">
        <ele>2518.33</ele>
        <time>2017-02-19T13:44:26Z</time>
      </trkpt>
      <trkpt lat="45.693" lon="6.79063">
        <ele>2518.22</ele>
        <time>2017-02-19T13:44:30Z</time>
      </trkpt>
      <trkpt lat="45.69264" lon="6.79058">
        <ele>2516.31</ele>
        <time>2017-02-19T13:44:36Z</time>
      </trkpt>
      <trkpt lat="45.69232" lon="6.79054">
        <ele>2512.41</ele>
        <time>2017-02-19T13:44:43Z</time>
      </trkpt>
      <trkpt lat="45.69222" lon="6.79051">
        <ele>2511.15</ele>
        <time>2017-02-19T13:44:46Z</time>
      </trkpt>
      <trkpt lat="45.692" lon="6.7905">
        <ele>2509.46</ele>
        <time>2017-02-19T13:44:50Z</time>
      </trkpt>
      <trkpt lat="45.69175" lon="6.79063">
        <ele>2505.53</ele>
        <time>2017-02-19T13:44:57Z</time>
      </trkpt>
      <trkpt lat="45.69172" lon="6.79066">
        <ele>2505.12</ele>
        <time>2017-02-19T13:44:58Z</time>
      </trkpt>
      <trkpt lat="45.69164" lon="6.79072">
        <ele>2504.27</ele>
        <time>2017-02-19T13:45:00Z</time>
      </trkpt>
      <trkpt lat="45.69156" lon="6.79075">
        <ele>2501.92</ele>
        <time>2017-02-19T13:45:08Z</time>
      </trkpt>
      <trkpt lat="45.69154" lon="6.79078">
        <ele>2501.5</ele>
        <time>2017-02-19T13:45:11Z</time>
      </trkpt>
      <trkpt lat="45.69142" lon="6.79117">
        <ele>2500.49</ele>
        <time>2017-02-19T13:45:17Z</time>
      </trkpt>
      <trkpt lat="45.69117" lon="6.79136">
        <ele>2497.43</ele>
        <time>2017-02-19T13:45:20Z</time>
      </trkpt>
      <trkpt lat="45.69103" lon="6.79141">
        <ele>2493.9</ele>
        <time>2017-02-19T13:45:22Z</time>
      </trkpt>
      <trkpt lat="45.69066" lon="6.79158">
        <ele>2487.88</ele>
        <time>2017-02-19T13:45:28Z</time>
      </trkpt>
      <trkpt lat="45.69051" lon="6.79166">
        <ele>2486.39</ele>
        <time>2017-02-19T13:45:30Z</time>
      </trkpt>
      <trkpt lat="45.69039" lon="6.79174">
        <ele>2484.37</ele>
        <time>2017-02-19T13:45:32Z</time>
      </trkpt>
      <trkpt lat="45.69023" lon="6.79193">
        <ele>2480.67</ele>
        <time>2017-02-19T13:45:35Z</time>
      </trkpt>
      <trkpt lat="45.69004" lon="6.792">
        <ele>2476.44</ele>
        <time>2017-02-19T13:45:39Z</time>
      </trkpt>
      <trkpt lat="45.69001" lon="6.79199">
        <ele>2474.63</ele>
        <time>2017-02-19T13:45:41Z</time>
      </trkpt>
      <trkpt lat="45.68996" lon="6.79198">
        <ele>2471.4</ele>
        <time>2017-02-19T13:45:55Z</time>
      </trkpt>
      <trkpt lat="45.68996" lon="6.79198">
        <ele>2471.22</ele>
        <time>2017-02-19T13:46:00Z</time>
      </trkpt>
      <trkpt lat="45.6899" lon="6.79197">
        <ele>2471.06</ele>
        <time>2017-02-19T13:46:04Z</time>
      </trkpt>
      <trkpt lat="45.68966" lon="6.79186">
        <ele>2468.91</ele>
        <time>2017-02-19T13:46:11Z</time>
      </trkpt>
      <trkpt lat="45.68942" lon="6.79178">
        <ele>2465.4</ele>
        <time>2017-02-19T13:46:17Z</time>
      </trkpt>
      <trkpt lat="45.68934" lon="6.79175">
        <ele>2464.19</ele>
        <time>2017-02-19T13:46:19Z</time>
      </trkpt>
      <trkpt lat="45.6892" lon="6.79179">
        <ele>2461.23</ele>
        <time>2017-02-19T13:46:25Z</time>
      </trkpt>
      <trkpt lat="45.68917" lon="6.79181">
        <ele>2460.93</ele>
        <time>2017-02-19T13:46:26Z</time>
      </trkpt>
      <trkpt lat="45.68895" lon="6.79191">
        <ele>2458.27</ele>
        <time>2017-02-19T13:46:36Z</time>
      </trkpt>
      <trkpt lat="45.68863" lon="6.79186">
        <ele>2455.03</ele>
        <time>2017-02-19T13:46:47Z</time>
      </trkpt>
      <trkpt lat="45.68856" lon="6.79185">
        <ele>2453.72</ele>
        <time>2017-02-19T13:46:50Z</time>
      </trkpt>
      <trkpt lat="45.68841" lon="6.79177">
        <ele>2450.6</ele>
        <time>2017-02-19T13:46:58Z</time>
      </trkpt>
      <trkpt lat="45.68825" lon="6.79153">
        <ele>2448.01</ele>
        <time>2017-02-19T13:47:07Z</time>
      </trkpt>
      <trkpt lat="45.68819" lon="6.79146">
        <ele>2445.49</ele>
        <time>2017-02-19T13:47:15Z</time>
      </trkpt>
      <trkpt lat="45.68818" lon="6.79147">
        <ele>2445.21</ele>
        <time>2017-02-19T13:47:34Z</time>
      </trkpt>
      <trkpt lat="45.68816" lon="6.79139">
        <ele>2445.25</ele>
        <time>2017-02-19T13:47:54Z</time>
      </trkpt>
      <trkpt lat="45.68811" lon="6.79127">
        <ele>2444.93</ele>
        <time>2017-02-19T13:47:59Z</time>
      </trkpt>
      <trkpt lat="45.68795" lon="6.79108">
        <ele>2443.92</ele>
        <time>2017-02-19T13:48:03Z</time>
      </trkpt>
      <trkpt lat="45.6878" lon="6.79102">
        <ele>2440.31</ele>
        <time>2017-02-19T13:48:09Z</time>
      </trkpt>
      <trkpt lat="45.68761" lon="6.79107">
        <ele>2438.62</ele>
        <time>2017-02-19T13:48:19Z</time>
      </trkpt>
      <trkpt lat="45.68739" lon="6.79117">
        <ele>2437.35</ele>
        <time>2017-02-19T13:48:28Z</time>
      </trkpt>
      <trkpt lat="45.68711" lon="6.79129">
        <ele>2434.23</ele>
        <time>2017-02-19T13:48:35Z</time>
      </trkpt>
      <trkpt lat="45.68693" lon="6.79138">
        <ele>2432.21</ele>
        <time>2017-02-19T13:48:39Z</time>
      </trkpt>
      <trkpt lat="45.68672" lon="6.79151">
        <ele>2428</ele>
        <time>2017-02-19T13:48:45Z</time>
      </trkpt>
      <trkpt lat="45.68659" lon="6.7916">
        <ele>2424.55</ele>
        <time>2017-02-19T13:48:51Z</time>
      </trkpt>
      <trkpt lat="45.68644" lon="6.79168">
        <ele>2421.13</ele>
        <time>2017-02-19T13:48:58Z</time>
      </trkpt>
      <trkpt lat="45.68619" lon="6.7918">
        <ele>2417.68</ele>
        <time>2017-02-19T13:49:05Z</time>
      </trkpt>
      <trkpt lat="45.68603" lon="6.79193">
        <ele>2414.67</ele>
        <time>2017-02-19T13:49:09Z</time>
      </trkpt>
      <trkpt lat="45.68587" lon="6.79207">
        <ele>2411.2</ele>
        <time>2017-02-19T13:49:13Z</time>
      </trkpt>
      <trkpt lat="45.68579" lon="6.79216">
        <ele>2407.62</ele>
        <time>2017-02-19T13:49:17Z</time>
      </trkpt>
      <trkpt lat="45.68569" lon="6.79227">
        <ele>2404.39</ele>
        <time>2017-02-19T13:49:22Z</time>
      </trkpt>
      <trkpt lat="45.68555" lon="6.79247">
        <ele>2401.38</ele>
        <time>2017-02-19T13:49:29Z</time>
      </trkpt>
      <trkpt lat="45.68542" lon="6.79273">
        <ele>2399.38</ele>
        <time>2017-02-19T13:49:34Z</time>
      </trkpt>
      <trkpt lat="45.68514" lon="6.79306">
        <ele>2395.25</ele>
        <time>2017-02-19T13:49:39Z</time>
      </trkpt>
      <trkpt lat="45.68496" lon="6.79326">
        <ele>2390.81</ele>
        <time>2017-02-19T13:49:43Z</time>
      </trkpt>
      <trkpt lat="45.68494" lon="6.79329">
        <ele>2390.21</ele>
        <time>2017-02-19T13:49:44Z</time>
      </trkpt>
      <trkpt lat="45.68492" lon="6.79333">
        <ele>2389.36</ele>
        <time>2017-02-19T13:49:46Z</time>
      </trkpt>
      <trkpt lat="45.6848" lon="6.79339">
        <ele>2389.56</ele>
        <time>2017-02-19T13:50:02Z</time>
      </trkpt>
      <trkpt lat="45.68479" lon="6.79339">
        <ele>2389.71</ele>
        <time>2017-02-19T13:50:05Z</time>
      </trkpt>
      <trkpt lat="45.68477" lon="6.79339">
        <ele>2389.5</ele>
        <time>2017-02-19T13:50:26Z</time>
      </trkpt>
      <trkpt lat="45.68477" lon="6.79338">
        <ele>2389.02</ele>
        <time>2017-02-19T13:50:38Z</time>
      </trkpt>
      <trkpt lat="45.68475" lon="6.79337">
        <ele>2389.15</ele>
        <time>2017-02-19T13:51:10Z</time>
      </trkpt>
      <trkpt lat="45.6847" lon="6.79336">
        <ele>2389.22</ele>
        <time>2017-02-19T13:51:22Z</time>
      </trkpt>
      <trkpt lat="45.68458" lon="6.79339">
        <ele>2388.69</ele>
        <time>2017-02-19T13:51:28Z</time>
      </trkpt>
      <trkpt lat="45.68441" lon="6.79344">
        <ele>2386.52</ele>
        <time>2017-02-19T13:51:32Z</time>
      </trkpt>
      <trkpt lat="45.68422" lon="6.79342">
        <ele>2382.02</ele>
        <time>2017-02-19T13:51:36Z</time>
      </trkpt>
      <trkpt lat="45.68407" lon="6.79342">
        <ele>2379.11</ele>
        <time>2017-02-19T13:51:39Z</time>
      </trkpt>
      <trkpt lat="45.68385" lon="6.79338">
        <ele>2376.2</ele>
        <time>2017-02-19T13:51:43Z</time>
      </trkpt>
      <trkpt lat="45.68367" lon="6.79335">
        <ele>2372.81</ele>
        <time>2017-02-19T13:51:46Z</time>
      </trkpt>
      <trkpt lat="45.68361" lon="6.79335">
        <ele>2371.81</ele>
        <time>2017-02-19T13:51:47Z</time>
      </trkpt>
      <trkpt lat="45.68338" lon="6.7933">
        <ele>2367.14</ele>
        <time>2017-02-19T13:51:52Z</time>
      </trkpt>
      <trkpt lat="45.68328" lon="6.79325">
        <ele>2365.72</ele>
        <time>2017-02-19T13:51:54Z</time>
      </trkpt>
      <trkpt lat="45.68318" lon="6.7932">
        <ele>2364.22</ele>
        <time>2017-02-19T13:51:56Z</time>
      </trkpt>
      <trkpt lat="45.68298" lon="6.79305">
        <ele>2360.73</ele>
        <time>2017-02-19T13:52:00Z</time>
      </trkpt>
      <trkpt lat="45.68277" lon="6.7929">
        <ele>2355.76</ele>
        <time>2017-02-19T13:52:05Z</time>
      </trkpt>
      <trkpt lat="45.68267" lon="6.79282">
        <ele>2353.57</ele>
        <time>2017-02-19T13:52:08Z</time>
      </trkpt>
      <trkpt lat="45.68255" lon="6.79293">
        <ele>2350.27</ele>
        <time>2017-02-19T13:52:12Z</time>
      </trkpt>
      <trkpt lat="45.68242" lon="6.79306">
        <ele>2346.56</ele>
        <time>2017-02-19T13:52:15Z</time>
      </trkpt>
      <trkpt lat="45.68234" lon="6.79316">
        <ele>2343.48</ele>
        <time>2017-02-19T13:52:17Z</time>
      </trkpt>
      <trkpt lat="45.68229" lon="6.79328">
        <ele>2340.15</ele>
        <time>2017-02-19T13:52:19Z</time>
      </trkpt>
      <trkpt lat="45.6822" lon="6.79333">
        <ele>2337.02</ele>
        <time>2017-02-19T13:52:21Z</time>
      </trkpt>
      <trkpt lat="45.68214" lon="6.79345">
        <ele>2333.83</ele>
        <time>2017-02-19T13:52:23Z</time>
      </trkpt>
      <trkpt lat="45.68208" lon="6.79347">
        <ele>2332.39</ele>
        <time>2017-02-19T13:52:24Z</time>
      </trkpt>
      <trkpt lat="45.68185" lon="6.79353">
        <ele>2327.56</ele>
        <time>2017-02-19T13:52:27Z</time>
      </trkpt>
      <trkpt lat="45.68168" lon="6.79362">
        <ele>2322.71</ele>
        <time>2017-02-19T13:52:30Z</time>
      </trkpt>
      <trkpt lat="45.68155" lon="6.79368">
        <ele>2318.92</ele>
        <time>2017-02-19T13:52:33Z</time>
      </trkpt>
      <trkpt lat="45.68123" lon="6.79371">
        <ele>2313.12</ele>
        <time>2017-02-19T13:52:38Z</time>
      </trkpt>
      <trkpt lat="45.68107" lon="6.79375">
        <ele>2310.23</ele>
        <time>2017-02-19T13:52:41Z</time>
      </trkpt>
      <trkpt lat="45.68089" lon="6.79375">
        <ele>2307.99</ele>
        <time>2017-02-19T13:52:44Z</time>
      </trkpt>
      <trkpt lat="45.68069" lon="6.79377">
        <ele>2304.29</ele>
        <time>2017-02-19T13:52:48Z</time>
      </trkpt>
      <trkpt lat="45.68063" lon="6.79375">
        <ele>2300.03</ele>
        <time>2017-02-19T13:52:53Z</time>
      </trkpt>
      <trkpt lat="45.68062" lon="6.79375">
        <ele>2297.55</ele>
        <time>2017-02-19T13:53:02Z</time>
      </trkpt>
      <trkpt lat="45.6805" lon="6.79373">
        <ele>2297.3</ele>
        <time>2017-02-19T13:53:06Z</time>
      </trkpt>
      <trkpt lat="45.68017" lon="6.79359">
        <ele>2293.49</ele>
        <time>2017-02-19T13:53:13Z</time>
      </trkpt>
      <trkpt lat="45.68005" lon="6.79354">
        <ele>2290.44</ele>
        <time>2017-02-19T13:53:18Z</time>
      </trkpt>
      <trkpt lat="45.68004" lon="6.79353">
        <ele>2287.96</ele>
        <time>2017-02-19T13:53:29Z</time>
      </trkpt>
      <trkpt lat="45.68004" lon="6.79352">
        <ele>2287.65</ele>
        <time>2017-02-19T13:53:49Z</time>
      </trkpt>
      <trkpt lat="45.67999" lon="6.79347">
        <ele>2287.68</ele>
        <time>2017-02-19T13:53:52Z</time>
      </trkpt>
      <trkpt lat="45.6798" lon="6.79325">
        <ele>2285.28</ele>
        <time>2017-02-19T13:54:00Z</time>
      </trkpt>
      <trkpt lat="45.67971" lon="6.79315">
        <ele>2284.47</ele>
        <time>2017-02-19T13:54:02Z</time>
      </trkpt>
      <trkpt lat="45.67963" lon="6.79305">
        <ele>2283.29</ele>
        <time>2017-02-19T13:54:04Z</time>
      </trkpt>
      <trkpt lat="45.67941" lon="6.7929">
        <ele>2280.16</ele>
        <time>2017-02-19T13:54:09Z</time>
      </trkpt>
      <trkpt lat="45.6793" lon="6.79278">
        <ele>2277.99</ele>
        <time>2017-02-19T13:54:11Z</time>
      </trkpt>
      <trkpt lat="45.67924" lon="6.79274">
        <ele>2276.76</ele>
        <time>2017-02-19T13:54:12Z</time>
      </trkpt>
      <trkpt lat="45.67902" lon="6.79264">
        <ele>2269.99</ele>
        <time>2017-02-19T13:54:16Z</time>
      </trkpt>
      <trkpt lat="45.67898" lon="6.79258">
        <ele>2268.67</ele>
        <time>2017-02-19T13:54:17Z</time>
      </trkpt>
      <trkpt lat="45.67875" lon="6.79248">
        <ele>2264.06</ele>
        <time>2017-02-19T13:54:21Z</time>
      </trkpt>
      <trkpt lat="45.67861" lon="6.7924">
        <ele>2260.97</ele>
        <time>2017-02-19T13:54:23Z</time>
      </trkpt>
      <trkpt lat="45.67831" lon="6.79243">
        <ele>2255.39</ele>
        <time>2017-02-19T13:54:27Z</time>
      </trkpt>
      <trkpt lat="45.6782" lon="6.79246">
        <ele>2251.97</ele>
        <time>2017-02-19T13:54:29Z</time>
      </trkpt>
      <trkpt lat="45.67814" lon="6.79244">
        <ele>2250.22</ele>
        <time>2017-02-19T13:54:30Z</time>
      </trkpt>
      <trkpt lat="45.67796" lon="6.79236">
        <ele>2245.38</ele>
        <time>2017-02-19T13:54:33Z</time>
      </trkpt>
      <trkpt lat="45.6779" lon="6.79234">
        <ele>2244.18</ele>
        <time>2017-02-19T13:54:34Z</time>
      </trkpt>
      <trkpt lat="45.67764" lon="6.79233">
        <ele>2240.16</ele>
        <time>2017-02-19T13:54:38Z</time>
      </trkpt>
      <trkpt lat="45.67753" lon="6.79225">
        <ele>2236.63</ele>
        <time>2017-02-19T13:54:40Z</time>
      </trkpt>
      <trkpt lat="45.67738" lon="6.79225">
        <ele>2233.43</ele>
        <time>2017-02-19T13:54:43Z</time>
      </trkpt>
      <trkpt lat="45.67727" lon="6.7922">
        <ele>2230.83</ele>
        <time>2017-02-19T13:54:45Z</time>
      </trkpt>
      <trkpt lat="45.67711" lon="6.79203">
        <ele>2226.26</ele>
        <time>2017-02-19T13:54:49Z</time>
      </trkpt>
      <trkpt lat="45.67701" lon="6.79194">
        <ele>2224.39</ele>
        <time>2017-02-19T13:54:51Z</time>
      </trkpt>
      <trkpt lat="45.67682" lon="6.79166">
        <ele>2220.31</ele>
        <time>2017-02-19T13:54:56Z</time>
      </trkpt>
      <trkpt lat="45.67667" lon="6.7915">
        <ele>2218</ele>
        <time>2017-02-19T13:54:59Z</time>
      </trkpt>
      <trkpt lat="45.67642" lon="6.79146">
        <ele>2213.83</ele>
        <time>2017-02-19T13:55:03Z</time>
      </trkpt>
      <trkpt lat="45.67622" lon="6.79159">
        <ele>2207.54</ele>
        <time>2017-02-19T13:55:07Z</time>
      </trkpt>
      <trkpt lat="45.67615" lon="6.7916">
        <ele>2205.91</ele>
        <time>2017-02-19T13:55:08Z</time>
      </trkpt>
      <trkpt lat="45.67597" lon="6.79161">
        <ele>2200.21</ele>
        <time>2017-02-19T13:55:11Z</time>
      </trkpt>
      <trkpt lat="45.67579" lon="6.79164">
        <ele>2195.1</ele>
        <time>2017-02-19T13:55:14Z</time>
      </trkpt>
      <trkpt lat="45.67568" lon="6.79165">
        <ele>2191.43</ele>
        <time>2017-02-19T13:55:16Z</time>
      </trkpt>
      <trkpt lat="45.67545" lon="6.7917">
        <ele>2184.12</ele>
        <time>2017-02-19T13:55:20Z</time>
      </trkpt>
      <trkpt lat="45.67539" lon="6.79169">
        <ele>2182.19</ele>
        <time>2017-02-19T13:55:21Z</time>
      </trkpt>
      <trkpt lat="45.67525" lon="6.79165">
        <ele>2178.51</ele>
        <time>2017-02-19T13:55:23Z</time>
      </trkpt>
      <trkpt lat="45.6751" lon="6.79158">
        <ele>2172.89</ele>
        <time>2017-02-19T13:55:25Z</time>
      </trkpt>
      <trkpt lat="45.67493" lon="6.79151">
        <ele>2169.22</ele>
        <time>2017-02-19T13:55:27Z</time>
      </trkpt>
      <trkpt lat="45.67485" lon="6.79147">
        <ele>2169.22</ele>
        <time>2017-02-19T13:55:28Z</time>
      </trkpt>
      <trkpt lat="45.67478" lon="6.79145">
        <ele>2165.52</ele>
        <time>2017-02-19T13:55:29Z</time>
      </trkpt>
      <trkpt lat="45.67463" lon="6.79139">
        <ele>2162.02</ele>
        <time>2017-02-19T13:55:31Z</time>
      </trkpt>
      <trkpt lat="45.67451" lon="6.7913">
        <ele>2158.79</ele>
        <time>2017-02-19T13:55:33Z</time>
      </trkpt>
      <trkpt lat="45.67421" lon="6.79112">
        <ele>2154.11</ele>
        <time>2017-02-19T13:55:37Z</time>
      </trkpt>
      <trkpt lat="45.67394" lon="6.79096">
        <ele>2149.74</ele>
        <time>2017-02-19T13:55:41Z</time>
      </trkpt>
      <trkpt lat="45.67382" lon="6.79077">
        <ele>2145.51</ele>
        <time>2017-02-19T13:55:45Z</time>
      </trkpt>
      <trkpt lat="45.67373" lon="6.79062">
        <ele>2142.14</ele>
        <time>2017-02-19T13:55:49Z</time>
      </trkpt>
      <trkpt lat="45.67358" lon="6.79051">
        <ele>2140.31</ele>
        <time>2017-02-19T13:55:52Z</time>
      </trkpt>
      <trkpt lat="45.67328" lon="6.79034">
        <ele>2136.58</ele>
        <time>2017-02-19T13:55:57Z</time>
      </trkpt>
      <trkpt lat="45.67308" lon="6.79038">
        <ele>2131.84</ele>
        <time>2017-02-19T13:56:01Z</time>
      </trkpt>
      <trkpt lat="45.67299" lon="6.79049">
        <ele>2127.8</ele>
        <time>2017-02-19T13:56:04Z</time>
      </trkpt>
      <trkpt lat="45.6729" lon="6.79053">
        <ele>2124.72</ele>
        <time>2017-02-19T13:56:06Z</time>
      </trkpt>
      <trkpt lat="45.67288" lon="6.79063">
        <ele>2121.37</ele>
        <time>2017-02-19T13:56:08Z</time>
      </trkpt>
      <trkpt lat="45.67282" lon="6.79065">
        <ele>2118.24</ele>
        <time>2017-02-19T13:56:10Z</time>
      </trkpt>
      <trkpt lat="45.67278" lon="6.79066">
        <ele>2114.23</ele>
        <time>2017-02-19T13:56:13Z</time>
      </trkpt>
      <trkpt lat="45.67276" lon="6.79068">
        <ele>2110.92</ele>
        <time>2017-02-19T13:56:16Z</time>
      </trkpt>
      <trkpt lat="45.67276" lon="6.79069">
        <ele>2107.66</ele>
        <time>2017-02-19T13:56:20Z</time>
      </trkpt>
      <trkpt lat="45.67273" lon="6.79075">
        <ele>2106.06</ele>
        <time>2017-02-19T13:56:45Z</time>
      </trkpt>
      <trkpt lat="45.67275" lon="6.79076">
        <ele>2106.3</ele>
        <time>2017-02-19T13:57:06Z</time>
      </trkpt>
      <trkpt lat="45.67276" lon="6.79075">
        <ele>2106.34</ele>
        <time>2017-02-19T13:57:17Z</time>
      </trkpt>
      <trkpt lat="45.67275" lon="6.79076">
        <ele>2106.31</ele>
        <time>2017-02-19T13:57:27Z</time>
      </trkpt>
      <trkpt lat="45.67275" lon="6.79077">
        <ele>2106.37</ele>
        <time>2017-02-19T13:57:28Z</time>
      </trkpt>
      <trkpt lat="45.67269" lon="6.79096">
        <ele>2106.16</ele>
        <time>2017-02-19T13:57:33Z</time>
      </trkpt>
      <trkpt lat="45.67264" lon="6.79116">
        <ele>2103.31</ele>
        <time>2017-02-19T13:57:37Z</time>
      </trkpt>
      <trkpt lat="45.6725" lon="6.79124">
        <ele>2099.42</ele>
        <time>2017-02-19T13:57:40Z</time>
      </trkpt>
      <trkpt lat="45.67243" lon="6.79136">
        <ele>2096.05</ele>
        <time>2017-02-19T13:57:42Z</time>
      </trkpt>
      <trkpt lat="45.67232" lon="6.79139">
        <ele>2092.88</ele>
        <time>2017-02-19T13:57:44Z</time>
      </trkpt>
      <trkpt lat="45.6722" lon="6.7914">
        <ele>2089.13</ele>
        <time>2017-02-19T13:57:46Z</time>
      </trkpt>
      <trkpt lat="45.67213" lon="6.79152">
        <ele>2085.65</ele>
        <time>2017-02-19T13:57:48Z</time>
      </trkpt>
      <trkpt lat="45.67199" lon="6.79153">
        <ele>2081.22</ele>
        <time>2017-02-19T13:57:51Z</time>
      </trkpt>
      <trkpt lat="45.67191" lon="6.79161">
        <ele>2077.69</ele>
        <time>2017-02-19T13:57:53Z</time>
      </trkpt>
      <trkpt lat="45.6718" lon="6.79157">
        <ele>2073.99</ele>
        <time>2017-02-19T13:57:55Z</time>
      </trkpt>
      <trkpt lat="45.67169" lon="6.7916">
        <ele>2067.83</ele>
        <time>2017-02-19T13:57:57Z</time>
      </trkpt>
      <trkpt lat="45.67161" lon="6.79154">
        <ele>2064.31</ele>
        <time>2017-02-19T13:57:59Z</time>
      </trkpt>
      <trkpt lat="45.67153" lon="6.79151">
        <ele>2060.19</ele>
        <time>2017-02-19T13:58:01Z</time>
      </trkpt>
      <trkpt lat="45.67147" lon="6.7916">
        <ele>2056.82</ele>
        <time>2017-02-19T13:58:03Z</time>
      </trkpt>
      <trkpt lat="45.67128" lon="6.79162">
        <ele>2053.65</ele>
        <time>2017-02-19T13:58:05Z</time>
      </trkpt>
      <trkpt lat="45.67095" lon="6.79166">
        <ele>2044.29</ele>
        <time>2017-02-19T13:58:09Z</time>
      </trkpt>
      <trkpt lat="45.67081" lon="6.79173">
        <ele>2039.96</ele>
        <time>2017-02-19T13:58:11Z</time>
      </trkpt>
      <trkpt lat="45.67074" lon="6.79174">
        <ele>2038.05</ele>
        <time>2017-02-19T13:58:12Z</time>
      </trkpt>
      <trkpt lat="45.67059" lon="6.79175">
        <ele>2034.58</ele>
        <time>2017-02-19T13:58:14Z</time>
      </trkpt>
      <trkpt lat="45.67035" lon="6.7917">
        <ele>2029.27</ele>
        <time>2017-02-19T13:58:18Z</time>
      </trkpt>
      <trkpt lat="45.6702" lon="6.79185">
        <ele>2024.62</ele>
        <time>2017-02-19T13:58:21Z</time>
      </trkpt>
      <trkpt lat="45.67005" lon="6.79202">
        <ele>2019.9</ele>
        <time>2017-02-19T13:58:24Z</time>
      </trkpt>
      <trkpt lat="45.66992" lon="6.79206">
        <ele>2016.23</ele>
        <time>2017-02-19T13:58:26Z</time>
      </trkpt>
      <trkpt lat="45.66978" lon="6.79205">
        <ele>2011.83</ele>
        <time>2017-02-19T13:58:28Z</time>
      </trkpt>
      <trkpt lat="45.66973" lon="6.79201">
        <ele>2009.64</ele>
        <time>2017-02-19T13:58:29Z</time>
      </trkpt>
      <trkpt lat="45.66958" lon="6.79187">
        <ele>2002.73</ele>
        <time>2017-02-19T13:58:33Z</time>
      </trkpt>
      <trkpt lat="45.66942" lon="6.79175">
        <ele>1999.58</ele>
        <time>2017-02-19T13:58:36Z</time>
      </trkpt>
      <trkpt lat="45.66937" lon="6.7917">
        <ele>1998.52</ele>
        <time>2017-02-19T13:58:37Z</time>
      </trkpt>
      <trkpt lat="45.66927" lon="6.79158">
        <ele>1995.22</ele>
        <time>2017-02-19T13:58:40Z</time>
      </trkpt>
      <trkpt lat="45.66917" lon="6.79164">
        <ele>1991.08</ele>
        <time>2017-02-19T13:58:45Z</time>
      </trkpt>
      <trkpt lat="45.66918" lon="6.79163">
        <ele>1988.01</ele>
        <time>2017-02-19T13:58:49Z</time>
      </trkpt>
      <trkpt lat="45.66918" lon="6.79162">
        <ele>1987.4</ele>
        <time>2017-02-19T13:58:50Z</time>
      </trkpt>
      <trkpt lat="45.66924" lon="6.7916">
        <ele>1985.56</ele>
        <time>2017-02-19T13:59:25Z</time>
      </trkpt>
      <trkpt lat="45.66924" lon="6.79159">
        <ele>1985.88</ele>
        <time>2017-02-19T13:59:35Z</time>
      </trkpt>
      <trkpt lat="45.6691" lon="6.79167">
        <ele>1986.18</ele>
        <time>2017-02-19T13:59:40Z</time>
      </trkpt>
      <trkpt lat="45.66902" lon="6.79166">
        <ele>1985.71</ele>
        <time>2017-02-19T13:59:42Z</time>
      </trkpt>
      <trkpt lat="45.66888" lon="6.79178">
        <ele>1978.79</ele>
        <time>2017-02-19T13:59:47Z</time>
      </trkpt>
      <trkpt lat="45.66877" lon="6.79187">
        <ele>1974.58</ele>
        <time>2017-02-19T13:59:50Z</time>
      </trkpt>
      <trkpt lat="45.66869" lon="6.79197">
        <ele>1971.64</ele>
        <time>2017-02-19T13:59:52Z</time>
      </trkpt>
      <trkpt lat="45.66853" lon="6.79212">
        <ele>1962.96</ele>
        <time>2017-02-19T13:59:56Z</time>
      </trkpt>
      <trkpt lat="45.66842" lon="6.79212">
        <ele>1958.73</ele>
        <time>2017-02-19T13:59:58Z</time>
      </trkpt>
      <trkpt lat="45.66833" lon="6.79218">
        <ele>1954.33</ele>
        <time>2017-02-19T14:00:00Z</time>
      </trkpt>
      <trkpt lat="45.66832" lon="6.79229">
        <ele>1950.57</ele>
        <time>2017-02-19T14:00:02Z</time>
      </trkpt>
      <trkpt lat="45.66824" lon="6.79231">
        <ele>1947.34</ele>
        <time>2017-02-19T14:00:04Z</time>
      </trkpt>
      <trkpt lat="45.66814" lon="6.79233">
        <ele>1943.9</ele>
        <time>2017-02-19T14:00:06Z</time>
      </trkpt>
      <trkpt lat="45.66813" lon="6.79244">
        <ele>1938.96</ele>
        <time>2017-02-19T14:00:08Z</time>
      </trkpt>
      <trkpt lat="45.66808" lon="6.79251">
        <ele>1935.68</ele>
        <time>2017-02-19T14:00:10Z</time>
      </trkpt>
      <trkpt lat="45.66801" lon="6.7925">
        <ele>1932.38</ele>
        <time>2017-02-19T14:00:12Z</time>
      </trkpt>
      <trkpt lat="45.66801" lon="6.79257">
        <ele>1929.21</ele>
        <time>2017-02-19T14:00:14Z</time>
      </trkpt>
      <trkpt lat="45.668" lon="6.79258">
        <ele>1925.54</ele>
        <time>2017-02-19T14:00:17Z</time>
      </trkpt>
      <trkpt lat="45.668" lon="6.7926">
        <ele>1922.48</ele>
        <time>2017-02-19T14:00:21Z</time>
      </trkpt>
      <trkpt lat="45.66798" lon="6.7926">
        <ele>1919.83</ele>
        <time>2017-02-19T14:00:46Z</time>
      </trkpt>
      <trkpt lat="45.66797" lon="6.79261">
        <ele>1919.93</ele>
        <time>2017-02-19T14:01:05Z</time>
      </trkpt>
      <trkpt lat="45.6679" lon="6.79279">
        <ele>1919.18</ele>
        <time>2017-02-19T14:01:10Z</time>
      </trkpt>
      <trkpt lat="45.66777" lon="6.79295">
        <ele>1915.5</ele>
        <time>2017-02-19T14:01:14Z</time>
      </trkpt>
      <trkpt lat="45.6677" lon="6.7931">
        <ele>1911.31</ele>
        <time>2017-02-19T14:01:17Z</time>
      </trkpt>
      <trkpt lat="45.66758" lon="6.79315">
        <ele>1906.67</ele>
        <time>2017-02-19T14:01:20Z</time>
      </trkpt>
      <trkpt lat="45.66752" lon="6.79322">
        <ele>1903.04</ele>
        <time>2017-02-19T14:01:22Z</time>
      </trkpt>
      <trkpt lat="45.66752" lon="6.79328">
        <ele>1899.28</ele>
        <time>2017-02-19T14:01:23Z</time>
      </trkpt>
      <trkpt lat="45.66747" lon="6.79334">
        <ele>1895.61</ele>
        <time>2017-02-19T14:01:25Z</time>
      </trkpt>
      <trkpt lat="45.66741" lon="6.7934">
        <ele>1891.67</ele>
        <time>2017-02-19T14:01:27Z</time>
      </trkpt>
      <trkpt lat="45.66739" lon="6.79352">
        <ele>1887.94</ele>
        <time>2017-02-19T14:01:29Z</time>
      </trkpt>
      <trkpt lat="45.66731" lon="6.79354">
        <ele>1884.55</ele>
        <time>2017-02-19T14:01:31Z</time>
      </trkpt>
      <trkpt lat="45.66726" lon="6.79363">
        <ele>1880.87</ele>
        <time>2017-02-19T14:01:33Z</time>
      </trkpt>
      <trkpt lat="45.66719" lon="6.79366">
        <ele>1876.9</ele>
        <time>2017-02-19T14:01:35Z</time>
      </trkpt>
      <trkpt lat="45.66714" lon="6.79373">
        <ele>1872.78</ele>
        <time>2017-02-19T14:01:37Z</time>
      </trkpt>
      <trkpt lat="45.6671" lon="6.79381">
        <ele>1869.19</ele>
        <time>2017-02-19T14:01:39Z</time>
      </trkpt>
      <trkpt lat="45.66704" lon="6.79382">
        <ele>1865.85</ele>
        <time>2017-02-19T14:01:41Z</time>
      </trkpt>
      <trkpt lat="45.66704" lon="6.79383">
        <ele>1862.58</ele>
        <time>2017-02-19T14:01:43Z</time>
      </trkpt>
      <trkpt lat="45.66703" lon="6.79385">
        <ele>1858.82</ele>
        <time>2017-02-19T14:01:46Z</time>
      </trkpt>
      <trkpt lat="45.66702" lon="6.79387">
        <ele>1855.52</ele>
        <time>2017-02-19T14:01:52Z</time>
      </trkpt>
      <trkpt lat="45.6668" lon="6.79388">
        <ele>1853.4</ele>
        <time>2017-02-19T14:01:59Z</time>
      </trkpt>
      <trkpt lat="45.66673" lon="6.79398">
        <ele>1850.85</ele>
        <time>2017-02-19T14:02:03Z</time>
      </trkpt>
      <trkpt lat="45.66665" lon="6.79412">
        <ele>1847.1</ele>
        <time>2017-02-19T14:02:07Z</time>
      </trkpt>
      <trkpt lat="45.66657" lon="6.79411">
        <ele>1843.78</ele>
        <time>2017-02-19T14:02:10Z</time>
      </trkpt>
      <trkpt lat="45.6665" lon="6.79407">
        <ele>1841.75</ele>
        <time>2017-02-19T14:02:12Z</time>
      </trkpt>
      <trkpt lat="45.66641" lon="6.79402">
        <ele>1838.68</ele>
        <time>2017-02-19T14:02:15Z</time>
      </trkpt>
      <trkpt lat="45.66639" lon="6.79397">
        <ele>1836.83</ele>
        <time>2017-02-19T14:02:17Z</time>
      </trkpt>
      <trkpt lat="45.66629" lon="6.79406">
        <ele>1832.3</ele>
        <time>2017-02-19T14:02:23Z</time>
      </trkpt>
      <trkpt lat="45.66635" lon="6.79431">
        <ele>1827.07</ele>
        <time>2017-02-19T14:02:28Z</time>
      </trkpt>
      <trkpt lat="45.66623" lon="6.79435">
        <ele>1823.77</ele>
        <time>2017-02-19T14:02:32Z</time>
      </trkpt>
      <trkpt lat="45.66616" lon="6.79452">
        <ele>1819.45</ele>
        <time>2017-02-19T14:02:35Z</time>
      </trkpt>
      <trkpt lat="45.66606" lon="6.79456">
        <ele>1816.45</ele>
        <time>2017-02-19T14:02:37Z</time>
      </trkpt>
      <trkpt lat="45.666" lon="6.79467">
        <ele>1812.8</ele>
        <time>2017-02-19T14:02:39Z</time>
      </trkpt>
      <trkpt lat="45.6659" lon="6.79461">
        <ele>1809.22</ele>
        <time>2017-02-19T14:02:41Z</time>
      </trkpt>
      <trkpt lat="45.66584" lon="6.79467">
        <ele>1805.14</ele>
        <time>2017-02-19T14:02:43Z</time>
      </trkpt>
      <trkpt lat="45.66575" lon="6.79471">
        <ele>1801.27</ele>
        <time>2017-02-19T14:02:45Z</time>
      </trkpt>
      <trkpt lat="45.66567" lon="6.79475">
        <ele>1797.56</ele>
        <time>2017-02-19T14:02:47Z</time>
      </trkpt>
      <trkpt lat="45.66562" lon="6.79482">
        <ele>1793.81</ele>
        <time>2017-02-19T14:02:49Z</time>
      </trkpt>
      <trkpt lat="45.66557" lon="6.7948">
        <ele>1790.4</ele>
        <time>2017-02-19T14:02:51Z</time>
      </trkpt>
      <trkpt lat="45.66554" lon="6.79484">
        <ele>1787.25</ele>
        <time>2017-02-19T14:02:53Z</time>
      </trkpt>
      <trkpt lat="45.66552" lon="6.79488">
        <ele>1783.79</ele>
        <time>2017-02-19T14:02:56Z</time>
      </trkpt>
      <trkpt lat="45.66553" lon="6.79488">
        <ele>1780.07</ele>
        <time>2017-02-19T14:02:59Z</time>
      </trkpt>
      <trkpt lat="45.66557" lon="6.79494">
        <ele>1777.06</ele>
        <time>2017-02-19T14:03:13Z</time>
      </trkpt>
      <trkpt lat="45.66556" lon="6.79508">
        <ele>1776.59</ele>
        <time>2017-02-19T14:03:19Z</time>
      </trkpt>
      <trkpt lat="45.66554" lon="6.79507">
        <ele>1776.28</ele>
        <time>2017-02-19T14:03:20Z</time>
      </trkpt>
      <trkpt lat="45.66552" lon="6.79508">
        <ele>1775.47</ele>
        <time>2017-02-19T14:03:22Z</time>
      </trkpt>
      <trkpt lat="45.66551" lon="6.7953">
        <ele>1771.97</ele>
        <time>2017-02-19T14:03:29Z</time>
      </trkpt>
      <trkpt lat="45.66543" lon="6.79538">
        <ele>1769.08</ele>
        <time>2017-02-19T14:03:33Z</time>
      </trkpt>
      <trkpt lat="45.66539" lon="6.79541">
        <ele>1766.02</ele>
        <time>2017-02-19T14:03:36Z</time>
      </trkpt>
      <trkpt lat="45.66536" lon="6.79539">
        <ele>1762.59</ele>
        <time>2017-02-19T14:03:39Z</time>
      </trkpt>
      <trkpt lat="45.66531" lon="6.79554">
        <ele>1758.69</ele>
        <time>2017-02-19T14:03:44Z</time>
      </trkpt>
      <trkpt lat="45.66518" lon="6.79566">
        <ele>1754.01</ele>
        <time>2017-02-19T14:03:48Z</time>
      </trkpt>
      <trkpt lat="45.66507" lon="6.7957">
        <ele>1751</ele>
        <time>2017-02-19T14:03:50Z</time>
      </trkpt>
      <trkpt lat="45.66501" lon="6.79569">
        <ele>1749.05</ele>
        <time>2017-02-19T14:03:51Z</time>
      </trkpt>
      <trkpt lat="45.66482" lon="6.79564">
        <ele>1739.89</ele>
        <time>2017-02-19T14:03:55Z</time>
      </trkpt>
      <trkpt lat="45.66482" lon="6.79562">
        <ele>1735.39</ele>
        <time>2017-02-19T14:03:57Z</time>
      </trkpt>
      <trkpt lat="45.66483" lon="6.79562">
        <ele>1731.03</ele>
        <time>2017-02-19T14:03:59Z</time>
      </trkpt>
      <trkpt lat="45.66481" lon="6.79562">
        <ele>1728.12</ele>
        <time>2017-02-19T14:04:01Z</time>
      </trkpt>
      <trkpt lat="45.66475" lon="6.79554">
        <ele>1724.22</ele>
        <time>2017-02-19T14:04:06Z</time>
      </trkpt>
      <trkpt lat="45.66458" lon="6.79578">
        <ele>1719.32</ele>
        <time>2017-02-19T14:04:12Z</time>
      </trkpt>
      <trkpt lat="45.66458" lon="6.79579">
        <ele>1714.47</ele>
        <time>2017-02-19T14:04:15Z</time>
      </trkpt>
      <trkpt lat="45.66457" lon="6.7958">
        <ele>1711.47</ele>
        <time>2017-02-19T14:04:22Z</time>
      </trkpt>
      <trkpt lat="45.66457" lon="6.7958">
        <ele>1710.98</ele>
        <time>2017-02-19T14:04:29Z</time>
      </trkpt>
      <trkpt lat="45.66445" lon="6.79581">
        <ele>1710.67</ele>
        <time>2017-02-19T14:04:33Z</time>
      </trkpt>
      <trkpt lat="45.66436" lon="6.79593">
        <ele>1709.11</ele>
        <time>2017-02-19T14:04:36Z</time>
      </trkpt>
      <trkpt lat="45.66425" lon="6.79599">
        <ele>1706.25</ele>
        <time>2017-02-19T14:04:39Z</time>
      </trkpt>
      <trkpt lat="45.66424" lon="6.79605">
        <ele>1705</ele>
        <time>2017-02-19T14:04:40Z</time>
      </trkpt>
      <trkpt lat="45.66423" lon="6.79611">
        <ele>1703.71</ele>
        <time>2017-02-19T14:04:41Z</time>
      </trkpt>
      <trkpt lat="45.66422" lon="6.79616">
        <ele>1700.9</ele>
        <time>2017-02-19T14:04:42Z</time>
      </trkpt>
      <trkpt lat="45.66421" lon="6.79621">
        <ele>1699.45</ele>
        <time>2017-02-19T14:04:43Z</time>
      </trkpt>
      <trkpt lat="45.66418" lon="6.79623">
        <ele>1698.12</ele>
        <time>2017-02-19T14:04:44Z</time>
      </trkpt>
      <trkpt lat="45.66413" lon="6.79624">
        <ele>1696.75</ele>
        <time>2017-02-19T14:04:45Z</time>
      </trkpt>
      <trkpt lat="45.66408" lon="6.79635">
        <ele>1693.52</ele>
        <time>2017-02-19T14:04:47Z</time>
      </trkpt>
      <trkpt lat="45.66408" lon="6.79641">
        <ele>1691.82</ele>
        <time>2017-02-19T14:04:48Z</time>
      </trkpt>
      <trkpt lat="45.66407" lon="6.79648">
        <ele>1690.14</ele>
        <time>2017-02-19T14:04:49Z</time>
      </trkpt>
      <trkpt lat="45.66405" lon="6.79653">
        <ele>1688.43</ele>
        <time>2017-02-19T14:04:50Z</time>
      </trkpt>
      <trkpt lat="45.66398" lon="6.79655">
        <ele>1685.16</ele>
        <time>2017-02-19T14:04:52Z</time>
      </trkpt>
      <trkpt lat="45.66391" lon="6.79662">
        <ele>1681.69</ele>
        <time>2017-02-19T14:04:54Z</time>
      </trkpt>
      <trkpt lat="45.66384" lon="6.7967">
        <ele>1678.33</ele>
        <time>2017-02-19T14:04:56Z</time>
      </trkpt>
      <trkpt lat="45.66386" lon="6.79682">
        <ele>1674.71</ele>
        <time>2017-02-19T14:04:58Z</time>
      </trkpt>
      <trkpt lat="45.66388" lon="6.79686">
        <ele>1672.95</ele>
        <time>2017-02-19T14:04:59Z</time>
      </trkpt>
      <trkpt lat="45.66389" lon="6.79691">
        <ele>1671.27</ele>
        <time>2017-02-19T14:05:00Z</time>
      </trkpt>
      <trkpt lat="45.66389" lon="6.79696">
        <ele>1669.71</ele>
        <time>2017-02-19T14:05:01Z</time>
      </trkpt>
      <trkpt lat="45.66388" lon="6.79702">
        <ele>1667.12</ele>
        <time>2017-02-19T14:05:03Z</time>
      </trkpt>
      <trkpt lat="45.66381" lon="6.79701">
        <ele>1663.61</ele>
        <time>2017-02-19T14:05:06Z</time>
      </trkpt>
      <trkpt lat="45.6637" lon="6.79696">
        <ele>1660.37</ele>
        <time>2017-02-19T14:05:08Z</time>
      </trkpt>
      <trkpt lat="45.66362" lon="6.79688">
        <ele>1658.2</ele>
        <time>2017-02-19T14:05:10Z</time>
      </trkpt>
      <trkpt lat="45.66361" lon="6.79685">
        <ele>1657.01</ele>
        <time>2017-02-19T14:05:11Z</time>
      </trkpt>
      <trkpt lat="45.66362" lon="6.79685">
        <ele>1653.92</ele>
        <time>2017-02-19T14:05:15Z</time>
      </trkpt>
      <trkpt lat="45.66366" lon="6.79684">
        <ele>1651.4</ele>
        <time>2017-02-19T14:05:43Z</time>
      </trkpt>
      <trkpt lat="45.66365" lon="6.79685">
        <ele>1651.44</ele>
        <time>2017-02-19T14:06:12Z</time>
      </trkpt>
      <trkpt lat="45.66361" lon="6.79682">
        <ele>1651.35</ele>
        <time>2017-02-19T14:06:16Z</time>
      </trkpt>
      <trkpt lat="45.66355" lon="6.79676">
        <ele>1651.24</ele>
        <time>2017-02-19T14:06:19Z</time>
      </trkpt>
      <trkpt lat="45.66338" lon="6.79646">
        <ele>1649.78</ele>
        <time>2017-02-19T14:06:26Z</time>
      </trkpt>
      <trkpt lat="45.66335" lon="6.79641">
        <ele>1649.51</ele>
        <time>2017-02-19T14:06:27Z</time>
      </trkpt>
      <trkpt lat="45.66331" lon="6.79637">
        <ele>1649.2</ele>
        <time>2017-02-19T14:06:28Z</time>
      </trkpt>
      <trkpt lat="45.66327" lon="6.79632">
        <ele>1648.8</ele>
        <time>2017-02-19T14:06:29Z</time>
      </trkpt>
      <trkpt lat="45.66323" lon="6.79627">
        <ele>1648.38</ele>
        <time>2017-02-19T14:06:30Z</time>
      </trkpt>
      <trkpt lat="45.6632" lon="6.79622">
        <ele>1647.94</ele>
        <time>2017-02-19T14:06:31Z</time>
      </trkpt>
      <trkpt lat="45.66316" lon="6.79616">
        <ele>1647.44</ele>
        <time>2017-02-19T14:06:32Z</time>
      </trkpt>
      <trkpt lat="45.66313" lon="6.7961">
        <ele>1646.93</ele>
        <time>2017-02-19T14:06:33Z</time>
      </trkpt>
      <trkpt lat="45.6631" lon="6.79604">
        <ele>1646.43</ele>
        <time>2017-02-19T14:06:34Z</time>
      </trkpt>
      <trkpt lat="45.66308" lon="6.79597">
        <ele>1645.92</ele>
        <time>2017-02-19T14:06:35Z</time>
      </trkpt>
      <trkpt lat="45.663" lon="6.79568">
        <ele>1643.78</ele>
        <time>2017-02-19T14:06:39Z</time>
      </trkpt>
      <trkpt lat="45.66299" lon="6.7956">
        <ele>1643.18</ele>
        <time>2017-02-19T14:06:40Z</time>
      </trkpt>
      <trkpt lat="45.66299" lon="6.79553">
        <ele>1642.55</ele>
        <time>2017-02-19T14:06:41Z</time>
      </trkpt>
      <trkpt lat="45.66298" lon="6.79546">
        <ele>1641.93</ele>
        <time>2017-02-19T14:06:42Z</time>
      </trkpt>
      <trkpt lat="45.66295" lon="6.79538">
        <ele>1641.35</ele>
        <time>2017-02-19T14:06:43Z</time>
      </trkpt>
      <trkpt lat="45.66293" lon="6.7953">
        <ele>1640.84</ele>
        <time>2017-02-19T14:06:44Z</time>
      </trkpt>
      <trkpt lat="45.66291" lon="6.79522">
        <ele>1640.36</ele>
        <time>2017-02-19T14:06:45Z</time>
      </trkpt>
      <trkpt lat="45.66289" lon="6.79514">
        <ele>1639.87</ele>
        <time>2017-02-19T14:06:46Z</time>
      </trkpt>
      <trkpt lat="45.66286" lon="6.79507">
        <ele>1639.39</ele>
        <time>2017-02-19T14:06:47Z</time>
      </trkpt>
      <trkpt lat="45.66282" lon="6.795">
        <ele>1638.89</ele>
        <time>2017-02-19T14:06:48Z</time>
      </trkpt>
      <trkpt lat="45.66278" lon="6.79493">
        <ele>1638.39</ele>
        <time>2017-02-19T14:06:49Z</time>
      </trkpt>
      <trkpt lat="45.66276" lon="6.79486">
        <ele>1637.9</ele>
        <time>2017-02-19T14:06:50Z</time>
      </trkpt>
      <trkpt lat="45.66274" lon="6.79479">
        <ele>1637.4</ele>
        <time>2017-02-19T14:06:51Z</time>
      </trkpt>
      <trkpt lat="45.66272" lon="6.79471">
        <ele>1636.81</ele>
        <time>2017-02-19T14:06:52Z</time>
      </trkpt>
      <trkpt lat="45.66267" lon="6.79448">
        <ele>1634.25</ele>
        <time>2017-02-19T14:06:55Z</time>
      </trkpt>
      <trkpt lat="45.66263" lon="6.79441">
        <ele>1633.67</ele>
        <time>2017-02-19T14:06:56Z</time>
      </trkpt>
      <trkpt lat="45.66259" lon="6.79435">
        <ele>1633.07</ele>
        <time>2017-02-19T14:06:57Z</time>
      </trkpt>
      <trkpt lat="45.66252" lon="6.7943">
        <ele>1632.52</ele>
        <time>2017-02-19T14:06:58Z</time>
      </trkpt>
      <trkpt lat="45.66246" lon="6.79427">
        <ele>1632.04</ele>
        <time>2017-02-19T14:06:59Z</time>
      </trkpt>
      <trkpt lat="45.66239" lon="6.79424">
        <ele>1631.58</ele>
        <time>2017-02-19T14:07:00Z</time>
      </trkpt>
      <trkpt lat="45.66231" lon="6.79421">
        <ele>1631.1</ele>
        <time>2017-02-19T14:07:01Z</time>
      </trkpt>
      <trkpt lat="45.66225" lon="6.79419">
        <ele>1630.54</ele>
        <time>2017-02-19T14:07:02Z</time>
      </trkpt>
      <trkpt lat="45.66222" lon="6.79414">
        <ele>1629.95</ele>
        <time>2017-02-19T14:07:03Z</time>
      </trkpt>
      <trkpt lat="45.66218" lon="6.79408">
        <ele>1629.29</ele>
        <time>2017-02-19T14:07:04Z</time>
      </trkpt>
      <trkpt lat="45.66217" lon="6.79401">
        <ele>1628.43</ele>
        <time>2017-02-19T14:07:05Z</time>
      </trkpt>
      <trkpt lat="45.66217" lon="6.79394">
        <ele>1627.46</ele>
        <time>2017-02-19T14:07:06Z</time>
      </trkpt>
      <trkpt lat="45.66214" lon="6.79373">
        <ele>1625.13</ele>
        <time>2017-02-19T14:07:09Z</time>
      </trkpt>
      <trkpt lat="45.66209" lon="6.79337">
        <ele>1621.83</ele>
        <time>2017-02-19T14:07:15Z</time>
      </trkpt>
      <trkpt lat="45.66205" lon="6.79316">
        <ele>1620.17</ele>
        <time>2017-02-19T14:07:19Z</time>
      </trkpt>
      <trkpt lat="45.66204" lon="6.7929">
        <ele>1618.84</ele>
        <time>2017-02-19T14:07:26Z</time>
      </trkpt>
      <trkpt lat="45.66202" lon="6.79288">
        <ele>1618.73</ele>
        <time>2017-02-19T14:07:27Z</time>
      </trkpt>
      <trkpt lat="45.66199" lon="6.79289">
        <ele>1618.64</ele>
        <time>2017-02-19T14:07:28Z</time>
      </trkpt>
      <trkpt lat="45.66197" lon="6.79293">
        <ele>1618.52</ele>
        <time>2017-02-19T14:07:29Z</time>
      </trkpt>
      <trkpt lat="45.66196" lon="6.79298">
        <ele>1618.39</ele>
        <time>2017-02-19T14:07:30Z</time>
      </trkpt>
      <trkpt lat="45.66196" lon="6.79303">
        <ele>1618.2</ele>
        <time>2017-02-19T14:07:31Z</time>
      </trkpt>
      <trkpt lat="45.66195" lon="6.79307">
        <ele>1617.93</ele>
        <time>2017-02-19T14:07:32Z</time>
      </trkpt>
      <trkpt lat="45.66196" lon="6.79311">
        <ele>1617.63</ele>
        <time>2017-02-19T14:07:33Z</time>
      </trkpt>
      <trkpt lat="45.66197" lon="6.79315">
        <ele>1617.37</ele>
        <time>2017-02-19T14:07:34Z</time>
      </trkpt>
      <trkpt lat="45.66198" lon="6.79358">
        <ele>1614.8</ele>
        <time>2017-02-19T14:07:45Z</time>
      </trkpt>
      <trkpt lat="45.66196" lon="6.79408">
        <ele>1613.28</ele>
        <time>2017-02-19T14:07:55Z</time>
      </trkpt>
      <trkpt lat="45.66197" lon="6.79414">
        <ele>1613.06</ele>
        <time>2017-02-19T14:07:56Z</time>
      </trkpt>
      <trkpt lat="45.66199" lon="6.79421">
        <ele>1612.81</ele>
        <time>2017-02-19T14:07:57Z</time>
      </trkpt>
      <trkpt lat="45.66201" lon="6.79428">
        <ele>1612.52</ele>
        <time>2017-02-19T14:07:58Z</time>
      </trkpt>
      <trkpt lat="45.66203" lon="6.79434">
        <ele>1612.17</ele>
        <time>2017-02-19T14:07:59Z</time>
      </trkpt>
      <trkpt lat="45.66213" lon="6.79462">
        <ele>1610.53</ele>
        <time>2017-02-19T14:08:03Z</time>
      </trkpt>
      <trkpt lat="45.66213" lon="6.79471">
        <ele>1610.05</ele>
        <time>2017-02-19T14:08:04Z</time>
      </trkpt>
      <trkpt lat="45.66214" lon="6.7948">
        <ele>1609.56</ele>
        <time>2017-02-19T14:08:05Z</time>
      </trkpt>
      <trkpt lat="45.66216" lon="6.79523">
        <ele>1605.71</ele>
        <time>2017-02-19T14:08:09Z</time>
      </trkpt>
      <trkpt lat="45.66217" lon="6.79532">
        <ele>1604.84</ele>
        <time>2017-02-19T14:08:10Z</time>
      </trkpt>
      <trkpt lat="45.66216" lon="6.79542">
        <ele>1603.99</ele>
        <time>2017-02-19T14:08:11Z</time>
      </trkpt>
      <trkpt lat="45.66216" lon="6.79552">
        <ele>1603.16</ele>
        <time>2017-02-19T14:08:12Z</time>
      </trkpt>
      <trkpt lat="45.66215" lon="6.79561">
        <ele>1602.35</ele>
        <time>2017-02-19T14:08:13Z</time>
      </trkpt>
      <trkpt lat="45.66216" lon="6.7957">
        <ele>1601.55</ele>
        <time>2017-02-19T14:08:14Z</time>
      </trkpt>
      <trkpt lat="45.66216" lon="6.7958">
        <ele>1600.69</ele>
        <time>2017-02-19T14:08:15Z</time>
      </trkpt>
      <trkpt lat="45.66217" lon="6.79588">
        <ele>1599.79</ele>
        <time>2017-02-19T14:08:16Z</time>
      </trkpt>
      <trkpt lat="45.66218" lon="6.79596">
        <ele>1598.9</ele>
        <time>2017-02-19T14:08:17Z</time>
      </trkpt>
      <trkpt lat="45.66219" lon="6.79605">
        <ele>1598.11</ele>
        <time>2017-02-19T14:08:18Z</time>
      </trkpt>
      <trkpt lat="45.66219" lon="6.79613">
        <ele>1597.41</ele>
        <time>2017-02-19T14:08:19Z</time>
      </trkpt>
      <trkpt lat="45.66219" lon="6.79622">
        <ele>1596.76</ele>
        <time>2017-02-19T14:08:20Z</time>
      </trkpt>
      <trkpt lat="45.6622" lon="6.79631">
        <ele>1596.12</ele>
        <time>2017-02-19T14:08:21Z</time>
      </trkpt>
      <trkpt lat="45.6622" lon="6.79639">
        <ele>1595.5</ele>
        <time>2017-02-19T14:08:22Z</time>
      </trkpt>
      <trkpt lat="45.66224" lon="6.79674">
        <ele>1592.97</ele>
        <time>2017-02-19T14:08:26Z</time>
      </trkpt>
      <trkpt lat="45.66226" lon="6.79682">
        <ele>1592.27</ele>
        <time>2017-02-19T14:08:27Z</time>
      </trkpt>
      <trkpt lat="45.66233" lon="6.79709">
        <ele>1588.92</ele>
        <time>2017-02-19T14:08:32Z</time>
      </trkpt>
      <trkpt lat="45.66235" lon="6.79709">
        <ele>1587.86</ele>
        <time>2017-02-19T14:08:34Z</time>
      </trkpt>
      <trkpt lat="45.66236" lon="6.79712">
        <ele>1586.58</ele>
        <time>2017-02-19T14:08:53Z</time>
      </trkpt>
      <trkpt lat="45.66233" lon="6.79711">
        <ele>1586.47</ele>
        <time>2017-02-19T14:08:54Z</time>
      </trkpt>
      <trkpt lat="45.66221" lon="6.79708">
        <ele>1585.43</ele>
        <time>2017-02-19T14:08:58Z</time>
      </trkpt>
      <trkpt lat="45.66221" lon="6.79718">
        <ele>1584.02</ele>
        <time>2017-02-19T14:09:00Z</time>
      </trkpt>
      <trkpt lat="45.66223" lon="6.79723">
        <ele>1583.14</ele>
        <time>2017-02-19T14:09:01Z</time>
      </trkpt>
      <trkpt lat="45.66225" lon="6.79728">
        <ele>1582.14</ele>
        <time>2017-02-19T14:09:02Z</time>
      </trkpt>
      <trkpt lat="45.66225" lon="6.79734">
        <ele>1581.14</ele>
        <time>2017-02-19T14:09:03Z</time>
      </trkpt>
      <trkpt lat="45.66224" lon="6.79757">
        <ele>1577.81</ele>
        <time>2017-02-19T14:09:07Z</time>
      </trkpt>
      <trkpt lat="45.66224" lon="6.79762">
        <ele>1577.1</ele>
        <time>2017-02-19T14:09:08Z</time>
      </trkpt>
      <trkpt lat="45.66224" lon="6.79767">
        <ele>1576.45</ele>
        <time>2017-02-19T14:09:09Z</time>
      </trkpt>
      <trkpt lat="45.66223" lon="6.79772">
        <ele>1575.83</ele>
        <time>2017-02-19T14:09:10Z</time>
      </trkpt>
      <trkpt lat="45.6622" lon="6.79775">
        <ele>1575.21</ele>
        <time>2017-02-19T14:09:11Z</time>
      </trkpt>
      <trkpt lat="45.66217" lon="6.79776">
        <ele>1574.6</ele>
        <time>2017-02-19T14:09:12Z</time>
      </trkpt>
      <trkpt lat="45.66203" lon="6.79774">
        <ele>1571.82</ele>
        <time>2017-02-19T14:09:16Z</time>
      </trkpt>
      <trkpt lat="45.66203" lon="6.79779">
        <ele>1570.99</ele>
        <time>2017-02-19T14:09:17Z</time>
      </trkpt>
      <trkpt lat="45.66204" lon="6.79791">
        <ele>1564.8</ele>
        <time>2017-02-19T14:09:22Z</time>
      </trkpt>
      <trkpt lat="45.66191" lon="6.798">
        <ele>1559.68</ele>
        <time>2017-02-19T14:09:27Z</time>
      </trkpt>
      <trkpt lat="45.66175" lon="6.79794">
        <ele>1554.53</ele>
        <time>2017-02-19T14:09:32Z</time>
      </trkpt>
      <trkpt lat="45.6617" lon="6.79798">
        <ele>1551.05</ele>
        <time>2017-02-19T14:09:35Z</time>
      </trkpt>
      <trkpt lat="45.66172" lon="6.79799">
        <ele>1546.69</ele>
        <time>2017-02-19T14:09:40Z</time>
      </trkpt>
      <trkpt lat="45.66173" lon="6.79799">
        <ele>1544.77</ele>
        <time>2017-02-19T14:09:46Z</time>
      </trkpt>
      <trkpt lat="45.66154" lon="6.7978">
        <ele>1542.84</ele>
        <time>2017-02-19T14:09:51Z</time>
      </trkpt>
      <trkpt lat="45.66146" lon="6.79759">
        <ele>1540.3</ele>
        <time>2017-02-19T14:09:54Z</time>
      </trkpt>
      <trkpt lat="45.66143" lon="6.79754">
        <ele>1539.55</ele>
        <time>2017-02-19T14:09:55Z</time>
      </trkpt>
      <trkpt lat="45.66139" lon="6.79751">
        <ele>1538.83</ele>
        <time>2017-02-19T14:09:56Z</time>
      </trkpt>
      <trkpt lat="45.66136" lon="6.79751">
        <ele>1538.14</ele>
        <time>2017-02-19T14:09:57Z</time>
      </trkpt>
      <trkpt lat="45.66134" lon="6.79753">
        <ele>1537.5</ele>
        <time>2017-02-19T14:09:58Z</time>
      </trkpt>
      <trkpt lat="45.66131" lon="6.79753">
        <ele>1536.86</ele>
        <time>2017-02-19T14:09:59Z</time>
      </trkpt>
      <trkpt lat="45.66127" lon="6.79751">
        <ele>1536.11</ele>
        <time>2017-02-19T14:10:00Z</time>
      </trkpt>
      <trkpt lat="45.66122" lon="6.79748">
        <ele>1535.2</ele>
        <time>2017-02-19T14:10:01Z</time>
      </trkpt>
      <trkpt lat="45.66117" lon="6.79744">
        <ele>1534.25</ele>
        <time>2017-02-19T14:10:02Z</time>
      </trkpt>
      <trkpt lat="45.66112" lon="6.79738">
        <ele>1533.31</ele>
        <time>2017-02-19T14:10:03Z</time>
      </trkpt>
      <trkpt lat="45.66103" lon="6.79726">
        <ele>1531.33</ele>
        <time>2017-02-19T14:10:05Z</time>
      </trkpt>
      <trkpt lat="45.661" lon="6.79718">
        <ele>1530.4</ele>
        <time>2017-02-19T14:10:06Z</time>
      </trkpt>
      <trkpt lat="45.66098" lon="6.79712">
        <ele>1529.53</ele>
        <time>2017-02-19T14:10:07Z</time>
      </trkpt>
      <trkpt lat="45.66095" lon="6.7971">
        <ele>1528.66</ele>
        <time>2017-02-19T14:10:08Z</time>
      </trkpt>
      <trkpt lat="45.66093" lon="6.79713">
        <ele>1527.77</ele>
        <time>2017-02-19T14:10:09Z</time>
      </trkpt>
      <trkpt lat="45.66092" lon="6.79717">
        <ele>1526.93</ele>
        <time>2017-02-19T14:10:10Z</time>
      </trkpt>
      <trkpt lat="45.66092" lon="6.79721">
        <ele>1526.15</ele>
        <time>2017-02-19T14:10:11Z</time>
      </trkpt>
      <trkpt lat="45.66092" lon="6.79725">
        <ele>1525.37</ele>
        <time>2017-02-19T14:10:12Z</time>
      </trkpt>
      <trkpt lat="45.66092" lon="6.79729">
        <ele>1524.62</ele>
        <time>2017-02-19T14:10:13Z</time>
      </trkpt>
      <trkpt lat="45.66097" lon="6.79753">
        <ele>1521.34</ele>
        <time>2017-02-19T14:10:19Z</time>
      </trkpt>
      <trkpt lat="45.66107" lon="6.79798">
        <ele>1518.72</ele>
        <time>2017-02-19T14:10:29Z</time>
      </trkpt>
      <trkpt lat="45.66112" lon="6.79825">
        <ele>1516.65</ele>
        <time>2017-02-19T14:10:35Z</time>
      </trkpt>
      <trkpt lat="45.6611" lon="6.79824">
        <ele>1516.33</ele>
        <time>2017-02-19T14:10:36Z</time>
      </trkpt>
      <trkpt lat="45.66108" lon="6.7982">
        <ele>1515.95</ele>
        <time>2017-02-19T14:10:37Z</time>
      </trkpt>
      <trkpt lat="45.66107" lon="6.79814">
        <ele>1515.52</ele>
        <time>2017-02-19T14:10:38Z</time>
      </trkpt>
      <trkpt lat="45.66106" lon="6.79809">
        <ele>1515.08</ele>
        <time>2017-02-19T14:10:39Z</time>
      </trkpt>
      <trkpt lat="45.66104" lon="6.79805">
        <ele>1514.67</ele>
        <time>2017-02-19T14:10:40Z</time>
      </trkpt>
      <trkpt lat="45.66102" lon="6.798">
        <ele>1514.31</ele>
        <time>2017-02-19T14:10:41Z</time>
      </trkpt>
      <trkpt lat="45.66099" lon="6.79796">
        <ele>1513.99</ele>
        <time>2017-02-19T14:10:42Z</time>
      </trkpt>
      <trkpt lat="45.66097" lon="6.79792">
        <ele>1513.45</ele>
        <time>2017-02-19T14:10:43Z</time>
      </trkpt>
      <trkpt lat="45.66094" lon="6.79788">
        <ele>1513.16</ele>
        <time>2017-02-19T14:10:44Z</time>
      </trkpt>
      <trkpt lat="45.66092" lon="6.79784">
        <ele>1512.86</ele>
        <time>2017-02-19T14:10:45Z</time>
      </trkpt>
      <trkpt lat="45.66089" lon="6.7978">
        <ele>1512.58</ele>
        <time>2017-02-19T14:10:46Z</time>
      </trkpt>
      <trkpt lat="45.66065" lon="6.79742">
        <ele>1510.42</ele>
        <time>2017-02-19T14:10:53Z</time>
      </trkpt>
      <trkpt lat="45.66062" lon="6.79735">
        <ele>1510.04</ele>
        <time>2017-02-19T14:10:54Z</time>
      </trkpt>
      <trkpt lat="45.66054" lon="6.79713">
        <ele>1508.47</ele>
        <time>2017-02-19T14:10:57Z</time>
      </trkpt>
      <trkpt lat="45.66051" lon="6.79701">
        <ele>1507.17</ele>
        <time>2017-02-19T14:10:59Z</time>
      </trkpt>
      <trkpt lat="45.6605" lon="6.79696">
        <ele>1506.45</ele>
        <time>2017-02-19T14:11:00Z</time>
      </trkpt>
      <trkpt lat="45.66049" lon="6.79692">
        <ele>1505.76</ele>
        <time>2017-02-19T14:11:01Z</time>
      </trkpt>
      <trkpt lat="45.66046" lon="6.79683">
        <ele>1504.64</ele>
        <time>2017-02-19T14:11:03Z</time>
      </trkpt>
      <trkpt lat="45.66046" lon="6.79677">
        <ele>1504.17</ele>
        <time>2017-02-19T14:11:04Z</time>
      </trkpt>
      <trkpt lat="45.66044" lon="6.79673">
        <ele>1503.75</ele>
        <time>2017-02-19T14:11:05Z</time>
      </trkpt>
      <trkpt lat="45.66043" lon="6.7967">
        <ele>1503.39</ele>
        <time>2017-02-19T14:11:06Z</time>
      </trkpt>
      <trkpt lat="45.66043" lon="6.79668">
        <ele>1503.09</ele>
        <time>2017-02-19T14:11:07Z</time>
      </trkpt>
      <trkpt lat="45.66043" lon="6.79668">
        <ele>1502.48</ele>
        <time>2017-02-19T14:11:08Z</time>
      </trkpt>
      <trkpt lat="45.66041" lon="6.79662">
        <ele>1500.39</ele>
        <time>2017-02-19T14:11:17Z</time>
      </trkpt>
      <trkpt lat="45.66041" lon="6.79661">
        <ele>1500.31</ele>
        <time>2017-02-19T14:11:18Z</time>
      </trkpt>
      <trkpt lat="45.66032" lon="6.79651">
        <ele>1499.19</ele>
        <time>2017-02-19T14:11:46Z</time>
      </trkpt>
      <trkpt lat="45.66032" lon="6.79649">
        <ele>1499.08</ele>
        <time>2017-02-19T14:11:47Z</time>
      </trkpt>
      <trkpt lat="45.66031" lon="6.79648">
        <ele>1498.95</ele>
        <time>2017-02-19T14:11:48Z</time>
      </trkpt>
      <trkpt lat="45.66032" lon="6.79636">
        <ele>1496.88</ele>
        <time>2017-02-19T14:12:03Z</time>
      </trkpt>
      <trkpt lat="45.6603" lon="6.79634">
        <ele>1497.05</ele>
        <time>2017-02-19T14:12:21Z</time>
      </trkpt>
      <trkpt lat="45.6603" lon="6.79629">
        <ele>1496.95</ele>
        <time>2017-02-19T14:12:28Z</time>
      </trkpt>
      <trkpt lat="45.6603" lon="6.79626">
        <ele>1496.87</ele>
        <time>2017-02-19T14:12:29Z</time>
      </trkpt>
      <trkpt lat="45.66028" lon="6.79618">
        <ele>1496.7</ele>
        <time>2017-02-19T14:12:31Z</time>
      </trkpt>
      <trkpt lat="45.66026" lon="6.79614">
        <ele>1496.59</ele>
        <time>2017-02-19T14:12:32Z</time>
      </trkpt>
      <trkpt lat="45.66025" lon="6.79611">
        <ele>1496.45</ele>
        <time>2017-02-19T14:12:33Z</time>
      </trkpt>
      <trkpt lat="45.66025" lon="6.79608">
        <ele>1496.29</ele>
        <time>2017-02-19T14:12:34Z</time>
      </trkpt>
      <trkpt lat="45.66013" lon="6.7957">
        <ele>1493.86</ele>
        <time>2017-02-19T14:12:44Z</time>
      </trkpt>
      <trkpt lat="45.66003" lon="6.79542">
        <ele>1491.1</ele>
        <time>2017-02-19T14:12:50Z</time>
      </trkpt>
      <trkpt lat="45.65992" lon="6.79521">
        <ele>1489.18</ele>
        <time>2017-02-19T14:12:54Z</time>
      </trkpt>
      <trkpt lat="45.65991" lon="6.79516">
        <ele>1488.6</ele>
        <time>2017-02-19T14:12:55Z</time>
      </trkpt>
      <trkpt lat="45.6599" lon="6.7951">
        <ele>1487.99</ele>
        <time>2017-02-19T14:12:56Z</time>
      </trkpt>
      <trkpt lat="45.65988" lon="6.79506">
        <ele>1487.48</ele>
        <time>2017-02-19T14:12:57Z</time>
      </trkpt>
      <trkpt lat="45.65986" lon="6.79503">
        <ele>1486.99</ele>
        <time>2017-02-19T14:12:58Z</time>
      </trkpt>
      <trkpt lat="45.65985" lon="6.795">
        <ele>1486.46</ele>
        <time>2017-02-19T14:12:59Z</time>
      </trkpt>
      <trkpt lat="45.65984" lon="6.79497">
        <ele>1483.35</ele>
        <time>2017-02-19T14:13:07Z</time>
      </trkpt>
      <trkpt lat="45.65985" lon="6.79495">
        <ele>1482.51</ele>
        <time>2017-02-19T14:13:16Z</time>
      </trkpt>
      <trkpt lat="45.65984" lon="6.79494">
        <ele>1482.48</ele>
        <time>2017-02-19T14:13:17Z</time>
      </trkpt>
      <trkpt lat="45.65983" lon="6.79493">
        <ele>1482.48</ele>
        <time>2017-02-19T14:13:18Z</time>
      </trkpt>
      <trkpt lat="45.65982" lon="6.79486">
        <ele>1482.35</ele>
        <time>2017-02-19T14:13:22Z</time>
      </trkpt>
      <trkpt lat="45.65982" lon="6.79484">
        <ele>1482.27</ele>
        <time>2017-02-19T14:13:23Z</time>
      </trkpt>
      <trkpt lat="45.65978" lon="6.79467">
        <ele>1481.19</ele>
        <time>2017-02-19T14:13:33Z</time>
      </trkpt>
      <trkpt lat="45.65978" lon="6.79462">
        <ele>1480.82</ele>
        <time>2017-02-19T14:13:36Z</time>
      </trkpt>
      <trkpt lat="45.65978" lon="6.7946">
        <ele>1480.69</ele>
        <time>2017-02-19T14:13:37Z</time>
      </trkpt>
      <trkpt lat="45.65972" lon="6.79439">
        <ele>1478.22</ele>
        <time>2017-02-19T14:13:53Z</time>
      </trkpt>
      <trkpt lat="45.65967" lon="6.79435">
        <ele>1477.34</ele>
        <time>2017-02-19T14:14:03Z</time>
      </trkpt>
      <trkpt lat="45.65966" lon="6.79427">
        <ele>1477.17</ele>
        <time>2017-02-19T14:14:06Z</time>
      </trkpt>
      <trkpt lat="45.65966" lon="6.79424">
        <ele>1477.12</ele>
        <time>2017-02-19T14:14:07Z</time>
      </trkpt>
      <trkpt lat="45.65966" lon="6.7942">
        <ele>1477.03</ele>
        <time>2017-02-19T14:14:08Z</time>
      </trkpt>
      <trkpt lat="45.65957" lon="6.79381">
        <ele>1474.86</ele>
        <time>2017-02-19T14:14:17Z</time>
      </trkpt>
      <trkpt lat="45.65955" lon="6.79376">
        <ele>1473.36</ele>
        <time>2017-02-19T14:14:21Z</time>
      </trkpt>
      <trkpt lat="45.65951" lon="6.79362">
        <ele>1471</ele>
        <time>2017-02-19T14:14:45Z</time>
      </trkpt>
      <trkpt lat="45.65951" lon="6.79359">
        <ele>1470.89</ele>
        <time>2017-02-19T14:14:47Z</time>
      </trkpt>
      <trkpt lat="45.65949" lon="6.79354">
        <ele>1470.83</ele>
        <time>2017-02-19T14:14:49Z</time>
      </trkpt>
      <trkpt lat="45.65948" lon="6.79351">
        <ele>1470.78</ele>
        <time>2017-02-19T14:14:50Z</time>
      </trkpt>
      <trkpt lat="45.65947" lon="6.79347">
        <ele>1470.73</ele>
        <time>2017-02-19T14:14:51Z</time>
      </trkpt>
      <trkpt lat="45.65946" lon="6.79343">
        <ele>1470.67</ele>
        <time>2017-02-19T14:14:52Z</time>
      </trkpt>
      <trkpt lat="45.65946" lon="6.79339">
        <ele>1470.6</ele>
        <time>2017-02-19T14:14:53Z</time>
      </trkpt>
      <trkpt lat="45.65936" lon="6.793">
        <ele>1468.22</ele>
        <time>2017-02-19T14:15:01Z</time>
      </trkpt>
      <trkpt lat="45.65932" lon="6.79261">
        <ele>1465.09</ele>
        <time>2017-02-19T14:15:08Z</time>
      </trkpt>
      <trkpt lat="45.65933" lon="6.7924">
        <ele>1462.05</ele>
        <time>2017-02-19T14:15:15Z</time>
      </trkpt>
      <trkpt lat="45.65936" lon="6.792">
        <ele>1458.93</ele>
        <time>2017-02-19T14:15:23Z</time>
      </trkpt>
      <trkpt lat="45.65928" lon="6.7916">
        <ele>1455.81</ele>
        <time>2017-02-19T14:15:30Z</time>
      </trkpt>
      <trkpt lat="45.65928" lon="6.79121">
        <ele>1453.31</ele>
        <time>2017-02-19T14:15:38Z</time>
      </trkpt>
      <trkpt lat="45.65927" lon="6.79119">
        <ele>1453.12</ele>
        <time>2017-02-19T14:15:39Z</time>
      </trkpt>
      <trkpt lat="45.65926" lon="6.7912">
        <ele>1452.91</ele>
        <time>2017-02-19T14:15:40Z</time>
      </trkpt>
      <trkpt lat="45.65924" lon="6.79123">
        <ele>1452.7</ele>
        <time>2017-02-19T14:15:41Z</time>
      </trkpt>
      <trkpt lat="45.65922" lon="6.79126">
        <ele>1452.49</ele>
        <time>2017-02-19T14:15:42Z</time>
      </trkpt>
      <trkpt lat="45.65921" lon="6.7913">
        <ele>1452.21</ele>
        <time>2017-02-19T14:15:43Z</time>
      </trkpt>
      <trkpt lat="45.65921" lon="6.79134">
        <ele>1451.46</ele>
        <time>2017-02-19T14:15:44Z</time>
      </trkpt>
      <trkpt lat="45.6592" lon="6.79139">
        <ele>1451.13</ele>
        <time>2017-02-19T14:15:45Z</time>
      </trkpt>
      <trkpt lat="45.65919" lon="6.79143">
        <ele>1450.82</ele>
        <time>2017-02-19T14:15:46Z</time>
      </trkpt>
      <trkpt lat="45.65919" lon="6.79146">
        <ele>1450.54</ele>
        <time>2017-02-19T14:15:47Z</time>
      </trkpt>
      <trkpt lat="45.65919" lon="6.79147">
        <ele>1450.22</ele>
        <time>2017-02-19T14:15:48Z</time>
      </trkpt>
      <trkpt lat="45.65918" lon="6.79151">
        <ele>1447.13</ele>
        <time>2017-02-19T14:16:09Z</time>
      </trkpt>
      <trkpt lat="45.65916" lon="6.79155">
        <ele>1447.44</ele>
        <time>2017-02-19T14:16:32Z</time>
      </trkpt>
      <trkpt lat="45.65914" lon="6.79156">
        <ele>1446.25</ele>
        <time>2017-02-19T14:16:54Z</time>
      </trkpt>
      <trkpt lat="45.6591" lon="6.79154">
        <ele>1445.68</ele>
        <time>2017-02-19T14:17:02Z</time>
      </trkpt>
      <trkpt lat="45.65908" lon="6.79154">
        <ele>1445.58</ele>
        <time>2017-02-19T14:17:03Z</time>
      </trkpt>
      <trkpt lat="45.65906" lon="6.79155">
        <ele>1445.47</ele>
        <time>2017-02-19T14:17:04Z</time>
      </trkpt>
      <trkpt lat="45.65905" lon="6.79157">
        <ele>1445.28</ele>
        <time>2017-02-19T14:17:05Z</time>
      </trkpt>
      <trkpt lat="45.65904" lon="6.79159">
        <ele>1444.97</ele>
        <time>2017-02-19T14:17:06Z</time>
      </trkpt>
      <trkpt lat="45.65903" lon="6.79161">
        <ele>1444.57</ele>
        <time>2017-02-19T14:17:07Z</time>
      </trkpt>
      <trkpt lat="45.65896" lon="6.79167">
        <ele>1441.55</ele>
        <time>2017-02-19T14:17:15Z</time>
      </trkpt>
      <trkpt lat="45.65892" lon="6.79164">
        <ele>1440.36</ele>
        <time>2017-02-19T14:17:19Z</time>
      </trkpt>
      <trkpt lat="45.65888" lon="6.79163">
        <ele>1439.09</ele>
        <time>2017-02-19T14:17:22Z</time>
      </trkpt>
      <trkpt lat="45.65881" lon="6.79173">
        <ele>1435.2</ele>
        <time>2017-02-19T14:17:29Z</time>
      </trkpt>
      <trkpt lat="45.65878" lon="6.79182">
        <ele>1431.87</ele>
        <time>2017-02-19T14:17:35Z</time>
      </trkpt>
      <trkpt lat="45.65875" lon="6.79185">
        <ele>1428.57</ele>
        <time>2017-02-19T14:17:43Z</time>
      </trkpt>
      <trkpt lat="45.65873" lon="6.7918">
        <ele>1427.35</ele>
        <time>2017-02-19T14:17:46Z</time>
      </trkpt>
      <trkpt lat="45.6587" lon="6.79169">
        <ele>1425.85</ele>
        <time>2017-02-19T14:17:51Z</time>
      </trkpt>
      <trkpt lat="45.65866" lon="6.79156">
        <ele>1424.78</ele>
        <time>2017-02-19T14:17:58Z</time>
      </trkpt>
      <trkpt lat="45.65858" lon="6.79157">
        <ele>1423.87</ele>
        <time>2017-02-19T14:18:03Z</time>
      </trkpt>
      <trkpt lat="45.65848" lon="6.79161">
        <ele>1420.11</ele>
        <time>2017-02-19T14:18:10Z</time>
      </trkpt>
      <trkpt lat="45.65845" lon="6.79158">
        <ele>1417.5</ele>
        <time>2017-02-19T14:18:14Z</time>
      </trkpt>
      <trkpt lat="45.65841" lon="6.79154">
        <ele>1413.91</ele>
        <time>2017-02-19T14:18:21Z</time>
      </trkpt>
      <trkpt lat="45.65836" lon="6.79157">
        <ele>1412.2</ele>
        <time>2017-02-19T14:18:25Z</time>
      </trkpt>
      <trkpt lat="45.65831" lon="6.79161">
        <ele>1408.65</ele>
        <time>2017-02-19T14:18:34Z</time>
      </trkpt>
      <trkpt lat="45.65828" lon="6.79157">
        <ele>1406.9</ele>
        <time>2017-02-19T14:18:58Z</time>
      </trkpt>
      <trkpt lat="45.6583" lon="6.79158">
        <ele>1406.95</ele>
        <time>2017-02-19T14:19:19Z</time>
      </trkpt>
      <trkpt lat="45.65832" lon="6.79155">
        <ele>1406.89</ele>
        <time>2017-02-19T14:19:36Z</time>
      </trkpt>
    </trkseg>
  </trk>
</gpx>